Date StartTime U_cm/s V_cm/s W_cm/s Ustd_cm/s Vstd_cm/s Wstd_cm/s Uvar_(cm/s)^2 Vvar_(cm/s)^2 Wvar_(cm/s)^2 KE_(m/s)^2 TurbulentKE_(m/s)^2 HorizWindSpeed_cm/s FrictionSpeec_cm/s DragCoef SpeedOfSound_m/s SonicTemperature_C Pressure_mb 
08/25/2014  00:00:00     -325.390      -27.921      -21.730      140.870      115.934       65.605    19844.222    13440.765     4303.969        7.235        1.879      326.586       48.223        0.022      344.674       21.656      857.433
08/25/2014  00:01:00     -335.643      -94.783        0.105      162.023      143.769       76.888    26251.364    20669.622     5911.780        8.723        2.642      348.769       84.578        0.059      344.670       21.649      857.429
08/25/2014  00:02:00     -352.826       -4.659      -33.987      139.497      115.333       59.241    19459.311    13301.743     3509.499        8.096        1.814      352.857       50.910        0.021      344.657       21.628      857.432
08/25/2014  00:03:00     -374.822      -80.928      -17.198      135.467      107.756       78.961    18351.204    11611.385     6234.820        9.176        1.810      383.460       69.774        0.033      344.654       21.622      857.438
08/25/2014  00:04:00     -323.237      -87.764       -2.874      156.508      134.594       75.532    24494.663    18115.532     5705.029        8.024        2.416      334.940       78.875        0.055      344.657       21.627      857.434
08/25/2014  00:05:00     -381.905     -110.650       -4.028      152.841      124.647       74.326    23360.443    15536.808     5524.406       10.126        2.221      397.611       74.713        0.035      344.721       21.737      857.442
08/25/2014  00:06:00     -316.649     -116.588       -8.941      152.308      105.261       57.521    23197.654    11079.897     3308.670        7.576        1.879      337.431       64.027        0.036      344.678       21.664      857.441
08/25/2014  00:07:00     -284.562      -30.511       -8.785      131.479      120.020       59.935    17286.614    14404.682     3592.243        5.863        1.764      286.193       66.412        0.054      344.664       21.638      857.448
08/25/2014  00:08:00     -393.094      -39.638      -22.988      167.775      151.565       69.796    28148.375    22971.949     4871.528       10.630        2.800      395.087       82.425        0.044      344.712       21.721      857.447
08/25/2014  00:09:00     -392.276     -114.116       -7.653      147.460      129.075       80.402    21744.387    16660.320     6464.513       10.591        2.243      408.537       78.974        0.037      344.740       21.770      857.455
08/25/2014  00:10:00     -327.932     -115.369      -17.018      120.663       86.028       60.792    14559.577     7400.733     3695.608        7.339        1.283      347.634       54.139        0.024      344.707       21.713      857.457
08/25/2014  00:11:00     -262.212      -43.999       -4.916      119.288       97.114       64.389    14229.536     9431.094     4146.003        4.926        1.390      265.877       61.582        0.054      344.685       21.675      857.466
08/25/2014  00:12:00     -310.682      -85.569      -17.672      127.517      110.975       62.873    16260.602    12315.431     3952.996        6.834        1.626      322.250       50.476        0.025      344.734       21.760      857.484
08/25/2014  00:13:00     -289.409     -117.434       -7.446      177.152      116.766       63.667    31382.716    13634.305     4053.475        7.333        2.454      312.327       80.312        0.066      344.715       21.728      857.484
08/25/2014  00:14:00     -341.080      -73.429       -9.940      159.788      115.120       66.186    25532.338    13252.573     4380.646        8.249        2.158      348.894       76.342        0.048      344.718       21.731      857.486
08/25/2014  00:15:00     -251.525      -18.542       -4.367      101.744       87.204       57.022    10351.753     7604.590     3251.464        4.241        1.060      252.208       51.235        0.041      344.673       21.654      857.479
08/25/2014  00:16:00     -259.708      -29.700       -1.383      135.493      113.803       64.842    18358.345    12951.150     4204.491        5.192        1.776      261.401       72.197        0.076      344.670       21.649      857.483
08/25/2014  00:17:00     -308.554      -56.247        8.657      214.666      114.669       82.966    46081.558    13148.963     6883.360        8.227        3.306      313.639      109.713        0.122      344.770       21.821      857.463
08/25/2014  00:18:00     -229.735      -48.782       -1.461      124.995      111.130       61.011    15623.729    12349.818     3722.308        4.342        1.585      234.857       65.853        0.079      344.733       21.758      857.475
08/25/2014  00:19:00     -175.069       14.233        1.593      124.914       72.259       52.695    15603.501     5221.334     2776.810        2.722        1.180      175.646       64.225        0.134      344.678       21.664      857.485
08/25/2014  00:20:00     -316.279      -30.126      -13.159      127.944       88.875       62.436    16369.627     7898.692     3898.233        6.463        1.408      317.710       67.118        0.045      344.709       21.716      857.501
08/25/2014  00:21:00     -403.437      -48.042      -27.618      137.056       91.556       60.988    18784.436     8382.538     3719.477        9.835        1.544      406.288       56.825        0.020      344.713       21.723      857.502
08/25/2014  00:22:00     -171.200      -62.540        6.294      114.311       99.087       57.406    13066.939     9818.221     3295.501        2.972        1.309      182.266       49.257        0.073      344.657       21.630      857.499
08/25/2014  00:23:00     -254.618      -74.416      -10.402      118.161       84.332       50.659    13962.005     7111.835     2566.306        4.705        1.182      265.270       56.676        0.046      344.661       21.634      857.498
08/25/2014  00:24:00     -206.317      -59.228        6.183      124.116       91.224       53.654    15404.827     8321.820     2878.774        3.635        1.330      214.650       60.245        0.079      344.621       21.566      857.500
08/25/2014  00:25:00     -202.881      -77.874       11.851      131.133      105.277       65.351    17195.981    11083.198     4270.806        3.995        1.627      217.313       70.892        0.106      344.627       21.577      857.494
08/25/2014  00:26:00     -173.110      -57.801        6.769       97.426      101.078       57.702     9491.800    10216.739     3329.535        2.819        1.152      182.505       53.918        0.087      344.628       21.580      857.491
08/25/2014  00:27:00     -278.796      -64.987       -2.277      111.881       79.142       58.273    12517.329     6263.424     3395.777        5.206        1.109      286.270       59.721        0.044      344.638       21.596      857.491
08/25/2014  00:28:00     -280.083     -183.457      -12.648      106.422       77.173       55.891    11325.714     5955.729     3123.797        6.633        1.020      334.818       55.621        0.028      344.665       21.641      857.488
08/25/2014  00:29:00     -371.312     -144.050      -23.535      131.765      135.084       65.377    17362.084    18247.712     4274.087        9.952        1.994      398.276       57.788        0.021      344.692       21.687      857.472
08/25/2014  00:30:00     -256.435      -23.867        8.371      125.230      104.951       72.547    15682.587    11014.645     5263.094        4.917        1.598      257.543       76.469        0.088      344.624       21.571      857.471
08/25/2014  00:31:00     -204.959     -148.741       -0.627      134.317      103.506       63.047    18040.940    10713.452     3974.976        4.842        1.636      253.243       70.040        0.076      344.635       21.592      857.451
08/25/2014  00:32:00     -192.181      -68.477      -13.701      118.229      104.351       65.293    13978.214    10889.086     4263.174        3.546        1.457      204.016       55.312        0.074      344.611       21.550      857.431
08/25/2014  00:33:00     -233.010      -76.822      -12.135      130.619      107.355       57.412    17061.262    11525.062     3296.083        4.611        1.594      245.348       33.809        0.019      344.604       21.539      857.422
08/25/2014  00:34:00     -292.571     -123.041        0.091      179.400      110.653       71.932    32184.255    12244.173     5174.221        7.516        2.480      317.390       68.156        0.046      344.665       21.641      857.398
08/25/2014  00:35:00     -255.571      -52.012       -9.465      116.924      118.169       56.832    13671.275    13963.823     3229.893        4.948        1.543      260.810       58.948        0.051      344.632       21.585      857.400
08/25/2014  00:36:00     -232.965     -134.403      -32.736      155.388       87.005       46.495    24145.288     7569.799     2161.812        5.364        1.694      268.955       39.250        0.021      344.624       21.572      857.388
08/25/2014  00:37:00     -272.699      -49.081      -11.268      190.374       98.084       72.809    36242.188     9620.382     5301.094        6.402        2.558      277.081       96.257        0.121      344.581       21.500      857.369
08/25/2014  00:38:00     -253.844     -143.046      -22.434      116.345       77.805       57.054    13536.267     6053.559     3255.159        5.412        1.142      291.374       59.509        0.042      344.591       21.514      857.346
08/25/2014  00:39:00     -360.334     -175.257      -20.376      188.160      120.081       76.182    35404.018    14419.511     5803.736       10.829        2.781      400.694       88.331        0.049      344.579       21.495      857.340
08/25/2014  00:40:00     -287.240     -172.023      -16.474      177.841      114.850       62.770    31627.476    13190.479     3940.044        8.055        2.438      334.811       80.449        0.058      344.560       21.464      857.331
08/25/2014  00:41:00     -265.380     -154.338       -9.299      118.003      107.827       63.776    13924.817    11626.650     4067.377        6.197        1.481      306.996       57.472        0.035      344.526       21.404      857.321
08/25/2014  00:42:00     -388.492     -206.341        0.112      163.929      121.452       75.114    26872.776    14750.526     5642.076       12.037        2.363      439.890       82.150        0.035      344.555       21.454      857.330
08/25/2014  00:43:00     -397.588     -153.091       -6.874      172.218      129.770       73.042    29659.206    16840.303     5335.125       11.669        2.592      426.043       69.760        0.027      344.553       21.452      857.337
08/25/2014  00:44:00     -196.999     -124.448       19.184      185.318      118.218       75.466    34342.819    13975.577     5695.118        5.433        2.701      233.015       90.590        0.151      344.566       21.472      857.338
08/25/2014  00:45:00     -386.861      -92.421      -17.672      140.827      133.466       58.866    19832.278    17813.127     3465.215        9.980        2.056      397.747       60.385        0.023      344.628       21.578      857.350
08/25/2014  00:46:00     -320.520     -181.739      -10.911      134.943      110.963       57.596    18209.540    12312.698     3317.335        8.485        1.692      368.459       54.727        0.022      344.616       21.556      857.356
08/25/2014  00:47:00     -224.169     -134.089       -4.306      138.137      121.732       60.596    19081.940    14818.588     3671.874        5.290        1.879      261.212       49.407        0.036      344.566       21.472      857.359
08/25/2014  00:48:00     -276.191     -154.829        3.420      165.838      110.080       60.091    27502.201    12117.563     3610.880        7.174        2.162      316.629       62.342        0.039      344.568       21.476      857.351
08/25/2014  00:49:00     -284.503     -124.115       -4.549      146.673       98.244       54.125    21512.875     9651.903     2929.533        6.522        1.705      310.397       63.829        0.042      344.515       21.386      857.359
08/25/2014  00:50:00     -311.855     -117.937       -5.617      183.931      103.686       77.745    33830.518    10750.803     6044.330        8.090        2.531      333.411       94.462        0.080      344.509       21.376      857.369
08/25/2014  00:51:00     -420.523     -158.952      -11.644      192.621      130.755       83.390    37102.883    17096.779     6953.970       13.168        3.058      449.561       84.586        0.035      344.617       21.558      857.370
08/25/2014  00:52:00     -297.080      -82.757        5.419      190.371      187.297       87.458    36241.146    35080.345     7648.973        8.704        3.949      308.391       96.694        0.098      344.607       21.543      857.378
08/25/2014  00:53:00     -302.632      -60.311       -5.554      181.301      143.708       83.823    32869.961    20651.953     7026.250        7.789        3.027      308.583       93.609        0.092      344.671       21.650      857.385
08/25/2014  00:54:00     -355.640      -85.117        0.423      219.576      136.513       85.270    48213.613    18635.825     7270.994       10.391        3.706      365.684       96.822        0.070      344.754       21.793      857.381
08/25/2014  00:55:00     -395.073      -54.319       -5.984      193.050      118.931       78.907    37268.309    14144.509     6226.245       10.834        2.882      398.790       91.279        0.052      344.716       21.728      857.382
08/25/2014  00:56:00     -310.640     -138.334        4.471      177.765      127.375       74.216    31600.248    16224.474     5507.979        8.448        2.667      340.049       65.820        0.037      344.678       21.663      857.389
08/25/2014  00:57:00     -305.490     -167.451       -8.767      179.751      152.470       90.559    32310.506    23247.040     8201.022        9.259        3.188      348.373       87.648        0.063      344.669       21.647      857.400
08/25/2014  00:58:00     -296.245     -123.418        6.824      170.952      173.610       91.395    29224.472    30140.538     8352.971        8.537        3.386      320.926       95.559        0.089      344.661       21.634      857.414
08/25/2014  00:59:00     -320.838     -100.388      -30.032      163.343      142.465       59.738    26680.988    20296.258     3568.589        8.222        2.527      336.177       62.946        0.035      344.656       21.625      857.430
08/25/2014  01:00:00     -139.979      -69.545       18.000      147.324      120.439       77.739    21704.339    14505.453     6043.384        3.350        2.113      156.303       69.178        0.196      344.562       21.467      857.424
08/25/2014  01:01:00     -212.426      -16.472      -12.650      175.021       88.443       72.970    30632.402     7822.233     5324.677        4.466        2.189      213.063       76.797        0.130      344.531       21.413      857.427
08/25/2014  01:02:00     -279.779     -108.939       -6.477      164.292      149.140       70.178    26992.017    22242.804     4924.930        7.216        2.708      300.240       72.646        0.059      344.497       21.356      857.440
08/25/2014  01:03:00     -403.038     -178.214      -20.628      167.021      145.333       76.676    27896.027    21121.640     5879.250       12.475        2.745      440.681       69.843        0.025      344.474       21.316      857.435
08/25/2014  01:04:00     -238.738      -35.324       16.039      173.823      151.591       70.100    30214.555    22979.978     4913.987        5.829        2.905      241.337       65.905        0.075      344.450       21.274      857.441
08/25/2014  01:05:00     -269.078     -176.706       -8.488      152.336      148.793       81.930    23206.186    22139.330     6712.543        7.787        2.603      321.913       77.048        0.057      344.429       21.236      857.422
08/25/2014  01:06:00     -425.120      -79.459      -24.417      164.931      112.819       62.167    27202.201    12728.231     3864.704       11.571        2.190      432.482       65.080        0.023      344.411       21.208      857.421
08/25/2014  01:07:00     -447.599       26.030      -16.165      227.415      153.675       98.259    51717.775    23615.980     9654.747       14.312        4.249      448.355      104.454        0.054      344.447       21.269      857.422
08/25/2014  01:08:00     -294.680     -115.780      -12.493      152.376      125.848       62.317    23218.323    15837.751     3883.430        7.166        2.147      316.609       70.186        0.049      344.389       21.169      857.431
08/25/2014  01:09:00     -285.949     -125.516       -3.472      165.739      133.665       77.579    27469.252    17866.203     6018.444        7.443        2.568      312.284       71.402        0.052      344.363       21.125      857.444
08/25/2014  01:10:00     -382.160     -135.069       -9.793      169.409      154.862       65.209    28699.322    23982.222     4252.226       11.065        2.847      405.327       61.140        0.023      344.387       21.166      857.456
08/25/2014  01:11:00     -259.521     -125.645      -14.340      131.896      100.694       66.513    17396.537    10139.281     4424.032        5.765        1.598      288.336       66.031        0.052      344.356       21.114      857.455
08/25/2014  01:12:00     -265.929      -78.355       -3.419      160.749       97.550       63.581    25840.250     9516.021     4042.489        5.813        1.970      277.232       73.103        0.070      344.329       21.068      857.462
08/25/2014  01:13:00     -311.257      -97.319       -7.498      161.754      113.143       65.427    26164.251    12801.450     4280.673        7.482        2.162      326.116       52.728        0.026      344.319       21.052      857.462
08/25/2014  01:14:00     -349.163     -154.559      -16.731      182.433      102.616       67.600    33281.842    10530.025     4569.710        9.722        2.419      381.842       55.831        0.021      344.331       21.070      857.467
08/25/2014  01:15:00     -194.260      -53.380       14.739      152.534      104.811       65.019    23266.505    10985.250     4227.463        3.963        1.924      201.461       74.587        0.137      344.276       20.977      857.471
08/25/2014  01:16:00     -320.774     -178.013      -17.999      154.790      131.614       62.468    23959.908    17322.139     3902.266        9.004        2.259      366.857       78.013        0.045      344.338       21.082      857.445
08/25/2014  01:17:00     -259.064     -104.134       -3.063      202.733      106.032       82.206    41100.752    11242.721     6757.774        6.852        2.955      279.210       97.494        0.122      344.297       21.013      857.431
08/25/2014  01:18:00     -208.717      -38.532       10.318      143.255      103.621       62.865    20521.975    10737.371     3951.967        4.018        1.761      212.244       73.071        0.119      344.227       20.893      857.430
08/25/2014  01:19:00     -223.143     -191.092      -22.676      114.983       95.156       54.457    13221.109     9054.624     2965.575        5.603        1.262      293.784       57.326        0.038      344.296       21.009      857.417
08/25/2014  01:20:00     -193.527     -102.497       -1.894      124.900       82.637       57.103    15599.924     6828.892     3260.723        3.682        1.284      218.994       60.634        0.077      344.210       20.866      857.415
08/25/2014  01:21:00     -314.514       -4.372      -11.904      107.618      125.554       57.381    11581.531    15763.800     3292.599        6.485        1.532      314.544       55.897        0.032      344.234       20.905      857.431
08/25/2014  01:22:00     -225.446      -65.288      -18.432      118.296      121.856       53.676    13994.055    14848.861     2881.122        4.357        1.586      234.709       41.906        0.032      344.241       20.915      857.412
08/25/2014  01:23:00     -218.842      -60.492      -10.553      146.956       80.527       52.249    21596.197     6484.661     2729.913        4.123        1.541      227.049       64.083        0.080      344.248       20.930      857.400
08/25/2014  01:24:00     -304.751     -105.727      -13.078      168.347      110.361       71.331    28340.559    12179.551     5088.051        7.491        2.280      322.570       81.455        0.064      344.222       20.884      857.411
08/25/2014  01:25:00      -79.832        2.415       22.393       86.723       58.612       45.811     7520.805     3435.316     2098.614        0.996        0.653       79.869       45.196        0.320      344.147       20.759      857.421
08/25/2014  01:26:00     -289.979      -27.743       -4.605       99.959       86.619       54.925     9991.854     7502.912     3016.707        5.269        1.026      291.303       53.672        0.034      344.178       20.809      857.412
08/25/2014  01:27:00     -267.924       -6.022      -19.652       97.801       92.937       48.977     9564.997     8637.359     2398.769        4.640        1.030      267.991       42.416        0.025      344.168       20.791      857.402
08/25/2014  01:28:00     -215.488      -22.912       -3.121      113.666       92.913       48.599    12919.908     8632.809     2361.817        3.544        1.196      216.702       40.183        0.034      344.132       20.731      857.386
08/25/2014  01:29:00     -292.854      -49.312       -9.216      108.333       88.359       53.565    11735.954     7807.397     2869.204        5.534        1.121      296.977       50.005        0.028      344.165       20.786      857.376
08/25/2014  01:30:00     -357.179      -90.584      -29.708      162.511       96.163       60.365    26409.813     9247.353     3643.878        8.798        1.965      368.486       66.863        0.033      344.172       20.799      857.379
08/25/2014  01:31:00     -279.319      -26.626       -2.366      159.032      106.952       59.949    25291.272    11438.625     3593.900        5.952        2.016      280.585       61.055        0.047      344.121       20.713      857.373
08/25/2014  01:32:00     -217.008      -72.629       -9.863      141.033      111.666       64.454    19890.289    12469.403     4154.255        4.448        1.826      228.839       63.848        0.078      344.098       20.673      857.363
08/25/2014  01:33:00     -252.856      -70.802        0.657      120.929      103.375       55.541    14623.777    10686.420     3084.856        4.867        1.420      262.582       54.855        0.044      344.103       20.681      857.360
08/25/2014  01:34:00     -340.072      -52.989      -24.176      105.696      116.273       48.746    11171.559    13519.372     2376.185        7.305        1.353      344.176       29.432        0.007      344.097       20.670      857.370
08/25/2014  01:35:00     -312.279      -31.365      -12.404      126.030      114.086       60.321    15883.679    13015.523     3638.640        6.559        1.627      313.850       56.924        0.033      344.106       20.687      857.383
08/25/2014  01:36:00     -249.495      -50.482       10.076      145.440      116.290       58.321    21152.656    13523.393     3401.326        5.148        1.904      254.551       63.045        0.061      344.070       20.627      857.375
08/25/2014  01:37:00     -348.535      -52.763      -15.219      163.971      100.425       69.236    26886.649    10085.139     4793.667        8.312        2.088      352.506       86.241        0.060      344.116       20.704      857.360
08/25/2014  01:38:00     -444.380     -102.782      -21.734      157.075      101.674       72.668    24672.414    10337.641     5280.695       12.439        2.015      456.112       75.814        0.028      344.141       20.748      857.354
08/25/2014  01:39:00     -315.769      -27.298      -11.313      164.843      111.211       58.188    27173.076    12367.892     3385.843        7.175        2.146      316.947       74.185        0.055      344.095       20.667      857.365
08/25/2014  01:40:00     -359.058      -71.401      -11.990      169.917      122.234       68.402    28871.791    14941.095     4678.863        9.132        2.425      366.089       89.184        0.059      344.085       20.652      857.373
08/25/2014  01:41:00     -297.982      -44.985      -16.918      194.407       86.968       56.330    37794.050     7563.428     3173.082        6.981        2.427      301.358       72.619        0.058      344.041       20.577      857.377
08/25/2014  01:42:00     -290.193      -71.835      -13.679      118.009       84.445       48.404    13926.111     7130.916     2342.948        5.647        1.170      298.951       54.716        0.033      344.074       20.630      857.393
08/25/2014  01:43:00     -244.059       -9.880      -12.195      114.748       92.397       57.255    13167.008     8537.218     3278.166        4.239        1.249      244.259       55.562        0.052      344.048       20.586      857.407
08/25/2014  01:44:00     -226.534        1.599      -12.060       87.481       77.460       43.897     7652.992     6000.049     1926.922        3.352        0.779      226.539       44.776        0.039      344.021       20.540      857.412
08/25/2014  01:45:00     -277.260      -74.361      -14.178      120.109       90.482       56.027    14426.271     8187.074     3139.068        5.417        1.288      287.058       55.026        0.037      344.015       20.531      857.421
08/25/2014  01:46:00     -276.289     -141.426      -13.260      130.167      126.025       58.437    16943.520    15882.260     3414.915        6.637        1.812      310.382       49.140        0.025      344.119       20.708      857.417
08/25/2014  01:47:00     -248.643      -49.813        2.194      127.245      114.878       61.019    16191.351    13196.852     3723.313        4.870        1.656      253.584       62.744        0.061      344.061       20.611      857.423
08/25/2014  01:48:00     -253.654      -26.936        1.131      129.109      106.382       60.419    16669.064    11317.162     3650.400        4.835        1.582      255.080       66.801        0.069      344.071       20.626      857.427
08/25/2014  01:49:00     -264.872     -105.547        7.631      127.225      101.475       57.085    16186.242    10297.140     3258.728        5.554        1.487      285.127       64.831        0.052      344.045       20.581      857.412
08/25/2014  01:50:00     -344.734      -89.127      -12.331      148.322      125.098       55.562    21999.461    15649.516     3087.098        8.383        2.037      356.069       57.488        0.026      344.051       20.591      857.441
08/25/2014  01:51:00     -282.934      -27.468      -27.962      123.109      128.875       61.270    15155.808    16608.694     3753.966        5.855        1.776      284.264       61.957        0.048      344.043       20.579      857.434
08/25/2014  01:52:00     -246.920      -82.361      -11.434       99.857      131.209       60.203     9971.323    17215.909     3624.449        4.934        1.541      260.294       53.166        0.042      344.045       20.582      857.431
08/25/2014  01:53:00     -266.642      -69.733       -3.855      105.937       83.878       58.435    11222.615     7035.574     3414.705        4.882        1.084      275.610       58.184        0.045      344.039       20.571      857.433
08/25/2014  01:54:00     -284.280     -134.282       -4.362      144.622      158.022       62.724    20915.647    24970.813     3934.267        7.433        2.491      314.399       56.666        0.032      344.102       20.679      857.440
08/25/2014  01:55:00     -245.317      -74.830        6.692      164.230      111.325       65.963    26971.355    12393.309     4351.067        5.476        2.186      256.476       69.292        0.073      344.107       20.689      857.450
08/25/2014  01:56:00     -377.630        4.792      -32.970      129.428      129.693       58.552    16751.675    16820.366     3428.374        9.035        1.850      377.660       50.250        0.018      344.129       20.726      857.441
08/25/2014  01:57:00     -231.991     -113.065       -9.950      137.942      103.489       59.238    19027.869    10709.985     3509.119        4.997        1.662      258.076       66.931        0.067      344.102       20.680      857.436
08/25/2014  01:58:00     -253.226      -84.565       -6.132      167.310      121.287       61.164    27992.693    14710.625     3741.078        5.887        2.322      266.974       61.172        0.053      344.079       20.642      857.438
08/25/2014  01:59:00     -254.773       -1.739      -16.402      106.575       98.440       56.262    11358.319     9690.489     3165.447        4.469        1.211      254.779       47.768        0.035      344.058       20.605      857.445
08/25/2014  02:00:00     -326.160      -23.112      -17.378      112.048       95.179       55.248    12554.811     9059.133     3052.297        6.594        1.233      326.977       49.937        0.023      344.059       20.606      857.423
08/25/2014  02:01:00     -139.500        0.723       17.920      136.100       97.222       62.806    18523.164     9452.190     3944.588        2.584        1.596      139.502       53.488        0.147      344.008       20.522      857.420
08/25/2014  02:02:00     -246.711     -158.465       -6.980      110.077      100.903       63.609    12116.939    10181.467     4046.065        5.618        1.317      293.219       63.943        0.048      344.044       20.581      857.393
08/25/2014  02:03:00     -301.059     -133.452       -1.501      155.862      132.053       66.067    24292.997    17437.890     4364.898        7.726        2.305      329.311       68.267        0.043      344.029       20.557      857.383
08/25/2014  02:04:00     -334.766     -168.631      -20.914      131.044      100.869       66.768    17172.479    10174.572     4458.005        8.637        1.590      374.840       53.422        0.020      344.042       20.576      857.373
08/25/2014  02:05:00     -397.385     -118.784      -16.202      149.025      152.270       71.228    22208.388    23186.123     5073.496       11.137        2.523      414.758       61.539        0.022      344.014       20.530      857.387
08/25/2014  02:06:00     -277.475     -138.862      -19.840      160.439      106.675       70.389    25740.790    11379.593     4954.549        6.936        2.104      310.282       73.322        0.056      344.007       20.518      857.407
08/25/2014  02:07:00     -198.918      -44.006      -12.393      110.402      117.468       54.710    12188.499    13798.785     2993.146        3.531        1.449      203.728       51.720        0.064      343.956       20.430      857.400
08/25/2014  02:08:00     -223.717      -68.292        0.513      127.761       82.065       56.631    16322.756     6734.732     3207.102        4.048        1.313      233.908       52.941        0.051      343.901       20.337      857.388
08/25/2014  02:09:00     -255.658      -75.598       -2.718      136.925      100.011       61.312    18748.504    10002.129     3759.140        5.179        1.625      266.601       63.660        0.057      343.894       20.324      857.387
08/25/2014  02:10:00     -281.458      -90.881      -15.484      115.272       80.558       52.926    13287.712     6489.668     2801.178        5.514        1.129      295.766       59.257        0.040      343.872       20.286      857.379
08/25/2014  02:11:00     -258.598      -15.637       -6.788      101.247       86.832       51.181    10250.859     7539.860     2619.545        4.378        1.021      259.070       54.250        0.044      343.849       20.248      857.384
08/25/2014  02:12:00     -174.000      -23.918        6.297      118.219       77.184       60.837    13975.808     5957.339     3701.135        2.726        1.182      175.637       62.249        0.126      343.796       20.158      857.380
08/25/2014  02:13:00      -70.102       10.404       53.470      124.349       72.594       61.343    15462.771     5269.906     3762.914        1.618        1.225       70.870       69.070        0.950      343.823       20.204      857.362
08/25/2014  02:14:00     -286.293      -88.970       -0.223      169.205      148.231       79.132    28630.221    21972.504     6261.860        7.336        2.843      299.799       93.883        0.098      343.905       20.342      857.376
08/25/2014  02:15:00     -303.529      -80.674       -5.939      113.909      112.890       59.540    12975.190    12744.187     3545.032        6.396        1.463      314.067       53.610        0.029      343.933       20.390      857.382
08/25/2014  02:16:00     -229.364      -28.355        5.861      175.460      114.952       73.909    30786.105    13213.950     5462.484        5.144        2.473      231.110       98.120        0.180      343.911       20.354      857.397
08/25/2014  02:17:00     -188.707       -5.683       -2.879      134.088       99.062       56.138    17979.674     9813.354     3151.470        3.329        1.547      188.793       49.226        0.068      343.916       20.364      857.412
08/25/2014  02:18:00     -297.873      -61.303      -28.808      105.680       85.709       47.724    11168.307     7346.059     2277.584        5.705        1.040      304.115       51.087        0.028      343.944       20.408      857.413
08/25/2014  02:19:00     -180.008      -65.058        1.694      144.136       83.275       59.367    20775.128     6934.681     3524.477        3.393        1.562      191.404       65.148        0.116      343.885       20.310      857.403
08/25/2014  02:20:00     -324.987       13.459      -10.421      194.196       84.327       64.931    37712.162     7111.043     4216.034        7.746        2.452      325.266       91.818        0.080      343.937       20.399      857.405
08/25/2014  02:21:00     -519.181     -126.632      -28.488      176.690      161.657       82.455    31219.309    26133.101     6798.798       17.526        3.208      534.401       77.716        0.021      344.091       20.660      857.371
08/25/2014  02:22:00     -487.948      -67.330      -35.176      163.344      100.807       68.707    26681.353    10161.954     4720.657       14.271        2.078      492.572       67.888        0.019      344.094       20.666      857.361
08/25/2014  02:23:00     -154.371      -58.164       16.810      134.906       98.908       59.383    18199.539     9782.727     3526.352        2.950        1.575      164.965       61.547        0.139      343.997       20.501      857.366
08/25/2014  02:24:00     -234.980     -106.768       -3.817       95.300       69.987       49.435     9082.173     4898.182     2443.862        4.152        0.821      258.099       52.025        0.041      344.012       20.525      857.368
08/25/2014  02:25:00     -284.300      -51.776      -13.440      127.003      101.742       66.116    16129.760    10351.374     4371.294        5.726        1.543      288.976       68.200        0.056      344.022       20.544      857.358
08/25/2014  02:26:00     -210.155     -162.539       12.609      146.539      149.388       86.226    21473.644    22316.745     7434.902        6.097        2.561      265.677       89.146        0.113      344.016       20.534      857.337
08/25/2014  02:27:00     -346.272      -91.285      -16.205      153.280      111.647       71.203    23494.791    12465.023     5069.852        8.476        2.051      358.102       76.869        0.046      343.983       20.475      857.348
08/25/2014  02:28:00     -339.885     -117.064      -13.852      180.690      116.871       84.939    32649.048    13658.880     7214.700        9.146        2.676      359.479       94.663        0.069      344.026       20.550      857.341
08/25/2014  02:29:00     -366.333      -60.732      -25.594      152.205      122.843       72.351    23166.254    15090.356     5234.687        9.101        2.175      371.333       81.184        0.048      344.068       20.620      857.357
08/25/2014  02:30:00     -227.938     -105.877      -11.523      153.135       97.246       67.930    23450.238     9456.748     4614.430        5.040        1.876      251.328       79.002        0.099      343.997       20.501      857.361
08/25/2014  02:31:00     -173.617      -52.699        7.473       99.095      117.300       65.241     9819.776    13759.337     4256.345        3.040        1.392      181.439       66.568        0.135      343.972       20.458      857.351
08/25/2014  02:32:00     -173.018      -91.515       -1.122      109.255      123.374       52.950    11936.706    15221.059     2803.740        3.413        1.498      195.730       52.962        0.073      343.948       20.417      857.329
08/25/2014  02:33:00     -254.328      -82.656      -16.147      174.570       85.925       53.648    30474.758     7383.025     2878.117        5.625        2.037      267.423       54.813        0.042      343.948       20.417      857.336
08/25/2014  02:34:00     -235.532      -78.315       -6.465      157.620       92.373       56.650    24843.932     8532.693     3209.173        4.911        1.829      248.210       68.160        0.075      343.905       20.342      857.319
08/25/2014  02:35:00     -196.952      -23.885        3.284      162.172       91.852       63.568    26299.910     8436.707     4040.844        3.907        1.939      198.395       74.115        0.140      343.894       20.325      857.301
08/25/2014  02:36:00     -180.737     -104.029       -3.365      103.240       78.267       49.797    10658.470     6125.722     2479.756        3.138        0.963      208.537       45.735        0.048      343.901       20.337      857.306
08/25/2014  02:37:00     -181.668     -102.055       -0.851       97.971       94.694       43.303     9598.364     8966.889     1875.115        3.193        1.022      208.371       45.725        0.048      343.838       20.230      857.315
08/25/2014  02:38:00     -144.892      -84.369        9.507      108.770       73.579       45.807    11830.977     5413.814     2098.237        2.377        0.967      167.665       43.757        0.068      343.769       20.114      857.321
08/25/2014  02:39:00     -225.627     -107.735       -7.621      115.513       82.403       50.755    13343.324     6790.188     2576.120        4.264        1.135      250.029       47.693        0.036      343.821       20.198      857.330
08/25/2014  02:40:00     -273.152     -109.983       -6.518      124.961       76.659       54.940    15615.279     5876.529     3018.368        5.563        1.226      294.463       63.826        0.047      343.809       20.179      857.349
08/25/2014  02:41:00     -255.700      -54.945       -9.005      129.394       99.749       51.151    16742.731     9949.876     2616.453        4.889        1.465      261.537       66.047        0.064      343.823       20.203      857.359
08/25/2014  02:42:00     -173.542     -103.394       -6.007      133.001      101.664       50.502    17689.149    10335.608     2550.459        3.570        1.529      202.008       45.719        0.051      343.796       20.158      857.360
08/25/2014  02:43:00     -193.816      -61.792      -10.046      109.377       85.397       44.773    11963.264     7292.661     2004.593        3.137        1.063      203.428       53.859        0.070      343.762       20.099      857.372
08/25/2014  02:44:00     -178.104      -17.977        1.920       91.150       66.186       43.444     8308.343     4380.553     1887.392        2.331        0.729      179.009       39.426        0.049      343.764       20.104      857.361
08/25/2014  02:45:00     -209.060      -24.408       -4.916      134.227       92.579       53.819    18016.913     8570.931     2896.473        3.690        1.474      210.480       58.938        0.078      343.746       20.073      857.359
08/25/2014  02:46:00     -230.592      -37.086       -3.980       77.124       93.597       49.327     5948.149     8760.307     2433.132        3.585        0.857      233.555       45.264        0.038      343.780       20.129      857.343
08/25/2014  02:47:00     -293.791      -98.998      -14.932      110.955      132.394       57.328    12310.975    17528.237     3286.484        6.472        1.656      310.022       53.429        0.030      343.789       20.145      857.324
08/25/2014  02:48:00     -333.634     -155.133      -22.164      169.384      129.263       75.775    28690.874    16709.031     5741.785        9.350        2.557      367.937       58.856        0.026      343.813       20.187      857.301
08/25/2014  02:49:00     -315.756     -139.584      -11.081      121.160      125.103       68.021    14679.645    15650.648     4626.859        7.713        1.748      345.233       66.665        0.037      343.795       20.155      857.284
08/25/2014  02:50:00     -180.688     -128.970       15.946      170.463      147.188       74.293    29057.555    21664.310     5519.422        5.288        2.812      221.995       88.118        0.158      343.771       20.115      857.261
08/25/2014  02:51:00     -252.372     -160.419       -2.783      112.807      106.687       62.860    12725.356    11382.046     3951.352        5.874        1.403      299.042       61.487        0.042      343.769       20.111      857.250
08/25/2014  02:52:00     -271.970     -118.472      -12.627      118.327       83.786       56.118    14001.244     7020.082     3149.220        5.616        1.209      296.654       57.674        0.038      343.736       20.056      857.265
08/25/2014  02:53:00     -264.400     -116.767      -10.391      148.946      104.345       61.960    22184.960    10887.888     3839.096        6.027        1.846      289.036       63.981        0.049      343.737       20.055      857.262
08/25/2014  02:54:00     -164.798      -59.853       14.783      134.280      104.686       61.989    18031.007    10959.092     3842.640        3.189        1.642      175.330       67.767        0.149      343.680       19.959      857.261
08/25/2014  02:55:00     -245.145     -173.227       -1.984      150.804      102.192       59.574    22741.971    10443.266     3549.036        6.341        1.837      300.173       66.552        0.049      343.721       20.029      857.260
08/25/2014  02:56:00     -232.587     -110.377        5.135      168.848      131.898       82.172    28509.763    17396.959     6752.227        5.947        2.633      257.448       92.816        0.130      343.692       19.980      857.270
08/25/2014  02:57:00     -270.132     -112.572       -4.444      130.677      105.450       62.475    17076.482    11119.714     3903.120        5.888        1.605      292.650       66.365        0.051      343.728       20.041      857.272
08/25/2014  02:58:00     -231.578      -76.310        1.261      164.645       98.027       63.757    27107.851     9609.346     4064.897        5.011        2.039      243.827       80.408        0.109      343.713       20.017      857.276
08/25/2014  02:59:00     -183.739      -91.032       -7.553      122.492      105.687       69.173    15004.339    11169.733     4784.972        3.653        1.548      205.053       70.938        0.120      343.697       19.986      857.264
08/25/2014  03:00:00     -220.795      -96.179       -2.036      154.659      126.562       62.673    23919.345    16017.888     3927.937        5.093        2.193      240.834       64.835        0.072      343.707       20.007      857.251
08/25/2014  03:01:00     -187.850     -164.067       -1.519      112.710      106.832       68.413    12703.453    11413.151     4680.323        4.550        1.440      249.411       71.594        0.082      343.697       19.988      857.242
08/25/2014  03:02:00     -220.449     -105.386       -3.085      156.498      143.470       65.351    24491.780    20583.765     4270.779        5.452        2.467      244.344       67.229        0.076      343.706       20.003      857.223
08/25/2014  03:03:00     -346.683      -88.161       -8.420      240.977      128.274       69.876    58069.786    16454.345     4882.601       10.370        3.970      357.717       99.751        0.078      343.712       20.013      857.212
08/25/2014  03:04:00     -275.269     -119.061       -7.052      150.963      108.558       67.171    22789.893    11784.753     4511.984        6.453        1.954      299.914       79.573        0.070      343.695       19.983      857.212
08/25/2014  03:05:00     -327.354      -56.705      -11.585      175.430      117.285       72.520    30775.537    13755.684     5259.183        8.014        2.490      332.229       86.648        0.068      343.704       20.001      857.192
08/25/2014  03:06:00     -249.121      -38.091        1.617      140.424      107.469       64.386    19719.003    11549.690     4145.524        4.946        1.771      252.016       69.112        0.075      343.672       19.946      857.205
08/25/2014  03:07:00     -358.532      -46.643      -21.174      110.760      118.967       67.961    12267.777    14153.238     4618.658        8.110        1.552      361.553       62.330        0.030      343.721       20.030      857.197
08/25/2014  03:08:00     -316.682     -154.832       -6.904      163.074      110.064       74.737    26593.237    12114.079     5585.580        8.429        2.215      352.506       76.685        0.047      343.709       20.007      857.175
08/25/2014  03:09:00     -312.658      -46.738       -5.990      181.027      157.702       62.523    32770.616    24869.776     3909.075        8.075        3.077      316.133       59.261        0.035      343.728       20.041      857.165
08/25/2014  03:10:00     -253.797     -112.698        1.860      108.654       84.164       56.753    11805.721     7083.520     3220.955        4.961        1.106      277.694       59.926        0.047      343.674       19.948      857.182
08/25/2014  03:11:00     -204.435     -170.478        5.444      147.058      115.445       71.043    21626.122    13327.637     5047.074        5.544        2.000      266.189       72.555        0.074      343.673       19.947      857.176
08/25/2014  03:12:00     -227.445     -148.480       18.108      131.927      124.218       69.151    17404.702    15430.114     4781.809        5.585        1.881      271.620       75.121        0.076      343.676       19.952      857.176
08/25/2014  03:13:00     -238.290      -80.434        4.639      150.044       92.031       70.061    22513.288     8469.780     4908.512        4.958        1.795      251.499       70.108        0.078      343.666       19.934      857.179
08/25/2014  03:14:00     -236.027     -198.003        2.256      140.605      109.328       79.217    19769.737    11952.590     6275.354        6.645        1.900      308.081       82.392        0.072      343.663       19.929      857.180
08/25/2014  03:15:00     -283.614     -191.282       -5.774      147.986      107.776       69.639    21899.801    11615.615     4849.570        7.770        1.918      342.090       73.109        0.046      343.665       19.934      857.192
08/25/2014  03:16:00     -194.867     -139.583       12.855      164.133      117.363       73.491    26939.724    13774.030     5400.861        5.186        2.306      239.701       78.287        0.107      343.645       19.900      857.196
08/25/2014  03:17:00     -293.130     -124.580        6.712      179.289       89.497       71.603    32144.469     8009.788     5127.058        7.338        2.264      318.505       79.508        0.062      343.658       19.920      857.201
08/25/2014  03:18:00     -395.176     -176.313      -10.560      150.057      121.693       71.171    22517.180    14809.219     5065.376       11.487        2.120      432.725       79.790        0.034      343.773       20.118      857.197
08/25/2014  03:19:00     -212.442     -135.833        6.049      179.433      121.083       67.251    32196.323    14661.185     4522.717        5.749        2.569      252.156       76.950        0.093      343.720       20.028      857.191
08/25/2014  03:20:00     -310.068     -146.662        5.131      146.491      118.398       63.734    21459.694    14018.147     4062.006        7.860        1.977      343.004       73.224        0.046      343.721       20.030      857.205
08/25/2014  03:21:00     -335.667     -150.108      -11.060      136.652       88.910       66.438    18673.756     7905.031     4413.951        8.315        1.550      367.702       63.936        0.030      343.731       20.044      857.208
08/25/2014  03:22:00     -255.406     -138.263       15.185      152.517      102.386       73.661    23261.578    10482.910     5425.875        6.187        1.959      290.429       70.613        0.059      343.735       20.052      857.213
08/25/2014  03:23:00     -278.511     -184.426       -3.221      157.407      107.431       78.345    24777.001    11541.351     6137.962        7.702        2.123      334.038       84.787        0.064      343.754       20.085      857.208
08/25/2014  03:24:00     -211.505     -218.433        4.993      134.195      130.900       65.739    18008.332    17134.792     4321.679        6.596        1.973      304.051       64.586        0.045      343.776       20.123      857.190
08/25/2014  03:25:00     -372.451     -181.683       -3.406      135.849      110.390       62.321    18455.080    12186.008     3883.907       10.313        1.726      414.402       68.816        0.028      343.731       20.046      857.191
08/25/2014  03:26:00     -211.966     -154.886        3.475      138.789       97.274       60.356    19262.410     9462.148     3642.858        5.064        1.618      262.525       66.283        0.064      343.687       19.970      857.191
08/25/2014  03:27:00     -263.568     -222.819        4.325      188.756      125.208       81.056    35628.810    15677.009     6569.995        8.849        2.894      345.133       93.476        0.073      343.654       19.913      857.193
08/25/2014  03:28:00     -363.639     -182.511       -6.456      139.532      118.224       61.099    19469.175    13977.022     3733.132       10.137        1.859      406.870       50.738        0.016      343.680       19.958      857.200
08/25/2014  03:29:00     -228.225     -171.351        4.905      169.530      153.464       81.362    28740.277    23551.306     6619.730        7.018        2.946      285.390       90.413        0.100      343.648       19.903      857.191
08/25/2014  03:30:00     -234.463     -133.635       -1.981       93.513       67.200       46.885     8744.704     4515.878     2198.245        4.414        0.773      269.872       50.579        0.035      343.605       19.829      857.188
08/25/2014  03:31:00     -285.150      -83.311       -9.226      169.689      141.840       68.319    28794.300    20118.477     4667.455        7.095        2.679      297.071       75.243        0.064      343.601       19.823      857.184
08/25/2014  03:32:00     -311.271     -143.986      -24.938      149.914      112.687       71.697    22474.180    12698.332     5140.411        7.927        2.016      342.960       81.059        0.056      343.603       19.828      857.183
08/25/2014  03:33:00     -280.818     -154.142       -0.632      145.174      105.079       66.412    21075.582    11041.529     4410.582        6.957        1.826      320.341       72.575        0.051      343.572       19.775      857.177
08/25/2014  03:34:00     -122.842     -105.677       11.533      140.043      120.737       79.643    19612.143    14577.464     6343.000        3.345        2.027      162.043       82.515        0.259      343.552       19.742      857.168
08/25/2014  03:35:00     -302.358      -47.788      -11.791      120.764       91.492       65.074    14584.048     8370.852     4234.624        6.051        1.359      306.111       62.577        0.042      343.529       19.701      857.173
08/25/2014  03:36:00     -350.876      -93.510      -22.920       98.724       85.715       59.237     9746.441     7347.115     3509.023        7.649        1.030      363.123       47.705        0.017      343.568       19.768      857.167
08/25/2014  03:37:00     -255.166      -68.357      -10.796       96.975       91.017       43.365     9404.064     8284.142     1880.548        4.473        0.978      264.164       37.213        0.020      343.512       19.671      857.184
08/25/2014  03:38:00     -170.296      -99.803      -18.409       95.442      102.463       53.432     9109.141    10498.593     2855.007        3.088        1.123      197.387       52.114        0.070      343.493       19.639      857.190
08/25/2014  03:39:00     -220.093     -132.947      -11.002       76.311       75.354       59.909     5823.411     5678.230     3589.050        4.066        0.755      257.129       49.638        0.037      343.496       19.644      857.177
08/25/2014  03:40:00     -181.706     -145.107       -5.927      128.111      105.735       60.246    16412.413    11179.968     3629.630        4.266        1.561      232.537       65.947        0.080      343.482       19.620      857.167
08/25/2014  03:41:00     -154.762     -185.090       -5.521      114.590       76.571       57.266    13130.800     5863.106     3279.376        4.025        1.114      241.267       59.672        0.061      343.500       19.655      857.148
08/25/2014  03:42:00     -198.904      -49.437        6.547      117.336       76.659       51.288    13767.817     5876.581     2630.429        3.216        1.114      204.956       57.726        0.079      343.454       19.575      857.125
08/25/2014  03:43:00     -162.324      -84.935       17.962      101.601       72.111       49.757    10322.760     5199.985     2475.805        2.594        0.900      183.202       45.003        0.060      343.419       19.515      857.126
08/25/2014  03:44:00     -298.791     -193.728       -6.915      135.427      127.831       64.910    18340.387    16340.671     4213.299        8.287        1.945      356.100       67.685        0.036      343.606       19.833      857.115
08/25/2014  03:45:00     -267.935     -167.467      -12.193      126.621      113.934       62.590    16032.814    12980.851     3917.534        6.645        1.647      315.965       71.579        0.051      343.605       19.831      857.110
08/25/2014  03:46:00     -266.063     -209.346        0.868      128.085      101.339       59.996    16405.759    10269.600     3599.497        7.244        1.514      338.548       57.247        0.029      343.613       19.843      857.101
08/25/2014  03:47:00     -189.854     -160.470       -3.105      136.551      123.484       66.316    18646.245    15248.358     4397.791        5.004        1.915      248.586       56.817        0.052      343.559       19.753      857.088
08/25/2014  03:48:00     -151.024      -92.623       15.701      117.330       78.016       60.064    13766.223     6086.555     3607.696        2.754        1.173      177.165       60.914        0.118      343.555       19.747      857.091
08/25/2014  03:49:00     -108.245      -79.163       12.199      107.945       87.529       49.579    11652.046     7661.296     2458.121        1.995        1.089      134.103       45.931        0.117      343.497       19.648      857.093
08/25/2014  03:50:00     -170.922      -76.271        9.722       91.050       54.794       37.116     8290.143     3002.401     1377.597        2.390        0.634      187.167       28.742        0.024      343.474       19.608      857.092
08/25/2014  03:51:00     -205.530      -71.041        3.642      151.170       87.763       57.472    22852.319     7702.397     3303.074        4.057        1.693      217.461       58.464        0.072      343.494       19.641      857.085
08/25/2014  03:52:00     -212.425     -108.457        8.188      146.320       99.825       70.996    21409.478     9965.046     5040.393        4.668        1.821      238.510       61.619        0.067      343.556       19.748      857.076
08/25/2014  03:53:00     -292.587     -159.658       17.636      121.661      108.938       65.734    14801.392    11867.558     4321.005        7.119        1.549      333.313       58.708        0.031      343.557       19.748      857.063
08/25/2014  03:54:00     -195.726     -162.638      -16.355      106.066       87.431       55.958    11249.958     7644.097     3131.321        4.352        1.101      254.480       50.005        0.039      343.546       19.730      857.061
08/25/2014  03:55:00     -310.262     -183.429       -6.778      134.088      111.525       66.405    17979.586    12437.794     4409.617        8.238        1.741      360.429       69.789        0.037      343.509       19.668      857.052
08/25/2014  03:56:00     -160.070     -138.056       15.578      140.007      111.488       55.006    19601.827    12429.492     3025.698        3.998        1.753      211.380       67.330        0.101      343.482       19.623      857.051
08/25/2014  03:57:00     -262.122     -211.685      -12.918      112.634      105.819       54.400    12686.377    11197.612     2959.337        7.026        1.342      336.925       57.403        0.029      343.500       19.651      857.067
08/25/2014  03:58:00     -127.800     -193.711        4.904      133.219       96.780       58.297    17747.181     9366.420     3398.549        4.219        1.526      232.071       69.259        0.089      343.481       19.619      857.073
08/25/2014  03:59:00     -154.644     -214.147        3.269      123.548      150.409       55.542    15264.153    22622.719     3084.942        5.537        2.049      264.148       44.629        0.029      343.503       19.657      857.056
08/25/2014  04:00:00     -131.643     -277.661        4.039      160.941      141.472       64.289    25901.947    20014.288     4133.094        7.224        2.502      307.287       60.879        0.039      343.562       19.759      857.053
08/25/2014  04:01:00     -113.709     -201.295       32.185      116.775      164.548       61.787    13636.492    27076.160     3817.586        4.950        2.227      231.191       57.956        0.063      343.506       19.664      857.055
08/25/2014  04:02:00     -175.909     -174.990        5.566      117.123      119.390       60.556    13717.850    14253.935     3666.984        4.661        1.582      248.124       54.245        0.048      343.467       19.596      857.058
08/25/2014  04:03:00      -72.625     -229.601       13.091       79.735       88.423       46.670     6357.639     7818.552     2178.090        3.726        0.818      240.814       36.864        0.023      343.474       19.608      857.058
08/25/2014  04:04:00      -98.310     -238.285        1.252      118.835       93.330       45.235    14121.668     8710.398     2046.230        4.566        1.244      257.769       53.278        0.043      343.459       19.583      857.057
08/25/2014  04:05:00     -133.138     -175.114        5.528       77.605       93.115       45.969     6022.597     8670.345     2113.119        3.261        0.840      219.979       35.610        0.026      343.409       19.497      857.078
08/25/2014  04:06:00      -78.641     -140.725       10.148       74.407       79.937       45.088     5536.434     6389.948     2032.933        2.002        0.698      161.208       38.095        0.056      343.395       19.475      857.070
08/25/2014  04:07:00     -109.022     -181.853       -3.099       98.884       93.511       50.892     9778.084     8744.230     2590.000        3.303        1.056      212.029       44.749        0.045      343.396       19.476      857.113
08/25/2014  04:08:00      -93.966     -186.984        3.905       90.102       77.269       56.534     8118.371     5970.523     3196.140        3.054        0.864      209.267       45.130        0.047      343.401       19.484      857.116
08/25/2014  04:09:00      -83.780     -140.495       -0.856       79.977       64.995       36.830     6396.310     4224.386     1356.439        1.937        0.599      163.578       27.329        0.028      343.415       19.507      857.085
08/25/2014  04:10:00      -67.055     -137.720        5.346       65.834       99.459       35.586     4334.079     9892.052     1266.353        1.949        0.775      153.177       46.828        0.093      343.409       19.497      857.061
08/25/2014  04:11:00     -114.095     -175.584      -18.416       66.202       67.353       35.658     4382.737     4536.433     1271.514        2.719        0.510      209.398       17.181        0.007      343.408       19.495      857.084
08/25/2014  04:12:00      -86.869     -151.838       -5.531       69.246       73.501       42.625     4795.072     5402.460     1816.926        2.132        0.601      174.931       32.115        0.034      343.389       19.464      857.114
08/25/2014  04:13:00     -154.413     -169.557      -18.317       79.386       86.149       34.626     6302.068     7421.603     1198.967        3.392        0.746      229.331       31.922        0.019      343.392       19.469      857.116
08/25/2014  04:14:00      -18.976      -55.996        4.569       46.634       73.332       28.401     2174.747     5377.571      806.615        0.594        0.418       59.124       23.926        0.164      343.309       19.332      857.122
08/25/2014  04:15:00       11.475       19.872      -14.962       40.877       36.923       22.842     1670.903     1363.329      521.740        0.215        0.178       22.948       15.666        0.466      343.313       19.335      857.123
08/25/2014  04:16:00       12.188       -3.546       20.486       40.861       38.703       29.190     1669.653     1497.942      852.071        0.230        0.201       12.693       27.370        4.650      343.287       19.293      857.101
08/25/2014  04:17:00      -50.511      -34.490       -4.488       50.102       36.682       21.123     2510.240     1345.572      446.202        0.403        0.215       61.163       20.782        0.115      343.260       19.248      857.130
08/25/2014  04:18:00     -123.241      -21.536        9.017       74.539       68.186       42.246     5556.037     4649.380     1784.709        1.386        0.600      125.108       31.206        0.062      343.311       19.332      857.139
08/25/2014  04:19:00      -25.480      -45.312        3.539       31.255       49.175       24.327      976.872     2418.227      591.809        0.335        0.199       51.984       18.022        0.120      343.327       19.360      857.162
08/25/2014  04:20:00       53.301     -104.804      -12.594       67.755       66.306       36.402     4590.806     4396.515     1325.102        1.215        0.516      117.579       36.473        0.096      343.393       19.473      857.140
08/25/2014  04:21:00      -33.277      -81.291       -8.139       39.867       37.240       29.009     1589.400     1386.809      841.498        0.580        0.191       87.838       19.939        0.052      343.389       19.466      857.141
08/25/2014  04:22:00      -55.274        0.639      -15.366       33.442       40.166       35.805     1118.366     1613.346     1282.024        0.365        0.201       55.278       23.967        0.188      343.325       19.356      857.152
08/25/2014  04:23:00        8.945       37.375       46.213       32.401       28.061       30.811     1049.828      787.411      949.334        0.320        0.139       38.431       26.269        0.467      343.225       19.187      857.130
08/25/2014  04:24:00        0.779       19.892       63.361       21.334       23.877       18.947      455.137      570.126      359.000        0.290        0.069       19.907       15.511        0.607      343.341       19.385      857.126
08/25/2014  04:25:00       46.029      -21.040       19.851       41.539       63.589       40.826     1725.486     4043.575     1666.757        0.519        0.372       50.610       40.855        0.652      343.387       19.463      857.130
08/25/2014  04:26:00       76.723       26.575       32.330       38.409       33.405       28.244     1475.273     1115.895      797.727        0.551        0.169       81.195       20.950        0.067      343.282       19.282      857.140
08/25/2014  04:27:00      -13.463      -79.225       -1.660       29.718       53.680       33.915      883.167     2881.557     1150.233        0.569        0.246       80.361       31.835        0.157      343.382       19.452      857.156
08/25/2014  04:28:00      -20.489      -59.371       -0.173       28.952       37.532       21.830      838.216     1408.622      476.537        0.333        0.136       62.807       15.737        0.063      343.394       19.475      857.186
08/25/2014  04:29:00      -11.708       13.045        9.790       16.764       14.771       14.270      281.016      218.190      203.628        0.055        0.035       17.528       12.438        0.504      343.204       19.152      857.202
08/25/2014  04:30:00        2.594       11.434        5.506       12.789       10.327       11.594      163.549      106.652      134.421        0.029        0.020       11.725        8.917        0.578      343.118       19.005      857.202
08/25/2014  04:31:00      -15.436       28.679        3.790       21.616       21.196       10.848      467.273      449.253      117.675        0.105        0.052       32.569       12.279        0.142      343.091       18.958      857.201
08/25/2014  04:32:00       18.557       64.806       -6.350       18.885       17.290       14.089      356.662      298.950      198.505        0.272        0.043       67.411       11.930        0.031      343.120       19.008      857.223
08/25/2014  04:33:00      -38.574       29.610       -8.982       25.433       24.513       10.261      646.837      600.883      105.298        0.190        0.068       48.628        9.164        0.036      343.042       18.877      857.253
08/25/2014  04:34:00      -13.073       13.246        8.111       15.702       26.049       14.553      246.563      678.568      211.787        0.077        0.057       18.611       12.129        0.425      342.993       18.791      857.264
08/25/2014  04:35:00      -44.057      -35.759       -0.712       47.555       29.902       14.664     2261.443      894.140      215.041        0.329        0.169       56.743       12.315        0.047      343.133       19.029      857.264
08/25/2014  04:36:00      -37.803     -153.522      -14.435       51.367       52.145       30.177     2638.526     2719.137      910.629        1.574        0.313      158.108       17.936        0.013      343.459       19.585      857.250
08/25/2014  04:37:00     -102.113      -46.328       -8.781       41.808       55.853       23.578     1747.933     3119.555      555.901        0.904        0.271      112.131       14.130        0.016      343.569       19.773      857.246
08/25/2014  04:38:00      -47.838      -13.358        7.710       46.716       46.675       28.184     2182.408     2178.514      794.358        0.384        0.258       49.668       21.163        0.182      343.321       19.351      857.252
08/25/2014  04:39:00      -31.128        6.894       14.163       32.235       15.945       12.747     1039.118      254.253      162.478        0.134        0.073       31.882       11.348        0.127      343.295       19.305      857.253
08/25/2014  04:40:00       -3.999       -2.376        2.322        8.983       14.240        7.761       80.699      202.768       60.240        0.019        0.017        4.651        7.282        2.451      343.086       18.949      857.264
08/25/2014  04:41:00        8.445       24.513       35.179       20.750       27.870       21.551      430.581      776.741      464.442        0.179        0.084       25.927       18.800        0.526      343.060       18.907      857.251
08/25/2014  04:42:00      -16.272       -6.724       13.984       17.668       27.296       20.411      312.145      745.049      416.616        0.099        0.074       17.606       12.549        0.508      343.043       18.878      857.269
08/25/2014  04:43:00      -15.512       24.457        6.409       16.127       14.203        8.901      260.077      201.732       79.228        0.071        0.027       28.962        9.546        0.109      343.091       18.960      857.292
08/25/2014  04:44:00        8.259       19.143       13.615       12.966       23.669       14.939      168.117      560.228      223.175        0.079        0.048       20.848       14.747        0.500      342.960       18.734      857.303
08/25/2014  04:45:00      -22.863       51.622      -11.398       13.731       18.194        7.628      188.546      331.039       58.185        0.195        0.029       56.458        7.766        0.019      343.019       18.836      857.301
08/25/2014  04:46:00       -8.403       70.651      -12.342        7.462       10.437        6.146       55.680      108.937       37.774        0.271        0.010       71.149        4.359        0.004      343.040       18.872      857.299
08/25/2014  04:47:00        0.604       68.586      -11.389       10.668        9.852        6.490      113.800       97.068       42.123        0.254        0.013       68.589        3.775        0.003      343.090       18.957      857.306
08/25/2014  04:48:00       19.926       62.220       -6.223       15.175       14.054        8.895      230.280      197.521       79.122        0.241        0.025       65.333        9.293        0.020      343.133       19.029      857.305
08/25/2014  04:49:00       55.962       23.537       -2.079       11.658       12.939       11.007      135.909      167.430      121.153        0.206        0.021       60.710        7.758        0.016      343.079       18.939      857.311
08/25/2014  04:50:00       33.847       13.833       -1.111       15.393        9.995        8.384      236.952       99.890       70.285        0.087        0.020       36.565        4.291        0.014      343.158       19.073      857.326
08/25/2014  04:51:00       18.608        6.001        4.682        8.459        8.587        6.478       71.550       73.740       41.959        0.030        0.009       19.551        2.440        0.016      342.946       18.712      857.343
08/25/2014  04:52:00       22.762       44.712        4.476       18.419       14.442       11.916      339.278      208.566      141.994        0.161        0.034       50.172       11.412        0.052      343.089       18.954      857.356
08/25/2014  04:53:00      -19.069       21.543       -4.801       11.840       21.384       11.123      140.191      457.284      123.725        0.079        0.036       28.771        8.589        0.089      343.240       19.212      857.381
08/25/2014  04:54:00      -45.926        0.111       -9.520       12.566       17.340        8.791      157.894      300.685       77.275        0.137        0.027       45.926        7.954        0.030      343.204       19.153      857.401
08/25/2014  04:55:00      -14.991      -61.068       -7.798       14.985       27.148       14.459      224.559      736.993      209.055        0.259        0.059       62.881       11.344        0.033      343.322       19.354      857.417
08/25/2014  04:56:00      -16.639      -71.916        3.133       38.536       24.078       20.450     1485.056      579.774      418.208        0.397        0.124       73.816       17.729        0.058      343.338       19.379      857.441
08/25/2014  04:57:00      -37.382      -39.340        2.811       27.033       24.267       15.264      730.804      588.875      232.980        0.225        0.078       54.268       16.482        0.092      343.150       19.060      857.469
08/25/2014  04:58:00      -74.419      -29.601       -2.967       59.564       17.114       13.944     3547.904      292.883      194.434        0.523        0.202       80.090       23.531        0.086      343.120       19.009      857.471
08/25/2014  04:59:00     -140.383      -36.475       -7.953       31.476       30.191       12.858      990.731      911.522      165.325        1.158        0.103      145.044       15.866        0.012      343.158       19.072      857.480
08/25/2014  05:00:00     -137.061      -46.367       -0.491       41.494       31.726       16.832     1721.734     1006.532      283.314        1.197        0.151      144.692       10.453        0.005      343.143       19.046      857.483
08/25/2014  05:01:00     -119.301      -47.292        6.739       82.191       47.145       27.353     6755.413     2222.683      748.188        1.312        0.486      128.333       40.623        0.100      343.034       18.861      857.487
08/25/2014  05:02:00     -176.493      -72.982        0.523       72.900       61.676       31.859     5314.373     3803.937     1014.999        2.330        0.507      190.987       32.055        0.028      343.199       19.140      857.478
08/25/2014  05:03:00     -177.775      -97.652        1.822       79.299       59.228       40.952     6288.271     3507.980     1677.071        2.631        0.574      202.830       38.519        0.036      343.177       19.102      857.477
08/25/2014  05:04:00     -187.599      -44.693      -15.151       52.063       41.913       27.599     2710.590     1756.699      761.708        2.132        0.261      192.849       28.991        0.023      343.220       19.176      857.471
08/25/2014  05:05:00     -162.242      -48.227       -2.794       65.534       56.778       31.220     4294.678     3223.754      974.704        1.857        0.425      169.258       32.956        0.038      343.110       18.990      857.471
08/25/2014  05:06:00     -229.148      -24.053       -8.122       77.645       81.092       36.271     6028.797     6575.863     1315.573        3.353        0.696      230.407       37.011        0.026      343.285       19.285      857.475
08/25/2014  05:07:00     -182.266      -97.369       -7.617       85.928       62.931       43.291     7383.589     3960.354     1874.092        2.799        0.661      206.644       35.154        0.029      343.287       19.291      857.469
08/25/2014  05:08:00     -144.113      -26.529      -13.953       67.545       43.893       27.486     4562.342     1926.617      755.490        1.445        0.362      146.534       11.715        0.006      343.267       19.258      857.472
08/25/2014  05:09:00     -101.667       -0.488       -7.112       47.938       44.136       30.118     2298.015     1947.960      907.122        0.777        0.258      101.668       26.745        0.069      343.175       19.102      857.481
08/25/2014  05:10:00     -182.511      -61.955      -11.590       67.507       61.258       43.791     4557.243     3752.548     1917.694        2.375        0.511      192.740       39.123        0.041      343.258       19.242      857.483
08/25/2014  05:11:00     -152.853      -35.800       -1.334       55.933       67.537       34.148     3128.501     4561.206     1166.058        1.675        0.443      156.990       25.343        0.026      343.191       19.128      857.495
08/25/2014  05:12:00     -102.608      -30.045        3.877       72.720       54.262       29.725     5288.162     2944.418      883.576        1.028        0.456      106.916       33.555        0.098      343.075       18.932      857.496
08/25/2014  05:13:00     -158.910      -25.159        2.840       80.808      106.633       49.381     6529.968    11370.529     2438.434        2.311        1.017      160.890       39.964        0.062      343.355       19.406      857.483
08/25/2014  05:14:00     -187.475      -83.486       -0.219      117.432       76.530       51.307    13790.381     5856.857     2632.390        3.219        1.114      205.224       50.411        0.060      343.276       19.271      857.513
08/25/2014  05:15:00     -181.107      -33.667       -0.669      107.345       79.486       47.834    11522.897     6317.947     2288.111        2.703        1.006      184.210       59.446        0.104      343.256       19.237      857.540
08/25/2014  05:16:00     -150.140      -60.729       -4.296       76.720       97.688       38.059     5885.885     9542.941     1448.490        2.156        0.844      161.956       40.416        0.062      343.297       19.308      857.548
08/25/2014  05:17:00     -162.138      -35.846      -10.222       68.038       60.388       35.268     4629.103     3646.691     1243.833        1.860        0.476      166.053       33.553        0.041      343.355       19.406      857.559
08/25/2014  05:18:00     -209.131      -38.698      -15.936       79.179       58.566       31.250     6269.371     3429.995      976.541        2.808        0.534      212.682       30.298        0.020      343.326       19.358      857.563
08/25/2014  05:19:00     -185.347      -73.277       -4.022       56.755       43.195       31.543     3221.101     1865.846      994.947        2.291        0.304      199.307       30.604        0.024      343.313       19.334      857.562
08/25/2014  05:20:00     -161.712      -29.810       -8.226       85.203       86.627       39.112     7259.540     7504.218     1529.774        2.170        0.815      164.436       39.220        0.057      343.265       19.252      857.561
08/25/2014  05:21:00      -78.492      -30.341       10.420       70.819       56.793       35.124     5015.315     3225.458     1233.671        0.833        0.474       84.152       31.237        0.138      343.283       19.285      857.569
08/25/2014  05:22:00     -169.308      -36.325       -3.992       79.683       71.032       30.716     6349.336     5045.540      943.454        2.117        0.617      173.161       28.024        0.026      343.297       19.308      857.567
08/25/2014  05:23:00     -275.417       -3.426       -9.559       98.710       85.598       43.568     9743.743     7327.037     1898.208        4.746        0.948      275.438       43.750        0.025      343.457       19.579      857.566
08/25/2014  05:24:00     -151.668      -44.640       -2.683       84.845       80.296       35.701     7198.590     6447.396     1274.586        1.996        0.746      158.101       40.078        0.064      343.302       19.316      857.578
08/25/2014  05:25:00     -241.867      -22.095      -24.323       74.549       52.426       41.554     5557.566     2748.486     1726.729        3.480        0.502      242.874       38.312        0.025      343.393       19.469      857.575
08/25/2014  05:26:00     -111.430       30.735      -10.433       59.558       66.759       36.659     3547.098     4456.783     1343.861        1.141        0.467      115.591       29.720        0.066      343.600       19.825      857.573
08/25/2014  05:27:00     -212.942      -39.827      -19.277       78.294       82.770       40.979     6129.924     6850.942     1679.277        3.098        0.733      216.635       37.949        0.031      343.445       19.559      857.578
08/25/2014  05:28:00     -219.051      -84.497      -16.938       60.725       62.918       37.531     3687.505     3958.647     1408.580        3.223        0.453      234.783       24.194        0.011      343.607       19.833      857.567
08/25/2014  05:29:00     -301.106     -109.973      -10.090       82.218       91.346       45.131     6759.875     8344.083     2036.796        6.000        0.857      320.560       44.773        0.020      343.468       19.597      857.564
08/25/2014  05:30:00     -273.287      -89.569       -6.453       90.436       69.762       44.239     8178.687     4866.686     1957.103        4.887        0.750      287.590       43.195        0.023      343.467       19.595      857.562
08/25/2014  05:31:00     -192.442      -73.013       -4.571       94.359       94.054       50.629     8903.674     8846.078     2563.336        3.135        1.016      205.827       44.431        0.047      343.434       19.540      857.570
08/25/2014  05:32:00     -260.379      -42.770      -11.853       75.274       52.892       39.493     5666.181     2797.536     1559.725        3.989        0.501      263.869       37.576        0.020      343.455       19.575      857.578
08/25/2014  05:33:00     -105.637       51.158      -21.597       88.522       94.130       39.355     7836.230     8860.417     1548.832        1.624        0.912      117.373       26.854        0.052      343.090       18.954      857.607
08/25/2014  05:34:00      -86.319       36.484       -4.612       55.250       56.208       32.721     3052.541     3159.380     1070.641        0.804        0.364       93.713       33.692        0.129      342.884       18.608      857.600
08/25/2014  05:35:00      -97.732      151.302      -15.081       37.111       52.781       31.114     1377.236     2785.857      968.060        1.890        0.257      180.121       21.794        0.015      342.792       18.448      857.592
08/25/2014  05:36:00      -83.084       58.334       -9.325       41.783       32.931       33.098     1745.828     1084.428     1095.456        0.716        0.196      101.517       30.672        0.091      342.860       18.566      857.614
08/25/2014  05:37:00     -100.619      -33.571      -13.177       60.329       67.901       35.060     3639.640     4610.502     1229.213        1.045        0.474      106.072       26.108        0.061      342.740       18.360      857.632
08/25/2014  05:38:00      -90.840       75.179        3.182       56.426      122.167       49.667     3183.879    14924.659     2466.828        1.724        1.029      117.914       29.572        0.063      342.636       18.183      857.633
08/25/2014  05:39:00      -42.067       92.333       -6.786       60.994       80.636       37.868     3720.209     6502.125     1433.955        1.100        0.583      101.464       46.125        0.207      342.785       18.436      857.623
08/25/2014  05:40:00      -12.878       81.616        0.691       47.994       43.076       32.260     2303.408     1855.527     1040.694        0.601        0.260       82.626       27.222        0.109      342.825       18.507      857.609
08/25/2014  05:41:00      -32.930       75.255      -15.512       74.269       48.141       30.308     5515.939     2317.531      918.604        0.787        0.438       82.145       27.270        0.110      342.988       18.784      857.576
08/25/2014  05:42:00      -59.859        8.709      -10.954       35.422       53.247       20.813     1254.747     2835.264      433.163        0.415        0.226       60.490       18.652        0.095      342.881       18.601      857.615
08/25/2014  05:43:00     -102.204      -50.912        6.008       96.122       88.425       43.567     9239.414     7819.003     1898.117        1.601        0.948      114.183       46.056        0.163      342.867       18.575      857.637
08/25/2014  05:44:00      -80.803      -46.658       -8.159       68.934       53.059       34.620     4751.947     2815.207     1198.573        0.877        0.438       93.307       37.781        0.164      342.985       18.776      857.622
08/25/2014  05:45:00     -144.099      -11.382       -2.673       88.404       55.683       39.377     7815.247     3100.589     1550.571        1.668        0.623      144.548       45.657        0.100      342.933       18.688      857.649
08/25/2014  05:46:00     -158.289       15.192       -3.121       91.366       70.428       40.293     8347.743     4960.104     1623.558        2.011        0.747      159.016       35.987        0.051      342.921       18.666      857.679
08/25/2014  05:47:00      -75.092      -10.467       10.808       79.965       37.654       32.900     6394.428     1417.852     1082.385        0.738        0.445       75.818       41.663        0.302      342.888       18.611      857.661
08/25/2014  05:48:00     -120.693      -45.919       -2.260       63.791       51.303       29.315     4069.299     2631.981      859.369        1.212        0.378      129.133       26.193        0.041      342.830       18.512      857.710
08/25/2014  05:49:00      -49.595      -46.532       19.926       88.491       49.743       34.694     7830.598     2474.387     1203.687        0.826        0.575       68.007       33.558        0.243      342.794       18.454      857.722
08/25/2014  05:50:00     -126.009      -35.374       -1.887       67.391       83.344       49.032     4541.482     6946.215     2404.108        1.551        0.695      130.880       35.649        0.074      342.809       18.477      857.748
08/25/2014  05:51:00     -144.166      -64.365       -5.022      113.711       64.105       52.207    12930.284     4109.465     2725.549        2.235        0.988      157.882       50.267        0.101      342.785       18.437      857.787
08/25/2014  05:52:00      -93.533      -14.325       -5.671       79.443       49.885       33.776     6311.118     2488.505     1140.815        0.946        0.497       94.624       35.410        0.140      342.785       18.436      857.796
08/25/2014  05:53:00      -70.994       29.458        0.233       60.598       51.859       34.304     3672.162     2689.338     1176.778        0.672        0.377       76.864       28.032        0.133      343.094       18.964      857.781
08/25/2014  05:54:00      -73.683      -21.473        4.863       49.030       40.964       23.657     2403.956     1678.070      559.650        0.528        0.232       76.748       22.641        0.087      343.085       18.949      857.775
08/25/2014  05:55:00       -2.711       -4.423        1.713       48.404       34.590       26.444     2342.927     1196.463      699.266        0.213        0.212        5.187       27.923       28.975      343.005       18.812      857.800
08/25/2014  05:56:00       48.657      -95.669      -22.788       65.160       59.910       44.072     4245.869     3589.263     1942.380        1.091        0.489      107.331       43.452        0.164      342.646       18.201      857.788
08/25/2014  05:57:00       73.398     -120.315      -20.680       60.006       60.695       26.460     3600.760     3683.908      700.124        1.414        0.399      140.937       24.953        0.031      342.564       18.063      857.821
08/25/2014  05:58:00      -44.985      -36.646        8.683       46.507       31.741       25.545     2162.935     1007.460      652.554        0.363        0.191       58.023       24.877        0.184      342.609       18.138      857.863
08/25/2014  05:59:00       -6.620      -44.328        6.899       41.791       26.580       17.988     1746.462      706.479      323.552        0.242        0.139       44.819       14.211        0.101      342.620       18.156      857.875
08/25/2014  06:00:00      -50.781      -65.652       -1.796       29.805       21.505       10.790      888.317      462.481      116.427        0.418        0.073       82.999       12.548        0.023      342.665       18.234      857.877
08/25/2014  06:01:00       -8.825      -36.346       -2.413       19.388       27.460       13.210      375.897      754.035      174.514        0.135        0.065       37.402       13.179        0.124      342.640       18.192      857.874
08/25/2014  06:02:00      -70.570      -57.721       -3.229       41.237       43.035       18.327     1700.483     1851.979      335.861        0.610        0.194       91.169       15.179        0.028      342.663       18.231      857.893
08/25/2014  06:03:00     -111.632      -79.273        5.483       74.890       66.537       34.742     5608.544     4427.220     1206.997        1.501        0.562      136.915       41.607        0.092      342.662       18.227      857.920
08/25/2014  06:04:00     -125.084      -95.149       -2.382       40.609       37.945       22.783     1649.130     1439.825      519.055        1.416        0.180      157.161       15.265        0.009      342.766       18.406      857.939
08/25/2014  06:05:00        3.834      -42.879       -4.308       30.067       23.134       14.164      904.024      535.202      200.612        0.176        0.082       43.050        9.403        0.048      342.787       18.442      857.953
08/25/2014  06:06:00      -91.981      -54.714       -5.593       51.945       41.028       17.919     2698.231     1683.322      321.073        0.809        0.235      107.024        9.742        0.008      342.815       18.489      857.981
08/25/2014  06:07:00     -155.443      -65.836       -9.980       65.030       54.593       35.587     4228.903     2980.420     1266.449        1.853        0.424      168.810       27.458        0.026      342.716       18.318      858.028
08/25/2014  06:08:00      -32.235      -49.032       14.952       63.421       40.278       44.383     4022.245     1622.280     1969.883        0.564        0.381       58.679       43.779        0.557      342.632       18.179      858.031
08/25/2014  06:09:00      -22.343        9.635       10.072       44.909       28.780       21.403     2016.809      828.274      458.108        0.200        0.165       24.332       20.745        0.727      342.647       18.204      858.022
08/25/2014  06:10:00      -29.027      107.972      -21.060       74.914       45.888       41.659     5612.041     2105.678     1735.495        1.120        0.473      111.805       41.498        0.138      342.707       18.304      858.021
08/25/2014  06:11:00       -5.812       22.291        1.865       26.952       38.668       20.452      726.435     1495.246      418.303        0.159        0.132       23.036        9.669        0.176      342.666       18.235      858.020
08/25/2014  06:12:00      -36.741      -37.571      -16.167       77.348       44.729       39.936     5982.749     2000.644     1594.850        0.630        0.479       52.550       39.928        0.577      342.729       18.341      858.020
08/25/2014  06:13:00      -28.981      -40.865       -7.231       42.337       36.223       24.475     1792.458     1312.072      599.023        0.313        0.185       50.099       16.609        0.110      342.708       18.305      858.021
08/25/2014  06:14:00      -27.926       -2.354       14.007       36.591       45.529       22.859     1338.906     2072.887      522.545        0.246        0.197       28.025       25.263        0.813      342.664       18.231      858.039
08/25/2014  06:15:00      -51.366       21.352      -13.916       52.580       39.752       18.347     2764.700     1580.252      336.594        0.398        0.234       55.627       21.784        0.153      342.647       18.203      858.043
08/25/2014  06:16:00      -74.891      -41.638      -12.310       33.550       30.460       17.625     1125.635      927.782      310.656        0.493        0.118       85.687       14.495        0.029      342.699       18.292      858.046
08/25/2014  06:17:00      -87.015      -64.139        6.100       86.837       31.953       24.515     7540.608     1021.009      600.968        1.044        0.458      108.099       25.527        0.056      342.674       18.249      858.078
08/25/2014  06:18:00        3.794      -54.867        3.520       23.489       18.134       17.987      551.715      328.843      323.519        0.212        0.060       54.998       11.132        0.041      342.678       18.256      858.085
08/25/2014  06:19:00      -13.162      -18.582        4.968       19.089       26.145       15.627      364.387      683.574      244.219        0.092        0.065       22.772       16.444        0.521      342.656       18.216      858.107
08/25/2014  06:20:00      -97.511       45.993      -13.627       75.942       74.610       31.858     5767.221     5566.708     1014.939        1.208        0.617      107.813       18.578        0.030      342.776       18.422      858.130
08/25/2014  06:21:00      -34.819       33.669       -6.671       49.225       42.526       19.735     2423.063     1808.466      389.452        0.350        0.231       48.435       12.699        0.069      342.659       18.224      858.144
08/25/2014  06:22:00      -83.327      -49.430       -6.023       84.814       51.231       27.516     7193.490     2624.584      757.156        1.000        0.529       96.885       23.395        0.058      342.644       18.197      858.166
08/25/2014  06:23:00      -88.400      -43.166       -2.380       66.798       43.814       26.500     4461.921     1919.664      702.248        0.838        0.354       98.376       30.927        0.099      342.586       18.098      858.185
08/25/2014  06:24:00        5.376        9.088       14.901       12.815       15.663       13.616      164.220      245.341      185.387        0.046        0.030       10.559        3.505        0.110      342.459       17.885      858.186
08/25/2014  06:25:00      -56.462       27.194      -11.376       44.993       35.314       27.257     2024.412     1247.046      742.931        0.403        0.201       62.670       30.152        0.231      342.593       18.111      858.212
08/25/2014  06:26:00      -20.535       92.936       -0.019       43.483       61.639       33.872     1890.809     3799.328     1147.306        0.795        0.342       95.177       29.008        0.093      342.546       18.030      858.245
08/25/2014  06:27:00      -29.850       86.055        4.384       31.237       69.437       26.035      975.756     4821.506      677.818        0.739        0.324       91.085       25.413        0.078      342.595       18.114      858.246
08/25/2014  06:28:00      -17.583        6.068       10.511       20.348       27.325       15.552      414.035      746.663      241.854        0.093        0.070       18.600       15.195        0.667      342.590       18.105      858.263
08/25/2014  06:29:00       -1.194       -3.738       -1.179       14.686       17.897       10.083      215.680      320.319      101.661        0.033        0.032        3.925        8.052        4.209      342.540       18.023      858.279
08/25/2014  06:30:00      -19.465       26.842      -11.937       21.485       27.030       11.721      461.626      730.632      137.386        0.129        0.066       33.157        4.273        0.017      342.638       18.189      858.304
08/25/2014  06:31:00       65.024       19.528       -0.271       23.397       20.718       14.526      547.405      429.237      211.001        0.290        0.059       67.893       13.882        0.042      342.667       18.237      858.323
08/25/2014  06:32:00       37.039       40.826        1.216       30.961       22.125       17.976      958.600      489.523      323.133        0.241        0.089       55.124        7.782        0.020      342.716       18.320      858.335
08/25/2014  06:33:00       93.512       55.130       16.926       19.317       19.186       21.945      373.143      368.111      481.577        0.665        0.061      108.553       10.615        0.010      342.666       18.234      858.358
08/25/2014  06:34:00       90.095       41.438       10.712       34.437       25.479       20.385     1185.881      649.197      415.556        0.610        0.113       99.167       18.670        0.035      342.565       18.064      858.354
08/25/2014  06:35:00      106.670       45.012       12.235       42.386       24.192       24.487     1796.577      585.247      599.609        0.827        0.149      115.778       21.704        0.035      342.508       17.967      858.358
08/25/2014  06:36:00      141.002       75.091       27.628       31.191       22.083       31.512      972.872      487.641      992.993        1.437        0.123      159.750       18.199        0.013      342.597       18.117      858.371
08/25/2014  06:37:00       85.272       56.515       32.643       51.851       45.834       49.224     2688.490     2100.790     2422.975        0.937        0.361      102.300       31.870        0.097      342.490       17.936      858.370
08/25/2014  06:38:00       79.476       55.668       71.322       52.164       47.542       41.111     2721.039     2260.225     1690.139        1.059        0.334       97.033       26.625        0.075      342.263       17.549      858.376
08/25/2014  06:39:00      109.459       17.016       19.069       60.349       42.145       40.620     3641.999     1776.219     1649.982        0.985        0.353      110.774       32.691        0.087      342.225       17.486      858.395
08/25/2014  06:40:00       47.978        5.086       25.764       46.717       29.562       23.362     2182.444      873.901      545.788        0.330        0.180       48.247       19.066        0.156      342.421       17.817      858.411
08/25/2014  06:41:00        1.005       41.775       58.574       33.199       39.926       30.117     1102.163     1594.080      907.004        0.439        0.180       41.787       26.036        0.388      342.426       17.827      858.421
08/25/2014  06:42:00       32.602       91.562       96.434       51.816       41.659       31.979     2684.871     1735.473     1022.634        1.209        0.272       97.193       28.820        0.088      342.399       17.781      858.423
08/25/2014  06:43:00       52.536       52.149       49.189       48.674       44.151       28.242     2369.135     1949.323      797.583        0.651        0.256       74.024       21.476        0.084      342.181       17.412      858.429
08/25/2014  06:44:00       47.998      -32.903       13.650       55.980       41.512       33.169     3133.753     1723.239     1100.172        0.476        0.298       58.193       24.280        0.174      342.364       17.721      858.446
08/25/2014  06:45:00       38.237      -56.053        4.611       45.975       20.319       21.426     2113.707      412.852      459.075        0.380        0.149       67.852       22.475        0.110      342.366       17.724      858.464
08/25/2014  06:46:00       -4.784      -49.317       -5.158       25.263       21.345       14.632      638.218      455.614      214.086        0.189        0.065       49.548       13.220        0.071      342.409       17.798      858.493
08/25/2014  06:47:00      -56.724      -29.316       -1.730       34.267       25.248       16.132     1174.194      637.449      260.228        0.308        0.104       63.852       14.484        0.051      342.275       17.570      858.513
08/25/2014  06:48:00      -17.808      -28.148        1.788       26.135       25.767       15.695      683.023      663.958      246.339        0.135        0.080       33.309       11.414        0.117      342.339       17.679      858.533
08/25/2014  06:49:00       -6.588      -24.834        5.026       20.224       27.142       19.633      409.025      736.703      385.463        0.111        0.077       25.693       16.741        0.425      342.500       17.953      858.530
08/25/2014  06:50:00       69.305      -76.232       -4.533       57.181       65.844       44.487     3269.640     4335.433     1979.096        1.011        0.479      103.027       46.323        0.202      342.400       17.782      858.514
08/25/2014  06:51:00      124.329     -132.022      -19.792       82.030       83.779       47.826     6728.891     7019.001     2287.326        2.465        0.802      181.349       47.728        0.069      342.317       17.639      858.482
08/25/2014  06:52:00      108.272     -108.009      -11.879       72.760       78.853       53.253     5294.040     6217.820     2835.830        1.894        0.717      152.934       56.429        0.136      342.301       17.611      858.464
08/25/2014  06:53:00       38.459     -117.354      -13.007       60.401       58.997       37.559     3648.304     3480.625     1410.656        1.198        0.427      123.495       36.086        0.085      342.399       17.781      858.461
08/25/2014  06:54:00      -96.677      -19.936       -2.000       34.351       49.735       31.541     1180.013     2473.521      994.865        0.720        0.232       98.711       29.228        0.088      342.423       17.821      858.492
08/25/2014  06:55:00     -144.747      -19.598       -5.197       86.947       45.172       30.949     7559.711     2040.491      957.870        1.596        0.528      146.068       36.895        0.064      342.428       17.829      858.499
08/25/2014  06:56:00     -197.803     -106.250       -1.019       59.238       60.417       36.338     3509.189     3650.253     1320.483        2.945        0.424      224.533       34.460        0.024      342.425       17.821      858.503
08/25/2014  06:57:00     -119.939      -64.211       -2.063       84.288       75.272       37.023     7104.501     5665.873     1370.687        1.632        0.707      136.046       41.154        0.092      342.556       18.047      858.498
08/25/2014  06:58:00       53.484     -137.947      -28.031       36.190       47.155       34.371     1309.692     2223.597     1181.351        1.369        0.236      147.952       15.643        0.011      342.639       18.189      858.477
08/25/2014  06:59:00       27.192      -57.880       -2.370       61.292       50.110       34.179     3756.740     2511.037     1168.187        0.576        0.372       63.949       25.740        0.162      342.644       18.198      858.464
08/25/2014  07:00:00      -55.581      -18.561       -2.074       39.879       29.075       17.519     1590.303      845.355      306.914        0.309        0.137       58.598       11.926        0.041      342.701       18.296      858.480
08/25/2014  07:01:00       -9.370      -61.888       -2.401       41.134       21.444       18.114     1691.987      459.834      328.128        0.320        0.124       62.593        9.310        0.022      342.621       18.159      858.476
08/25/2014  07:02:00       -2.540     -112.943      -12.528       35.678       41.043       28.976     1272.907     1684.492      839.611        0.836        0.190      112.971       17.990        0.025      342.802       18.467      858.470
08/25/2014  07:03:00       -2.105      -39.396       15.200       36.494       28.927       23.344     1331.828      836.790      544.944        0.225        0.136       39.452       20.504        0.270      342.734       18.351      858.480
08/25/2014  07:04:00      -76.128      -78.072       -4.186       50.088       29.380       19.247     2508.823      863.159      370.462        0.782        0.187      109.045       16.559        0.023      342.715       18.318      858.485
08/25/2014  07:05:00      -91.900      -83.168       -2.917       34.747       34.100       19.130     1207.368     1162.788      365.953        0.905        0.137      123.946       17.947        0.021      342.621       18.160      858.481
08/25/2014  07:06:00      -81.377      -43.144       -0.970       41.725       29.685       19.833     1740.953      881.203      393.338        0.575        0.151       92.106       19.509        0.045      342.641       18.191      858.469
08/25/2014  07:07:00      -19.113      -71.476       -0.170       36.616       39.478       21.661     1340.713     1558.547      469.201        0.442        0.168       73.988       23.578        0.102      342.647       18.202      858.476
08/25/2014  07:08:00       -8.650      -10.812        8.332       18.198       24.070       10.186      331.153      579.361      103.749        0.064        0.051       13.847        8.619        0.387      342.623       18.162      858.465
08/25/2014  07:09:00      -13.426        4.203        6.874       11.114       21.876        7.702      123.530      478.543       59.317        0.045        0.033       14.069        4.937        0.123      342.662       18.229      858.469
08/25/2014  07:10:00      -13.912       13.182        1.292       36.509       22.119       11.994     1332.894      489.254      143.863        0.117        0.098       19.166       10.888        0.323      342.647       18.204      858.465
08/25/2014  07:11:00      -22.780      -15.569       -8.756       32.615       15.471       15.891     1063.748      239.337      252.511        0.120        0.078       27.592        9.270        0.113      342.697       18.287      858.462
08/25/2014  07:12:00       35.226       47.263       23.530       35.547       44.549       20.501     1263.586     1984.591      420.306        0.385        0.183       58.946       14.918        0.064      342.626       18.170      858.461
08/25/2014  07:13:00       30.226       24.239        8.642       28.475       25.058       26.982      810.801      627.893      728.045        0.187        0.108       38.745       12.288        0.101      342.452       17.870      858.451
08/25/2014  07:14:00       37.918       20.303       -1.773       31.610       18.011       20.790      999.188      324.397      432.219        0.180        0.088       43.012        8.490        0.039      342.409       17.797      858.463
08/25/2014  07:15:00       54.158       28.004        1.549       11.782       16.266       10.695      138.805      264.578      114.374        0.212        0.026       60.969        4.444        0.005      342.438       17.847      858.479
08/25/2014  07:16:00       58.467       40.816        6.380       38.081       21.969       14.893     1450.145      482.652      221.808        0.364        0.108       71.304       12.339        0.030      342.483       17.926      858.491
08/25/2014  07:17:00       76.062       51.460        3.704       18.958       24.306       18.970      359.405      590.780      359.862        0.488        0.066       91.834       12.713        0.019      342.554       18.044      858.496
08/25/2014  07:18:00       81.266       45.343        2.840       30.349       31.686       17.621      921.051     1003.991      310.485        0.545        0.112       93.060        5.176        0.003      342.491       17.938      858.510
08/25/2014  07:19:00      111.072       71.607       21.216       34.148       26.963       25.640     1166.104      727.030      657.423        1.023        0.128      132.153       18.324        0.019      342.402       17.783      858.522
08/25/2014  07:20:00       69.042       46.905        3.189       33.954       25.721       26.219     1152.862      661.569      687.436        0.474        0.125       83.468       18.446        0.049      342.356       17.708      858.542
08/25/2014  07:21:00       43.939       31.295      -12.312       32.050       34.401       18.293     1027.171     1183.419      334.618        0.280        0.127       53.944       16.480        0.093      342.344       17.688      858.556
08/25/2014  07:22:00       41.593       41.270       -0.704       22.888       20.619       18.217      523.872      425.128      331.854        0.236        0.064       58.593       12.876        0.048      342.356       17.710      858.566
08/25/2014  07:23:00       92.867       61.211       30.324       32.538       26.806       26.256     1058.701      718.547      689.357        0.788        0.123      111.225       19.369        0.030      342.416       17.810      858.549
08/25/2014  07:24:00       63.578       28.483       11.516       41.804       25.627       22.701     1747.540      656.735      515.353        0.395        0.146       69.667       13.260        0.036      342.372       17.736      858.539
08/25/2014  07:25:00       27.105        4.062        8.421       20.002       16.882       13.566      400.067      285.014      184.037        0.085        0.043       27.408        5.828        0.045      342.435       17.840      858.545
08/25/2014  07:26:00       11.266       21.464        4.738       19.469       17.719       17.475      379.027      313.976      305.386        0.080        0.050       24.241       14.759        0.371      342.410       17.797      858.553
08/25/2014  07:27:00       26.788       54.199      -11.227       15.101       22.792       11.299      228.032      519.486      127.676        0.233        0.044       60.458        3.836        0.004      342.413       17.806      858.558
08/25/2014  07:28:00       40.556       56.539       -4.822       23.722       35.126       22.092      562.712     1233.833      488.046        0.357        0.114       69.580       20.306        0.085      342.374       17.740      858.544
08/25/2014  07:29:00       52.452       37.893        0.253       39.155       27.762       25.266     1533.108      770.704      638.370        0.356        0.147       64.708       18.300        0.080      342.385       17.756      858.521
08/25/2014  07:30:00       60.062       45.447       20.833       31.159       40.597       31.549      970.872     1648.135      995.341        0.486        0.181       75.318       18.851        0.063      342.473       17.907      858.516
08/25/2014  07:31:00       14.241       45.979       55.192       25.304       25.151       22.052      640.268      632.583      486.304        0.356        0.088       48.134       15.414        0.103      342.532       18.007      858.514
08/25/2014  07:32:00      -11.732       20.699       45.432       21.765       27.291       18.274      473.708      744.809      333.924        0.209        0.078       23.793       14.857        0.390      342.636       18.184      858.507
08/25/2014  07:33:00      -50.457      -39.092        4.964       31.691       22.271       16.799     1004.293      496.016      282.197        0.294        0.089       63.829       16.569        0.067      342.687       18.272      858.526
08/25/2014  07:34:00       -1.084       -7.150       32.623       23.422       12.145       12.296      548.596      147.493      151.191        0.098        0.042        7.232        8.073        1.246      342.700       18.294      858.527
08/25/2014  07:35:00       11.792       27.514       -7.109       13.896       13.724       14.907      193.110      188.339      222.216        0.078        0.030       29.934        7.854        0.069      342.482       17.923      858.524
08/25/2014  07:36:00       10.438       15.404       -2.354       20.498       12.278       13.434      420.163      150.739      180.471        0.055        0.038       18.607       10.878        0.342      342.488       17.932      858.510
08/25/2014  07:37:00       -0.193       28.709       -9.751       12.877       15.809        7.750      165.811      249.939       60.069        0.070        0.024       28.710        8.921        0.097      342.450       17.869      858.501
08/25/2014  07:38:00       -9.047      -14.358       -3.789       18.885       17.118       12.667      356.643      293.021      160.448        0.056        0.041       16.970        7.840        0.213      342.533       18.011      858.496
08/25/2014  07:39:00      -17.115      -43.925       -7.323       20.489       13.435       12.123      419.795      180.501      146.958        0.151        0.037       47.142       10.790        0.052      342.580       18.089      858.483
08/25/2014  07:40:00      -43.583      -38.382        0.420       23.709       13.541       13.830      562.105      183.363      191.268        0.215        0.047       58.074        5.275        0.008      342.612       18.145      858.460
08/25/2014  07:41:00      -10.024      -24.627        7.542       26.648       45.406       21.809      710.142     2061.709      475.629        0.201        0.162       26.589       10.725        0.163      342.755       18.387      858.456
08/25/2014  07:42:00      -43.958      -59.000       12.879       50.787       42.163       29.833     2579.309     1777.683      890.035        0.541        0.262       73.575       28.935        0.155      342.732       18.347      858.453
08/25/2014  07:43:00      -33.857     -136.236       -9.567       40.120       39.857       20.274     1609.621     1588.605      411.052        1.170        0.180      140.381       17.526        0.016      342.691       18.278      858.433
08/25/2014  07:44:00      -63.733      -73.149        2.931       48.577       40.619       28.334     2359.757     1649.869      802.836        0.712        0.241       97.019       24.643        0.065      342.717       18.322      858.385
08/25/2014  07:45:00      -57.538      -89.278        4.242       51.754       42.052       28.699     2678.445     1768.359      823.640        0.828        0.264      106.213       27.749        0.068      342.805       18.471      858.340
08/25/2014  07:46:00      -65.072      -89.201        2.986       54.308       42.887       25.951     2949.343     1839.309      673.461        0.883        0.273      110.414       25.843        0.055      342.765       18.405      858.312
08/25/2014  07:47:00      -54.311      -84.756       -0.177       39.499       39.352       24.035     1560.174     1548.605      577.684        0.691        0.184      100.664       24.939        0.061      342.778       18.425      858.291
08/25/2014  07:48:00      -32.643      -50.852       -4.364       41.766       62.172       33.958     1744.429     3865.320     1153.154        0.522        0.338       60.427       35.333        0.342      342.938       18.698      858.244
08/25/2014  07:49:00      -41.440      -49.171        7.243       60.499       39.376       26.121     3660.159     1550.447      682.309        0.504        0.295       64.304       27.054        0.177      342.964       18.743      858.253
08/25/2014  07:50:00     -108.303      -76.805       -1.244       86.818       42.533       29.811     7537.408     1809.069      888.685        1.393        0.512      132.773       24.983        0.035      342.921       18.668      858.287
08/25/2014  07:51:00     -166.973      -88.512        4.294       86.889       62.396       46.659     7549.717     3893.212     2177.033        2.467        0.681      188.983       52.756        0.078      342.918       18.661      858.282
08/25/2014  07:52:00     -108.122      -81.935        9.411       68.931       78.673       36.276     4751.459     6189.416     1315.978        1.537        0.613      135.660       33.446        0.061      342.942       18.702      858.278
08/25/2014  07:53:00     -131.798     -206.604       -1.547       65.809       58.922       33.512     4330.865     3471.828     1123.046        3.449        0.446      245.063       29.663        0.015      342.909       18.646      858.276
08/25/2014  07:54:00      -68.330      -92.041        4.576       61.797       85.751       30.026     3818.866     7353.149      901.551        1.262        0.604      114.632       25.658        0.050      343.037       18.866      858.263
08/25/2014  07:55:00      -69.336      -22.020        5.507       44.453       44.879       23.430     1976.037     2014.101      548.957        0.493        0.227       72.749       22.732        0.098      342.993       18.790      858.263
08/25/2014  07:56:00      -48.482     -169.945      -13.004       61.944       90.325       37.135     3837.004     8158.595     1379.028        2.239        0.669      176.725       36.091        0.042      342.967       18.747      858.294
08/25/2014  07:57:00      -53.096      -87.406        2.547       82.744       47.464       29.687     6846.541     2252.864      881.299        1.022        0.499      102.270       23.016        0.051      343.000       18.802      858.289
08/25/2014  07:58:00        1.951     -119.702      -11.816       39.346       62.811       32.067     1548.081     3945.234     1028.300        1.050        0.326      119.718       27.074        0.051      343.050       18.888      858.289
08/25/2014  07:59:00      -64.329      -36.769        0.801       56.127       46.895       29.629     3150.224     2199.130      877.872        0.586        0.311       74.095       23.214        0.098      343.035       18.863      858.308
08/25/2014  08:00:00      -72.174      -57.857       -0.887       73.022       34.250       24.211     5332.202     1173.042      586.159        0.782        0.355       92.501       27.209        0.087      343.055       18.898      858.317
08/25/2014  08:01:00      -12.956       16.288       11.747       18.496       43.852       27.883      342.086     1923.023      777.456        0.181        0.152       20.812       18.794        0.815      343.207       19.156      858.302
08/25/2014  08:02:00        7.306        9.620       54.901       25.326       39.541       25.040      641.412     1563.470      626.980        0.300        0.142       12.080       24.362        4.067      343.340       19.383      858.328
08/25/2014  08:03:00      -51.159      -59.372      -18.399       60.993       38.087       40.343     3720.155     1450.634     1627.566        0.664        0.340       78.373       32.380        0.171      343.162       19.079      858.348
08/25/2014  08:04:00      -43.710      -21.400       10.438       27.547       29.757       17.930      758.829      885.460      321.484        0.222        0.098       48.668       16.807        0.119      343.173       19.099      858.361
08/25/2014  08:05:00      -59.720       -5.009       14.419       19.564       39.387       23.359      382.733     1551.368      545.653        0.314        0.124       59.930       12.933        0.047      343.257       19.241      858.367
08/25/2014  08:06:00      -25.648      -40.096       16.587       53.644       37.864       23.370     2877.669     1433.702      546.146        0.370        0.243       47.598       29.566        0.386      343.327       19.362      858.381
08/25/2014  08:07:00        5.094        4.118       38.020       33.046       46.682       38.506     1092.048     2179.233     1482.709        0.312        0.238        6.550       22.734       12.045      343.346       19.393      858.348
08/25/2014  08:08:00        0.723      -80.886       22.088       45.325       90.535       57.286     2054.360     8196.525     3281.658        1.028        0.677       80.889       49.393        0.373      343.196       19.137      858.332
08/25/2014  08:09:00      156.660     -126.426      -42.667       68.102       90.479       54.485     4637.940     8186.447     2968.580        2.907        0.790      201.311       54.245        0.073      342.886       18.606      858.319
08/25/2014  08:10:00      128.647     -199.161      -35.019       87.006       60.429       39.591     7570.070     3651.654     1567.475        3.511        0.639      237.097       47.158        0.040      342.871       18.580      858.309
08/25/2014  08:11:00      107.072      -88.418        9.078       91.526      110.551       62.113     8377.092    12221.634     3858.049        2.191        1.223      138.860       82.394        0.352      342.853       18.550      858.282
08/25/2014  08:12:00       95.733     -160.464       -3.692       67.171       90.506       61.708     4511.891     8191.258     3807.900        2.572        0.826      186.852       63.801        0.117      342.916       18.657      858.268
08/25/2014  08:13:00       38.055      -46.655       45.137       62.474       89.758       54.879     3902.985     8056.515     3011.701        1.031        0.749       60.207       56.660        0.886      342.969       18.750      858.250
08/25/2014  08:14:00       76.631     -122.444       -0.141       82.577       91.475       53.663     6818.941     8367.732     2879.675        1.946        0.903      144.446       57.243        0.157      342.969       18.749      858.236
08/25/2014  08:15:00      -22.175      -55.567       21.446       39.102       36.225       33.479     1528.947     1312.266     1120.841        0.400        0.198       59.828       27.633        0.213      343.127       19.020      858.227
08/25/2014  08:16:00      -22.688      -29.028        2.515       21.169       24.178       19.777      448.142      584.573      391.111        0.139        0.071       36.842       16.234        0.194      343.238       19.209      858.224
08/25/2014  08:17:00        7.613      -23.496       11.132       29.419       35.687       22.303      865.455     1273.553      497.405        0.168        0.132       24.699       17.614        0.509      343.286       19.290      858.220
08/25/2014  08:18:00       33.504      -95.892        0.229       51.808       60.759       34.784     2684.089     3691.646     1209.956        0.895        0.379      101.576       29.039        0.082      343.282       19.283      858.207
08/25/2014  08:19:00       -7.089      -32.965       20.869       26.373       53.239       32.117      695.513     2834.356     1031.482        0.307        0.228       33.719       37.806        1.257      343.404       19.492      858.212
08/25/2014  08:20:00       22.648      -84.882      -11.984       56.344       62.672       28.797     3174.670     3927.782      829.261        0.789        0.397       87.851       26.134        0.088      343.375       19.442      858.219
08/25/2014  08:21:00      116.212     -207.416        1.035       87.570      118.345       57.536     7668.437    14005.509     3310.360        4.075        1.249      237.754       60.962        0.066      343.214       19.166      858.227
08/25/2014  08:22:00        5.402      -99.577        4.233       69.796       79.889       48.200     4871.433     6382.265     2323.238        1.177        0.679       99.724       39.769        0.159      343.244       19.218      858.210
08/25/2014  08:23:00      -38.092      -67.047        2.638       63.096       62.643       51.970     3981.109     3924.162     2700.862        0.828        0.530       77.113       36.527        0.224      343.295       19.307      858.211
08/25/2014  08:24:00       50.566     -116.730        0.355       62.595       66.924       45.723     3918.156     4478.801     2090.573        1.333        0.524      127.212       41.215        0.105      343.299       19.312      858.242
08/25/2014  08:25:00       68.614      -65.087       11.615       87.930       76.678       62.231     7731.617     5879.475     3872.670        1.328        0.874       94.573       49.582        0.275      343.265       19.254      858.246
08/25/2014  08:26:00       50.349     -144.370       -9.258      121.481       74.946       54.780    14757.559     5616.926     3000.893        2.341        1.169      152.898       42.036        0.076      343.261       19.246      858.273
08/25/2014  08:27:00      -89.556      -92.272      -15.122       84.099       71.127       31.137     7072.637     5059.077      969.490        1.493        0.655      128.586       26.007        0.041      343.296       19.308      858.312
08/25/2014  08:28:00       14.565      -93.721        7.317       48.460       40.953       32.624     2348.341     1677.162     1064.293        0.707        0.254       94.846       20.645        0.047      343.415       19.510      858.323
08/25/2014  08:29:00      -68.401     -222.674      -22.091       75.768       76.289       36.661     5740.841     5819.937     1344.055        3.383        0.645      232.943       29.710        0.016      343.307       19.325      858.346
08/25/2014  08:30:00       10.535     -182.134       -8.015       88.896       91.101       48.727     7902.502     8299.416     2374.360        2.596        0.929      182.438       44.757        0.060      343.290       19.296      858.359
08/25/2014  08:31:00      -69.874      -38.799       12.704       54.282       36.809       31.279     2946.584     1354.917      978.406        0.591        0.264       79.924       30.272        0.143      343.345       19.392      858.366
08/25/2014  08:32:00      -23.284      -34.675        6.961       34.813       42.830       22.564     1211.913     1834.422      509.148        0.267        0.178       41.767       22.709        0.296      343.396       19.477      858.373
08/25/2014  08:33:00      -42.700      -71.409        3.620       36.346       40.753       26.487     1321.002     1660.811      701.549        0.531        0.184       83.201       22.501        0.073      343.360       19.418      858.374
08/25/2014  08:34:00      -13.399      -43.002       -7.323       32.808       44.280       19.861     1076.388     1960.697      394.465        0.276        0.172       45.041       18.609        0.171      343.436       19.546      858.370
08/25/2014  08:35:00      -14.479      -34.494       -2.118       29.397       22.184       25.859      864.159      492.122      668.686        0.171        0.101       37.410       14.805        0.157      343.507       19.668      858.375
08/25/2014  08:36:00      -13.525      -46.478       -0.596       49.356       42.311       25.803     2436.013     1790.247      665.779        0.362        0.245       48.406       27.266        0.317      343.425       19.526      858.393
08/25/2014  08:37:00       31.051      -71.249        9.271       47.422       54.532       45.259     2248.822     2973.693     2048.390        0.670        0.364       77.721       23.918        0.095      343.545       19.732      858.392
08/25/2014  08:38:00       46.193     -139.969      -24.663       89.236       70.731       40.996     7963.149     5002.882     1680.639        1.849        0.732      147.394       43.428        0.087      343.439       19.550      858.396
08/25/2014  08:39:00       59.694      -62.716        4.987       39.826       44.940       34.192     1586.107     2019.583     1169.070        0.615        0.239       86.583       29.154        0.113      343.479       19.619      858.412
08/25/2014  08:40:00       32.765      -25.978       30.501       49.660       56.263       44.879     2466.112     3165.511     2014.113        0.516        0.382       41.814       45.987        1.210      343.604       19.833      858.419
08/25/2014  08:41:00       97.452      -98.681       10.615       84.600       98.473       65.712     7157.182     9696.839     4318.044        2.026        1.059      138.689       70.669        0.260      343.387       19.460      858.412
08/25/2014  08:42:00       35.506      -14.528       58.214       70.040       76.328       47.370     4905.597     5825.930     2243.943        0.892        0.649       38.363       50.698        1.746      343.506       19.665      858.420
08/25/2014  08:43:00       86.760     -100.691       16.660       85.699      123.370       73.820     7344.387    15220.076     5449.432        2.297        1.401      132.914       75.097        0.319      343.245       19.218      858.426
08/25/2014  08:44:00       48.865      -20.042       86.198       88.132      130.740       82.183     7767.187    17093.033     6754.054        2.091        1.581       52.815       96.124        3.312      343.256       19.240      858.429
08/25/2014  08:45:00       67.051      -76.525       15.645       82.724       94.945       61.903     6843.204     9014.625     3832.012        1.514        0.984      101.745       62.108        0.373      343.350       19.398      858.442
08/25/2014  08:46:00       -9.862      -64.397       -2.426       62.245       61.989       34.932     3874.486     3842.646     1220.237        0.659        0.447       65.148       33.221        0.260      343.415       19.511      858.481
08/25/2014  08:47:00       21.773      -55.166       27.308       45.169       92.605       49.889     2040.259     8575.750     2488.927        0.868        0.655       59.307       49.292        0.691      343.368       19.430      858.501
08/25/2014  08:48:00      -21.190      -28.225       18.718       27.855       36.591       25.543      775.902     1338.898      652.455        0.218        0.138       35.294       22.482        0.406      343.531       19.710      858.513
08/25/2014  08:49:00       13.299      -37.114       34.477       31.113       43.860       28.443      968.000     1923.735      809.032        0.322        0.185       39.425       17.051        0.187      343.615       19.852      858.531
08/25/2014  08:50:00      -19.227       21.995       51.330       29.456       44.073       24.929      867.669     1942.389      621.459        0.346        0.172       29.214       22.635        0.600      343.656       19.920      858.556
08/25/2014  08:51:00       -5.804      -33.212       13.861       36.082       43.263       24.947     1301.917     1871.726      622.372        0.256        0.190       33.715       13.537        0.161      343.496       19.649      858.580
08/25/2014  08:52:00      -11.359        2.256       43.498       20.754       37.350       23.479      430.714     1395.022      551.275        0.220        0.119       11.580       25.878        4.994      343.743       20.071      858.582
08/25/2014  08:53:00        0.901      -11.990       35.820       36.929       58.639       30.061     1363.740     3438.535      903.648        0.357        0.285       12.023       30.766        6.548      343.795       20.159      858.587
08/25/2014  08:54:00        5.415       26.798       78.067       34.345       39.019       33.133     1179.580     1522.479     1097.826        0.532        0.190       27.339       26.006        0.905      343.989       20.489      858.595
08/25/2014  08:55:00       79.581      -48.486       32.504       70.432       96.148       61.614     4960.734     9244.345     3796.301        1.387        0.900       93.189       70.743        0.576      343.698       19.992      858.601
08/25/2014  08:56:00       78.487      -77.339       29.012       56.919       78.357       57.512     3239.817     6139.772     3307.587        1.283        0.634      110.189       55.662        0.255      343.586       19.801      858.595
08/25/2014  08:57:00       25.848       72.791      104.526       71.975       95.912       70.806     5180.423     9199.018     5013.543        1.814        0.970       77.245       68.240        0.780      343.711       20.015      858.590
08/25/2014  08:58:00       39.102        0.891       67.436       72.149       94.765       51.068     5205.465     8980.334     2607.898        1.143        0.840       39.112       63.927        2.671      344.025       20.551      858.585
08/25/2014  08:59:00      130.351     -167.656      -22.388       70.060       78.669       49.100     4908.364     6188.778     2410.851        2.955        0.675      212.368       48.218        0.052      343.603       19.827      858.588
08/25/2014  09:00:00       69.515      -79.962       12.903       65.100       72.955       53.867     4238.065     5322.503     2901.674        1.192        0.623      105.954       58.768        0.308      343.921       20.374      858.604
08/25/2014  09:01:00       58.887      -56.190        0.440       52.291       64.795       52.459     2734.394     4198.424     2751.988        0.815        0.484       81.395       42.212        0.269      344.055       20.601      858.613
08/25/2014  09:02:00       39.745     -132.802      -14.884       51.491       49.833       36.256     2651.360     2483.315     1314.484        1.294        0.322      138.622       24.720        0.032      343.717       20.024      858.641
08/25/2014  09:03:00       15.473      -33.911       14.751       30.593       53.994       34.988      935.925     2915.304     1224.155        0.334        0.254       37.274       21.237        0.325      344.048       20.592      858.643
08/25/2014  09:04:00       15.752       31.682       42.854       28.581       40.409       45.127      816.879     1632.925     2036.442        0.379        0.224       35.382       38.847        1.206      344.142       20.752      858.668
08/25/2014  09:05:00       50.155       50.883       61.426       36.849       48.184       35.608     1357.867     2321.715     1267.896        0.691        0.247       71.446       35.672        0.249      344.017       20.539      858.689
08/25/2014  09:06:00       42.631      -10.172       42.800       54.734       82.893       43.355     2995.782     6871.299     1879.646        0.775        0.587       43.828       57.301        1.709      344.242       20.923      858.707
08/25/2014  09:07:00       48.522      -24.808       24.408       58.090       78.587       59.263     3374.483     6175.879     3512.066        0.831        0.653       54.496       67.307        1.525      344.242       20.922      858.727
08/25/2014  09:08:00       24.138       35.872       66.086       35.925       52.993       38.127     1290.610     2808.282     1453.644        0.589        0.278       43.237       40.830        0.892      344.227       20.896      858.737
08/25/2014  09:09:00       29.843       44.848       48.994       34.501       37.150       33.600     1190.320     1380.115     1128.963        0.450        0.185       53.869       29.384        0.298      344.011       20.528      858.745
08/25/2014  09:10:00        0.071      -11.948       46.445       59.836       72.250       39.180     3580.309     5220.013     1535.050        0.632        0.517       11.948       43.289       13.128      344.272       20.972      858.753
08/25/2014  09:11:00       21.942      -58.965       17.022       27.256       51.434       46.592      742.895     2645.444     2170.811        0.490        0.278       62.915       34.085        0.294      344.297       21.015      858.765
08/25/2014  09:12:00      -10.483       16.240       28.599       50.262       30.142       26.480     2526.292      908.557      701.184        0.266        0.207       19.330       32.916        2.900      344.274       20.977      858.771
08/25/2014  09:13:00      -62.102        8.539      -13.097       27.399       25.598       23.645      750.705      655.248      559.072        0.303        0.098       62.686       19.770        0.099      343.847       20.248      858.778
08/25/2014  09:14:00      -56.536       -2.590        5.453       18.389       23.851       13.990      338.152      568.871      195.722        0.217        0.055       56.595        7.188        0.016      343.857       20.265      858.769
08/25/2014  09:15:00      -10.373      -23.969        4.520       31.849       33.504       29.051     1014.378     1122.550      843.986        0.184        0.149       26.118       14.401        0.304      344.407       21.204      858.764
08/25/2014  09:16:00      -66.737      -76.789       -5.536       38.741       35.246       18.902     1500.894     1242.266      357.283        0.674        0.155      101.737       14.565        0.020      343.853       20.258      858.764
08/25/2014  09:17:00      -36.303      -42.254        5.930       34.119       39.153       24.566     1164.103     1532.988      603.466        0.322        0.165       55.707       25.777        0.214      344.121       20.715      858.756
08/25/2014  09:18:00      -48.262      -76.535       -3.586       20.973       28.893       16.813      439.863      834.790      282.670        0.488        0.078       90.481       11.643        0.017      343.826       20.212      858.762
08/25/2014  09:19:00      -43.856      -89.917       -3.290       23.468       26.535       16.312      550.763      704.080      266.090        0.577        0.076      100.042       12.180        0.015      343.829       20.216      858.760
08/25/2014  09:20:00      -40.462      -44.607       -3.743       22.425       37.875       14.897      502.859     1434.498      221.923        0.290        0.108       60.224       13.222        0.048      343.869       20.286      858.747
08/25/2014  09:21:00      -66.759      -92.776      -13.600       35.019       34.205       20.210     1226.299     1170.001      408.433        0.803        0.140      114.299       12.124        0.011      343.942       20.409      858.741
08/25/2014  09:22:00      -35.985      -82.778      -10.653       35.661       18.639       16.248     1271.706      347.429      263.987        0.507        0.094       90.262        9.059        0.010      343.979       20.472      858.730
08/25/2014  09:23:00       -4.987      -15.806       12.789       23.037       27.262       18.441      530.713      743.211      340.078        0.103        0.081       16.574        6.140        0.137      344.368       21.138      858.728
08/25/2014  09:24:00        6.173       18.562       19.220       36.472       39.682       21.257     1330.233     1574.640      451.865        0.205        0.168       19.561       17.858        0.833      344.714       21.728      858.730
08/25/2014  09:25:00       50.751       52.692       38.454       40.711       32.460       47.402     1657.346     1053.638     2246.950        0.589        0.248       73.158       21.978        0.090      344.424       21.233      858.733
08/25/2014  09:26:00       15.622        5.533       14.607       28.785       64.698       26.080      828.576     4185.793      680.179        0.309        0.285       16.573       23.753        2.054      344.595       21.525      858.751
08/25/2014  09:27:00       99.914       47.437       35.337       78.997       67.483       39.632     6240.511     4553.939     1570.700        1.292        0.618      110.603       25.762        0.054      344.710       21.721      858.758
08/25/2014  09:28:00      166.835      115.105       56.899       91.457       80.683       68.648     8364.340     6509.765     4712.509        3.195        0.979      202.690       28.850        0.020      344.289       21.001      858.773
08/25/2014  09:29:00      181.022       99.451       24.072       72.706       70.693       55.447     5286.154     4997.433     3074.384        2.830        0.668      206.541       22.374        0.012      344.156       20.773      858.788
08/25/2014  09:30:00      220.881      134.637       15.944       59.141       54.486       42.612     3497.614     2968.760     1815.821        3.772        0.414      258.680       25.105        0.009      344.098       20.673      858.786
08/25/2014  09:31:00      170.766      125.198       57.006       64.642       46.772       53.497     4178.649     2187.587     2861.905        2.865        0.461      211.744       35.968        0.029      344.149       20.760      858.793
08/25/2014  09:32:00      104.641      112.541      101.932       95.152       82.451       60.260     9053.951     6798.159     3631.264        2.674        0.974      153.673       42.742        0.077      344.498       21.357      858.781
08/25/2014  09:33:00       20.188       18.420       79.611       38.618       76.815       34.264     1491.387     5900.515     1174.034        0.782        0.428       27.329       28.905        1.119      344.843       21.951      858.780
08/25/2014  09:34:00       42.293      103.379        0.430       35.807       68.054       35.498     1282.150     4631.314     1260.095        0.982        0.359      111.695       39.652        0.126      344.293       21.010      858.787
08/25/2014  09:35:00       13.903       93.188        3.682       39.499       54.922       39.919     1560.173     3016.433     1593.544        0.753        0.309       94.219       34.270        0.132      344.621       21.570      858.778
08/25/2014  09:36:00       61.816       84.632       -9.544       39.522       54.273       35.203     1561.978     2945.561     1239.228        0.841        0.287      104.804       33.296        0.101      344.234       20.908      858.776
08/25/2014  09:37:00       -6.934      108.832       -6.301       23.412       49.230       28.271      548.105     2423.566      799.235        0.785        0.189      109.053       19.927        0.033      344.255       20.945      858.769
08/25/2014  09:38:00        7.858       46.547       10.000       36.183       27.521       26.557     1309.204      757.394      705.255        0.255        0.139       47.206       23.880        0.256      344.791       21.859      858.772
08/25/2014  09:39:00       21.368       26.650        8.604       35.445       34.213       32.051     1256.335     1170.550     1027.289        0.235        0.173       34.159       15.146        0.197      344.918       22.078      858.775
08/25/2014  09:40:00      -14.219       49.127      -11.318       24.564       32.162       26.541      603.392     1034.423      704.412        0.254        0.117       51.144       12.126        0.056      344.484       21.336      858.793
08/25/2014  09:41:00       -1.752       -7.783       -7.596       27.050       19.654       19.828      731.680      386.276      393.169        0.082        0.076        7.978        8.220        1.062      344.378       21.154      858.802
08/25/2014  09:42:00       -8.011        6.744        1.523       22.328       36.559       25.868      498.526     1336.584      669.157        0.131        0.125       10.472       13.553        1.675      344.606       21.546      858.804
08/25/2014  09:43:00      -67.936       -1.019      -12.862       32.697       30.730       18.162     1069.067      944.305      329.860        0.356        0.117       67.943       13.758        0.041      344.312       21.041      858.802
08/25/2014  09:44:00      -37.548       18.496       -6.899       39.402       38.627       28.729     1552.480     1492.049      825.382        0.283        0.193       41.857       29.044        0.481      344.257       20.948      858.796
08/25/2014  09:45:00      -33.560       -1.368       27.210       49.540       42.457       34.870     2454.181     1802.572     1215.902        0.367        0.274       33.587       33.591        1.000      344.854       21.968      858.780
08/25/2014  09:46:00     -121.061      -79.096       -0.841       52.678       42.741       28.279     2774.951     1826.765      799.728        1.316        0.270      144.609       19.032        0.017      344.214       20.873      858.772
08/25/2014  09:47:00      -71.218       14.032        4.285       30.774       23.502       21.247      947.025      552.351      451.415        0.362        0.098       72.587       17.925        0.061      344.285       20.996      858.782
08/25/2014  09:48:00      -18.322       -4.976       28.798       48.880       26.446       29.865     2389.243      699.368      891.902        0.258        0.199       18.986       34.855        3.370      345.041       22.288      858.785
08/25/2014  09:49:00       23.745       61.141        4.762       68.857       50.198       36.349     4741.298     2519.814     1321.282        0.645        0.429       65.590       34.582        0.278      344.777       21.837      858.807
08/25/2014  09:50:00       20.261      -15.155       36.789       41.796       66.611       40.166     1746.871     4437.041     1613.290        0.489        0.390       25.302       39.368        2.421      345.547       23.156      858.816
08/25/2014  09:51:00       31.088      -36.607       24.053       77.044       80.106       36.494     5935.755     6416.986     1331.838        0.828        0.684       48.027       31.413        0.428      345.054       22.309      858.815
08/25/2014  09:52:00       81.865       41.989       63.548       66.117       87.002       63.370     4371.428     7569.306     4015.815        1.423        0.798       92.005       58.415        0.403      345.221       22.597      858.827
08/25/2014  09:53:00      178.988      115.043       51.266       97.403       92.441       85.857     9487.414     8545.317     7371.492        3.665        1.270      212.771       70.796        0.111      344.408       21.202      858.816
08/25/2014  09:54:00      212.995      105.235       54.689       86.254       72.293       59.097     7439.714     5226.310     3492.429        3.779        0.808      237.574       45.245        0.036      344.504       21.368      858.814
08/25/2014  09:55:00       47.417       88.903       91.172       60.286       57.140       51.048     3634.417     3264.951     2605.901        1.398        0.475      100.758       45.898        0.208      344.643       21.608      858.835
08/25/2014  09:56:00       41.139       56.233       55.167       59.651       50.394       60.100     3558.299     2539.554     3611.968        0.880        0.485       69.675       32.164        0.213      344.885       22.022      858.831
08/25/2014  09:57:00        1.502       25.136       24.078       31.459       31.009       41.204      989.660      961.532     1697.762        0.243        0.182       25.181       20.708        0.676      344.689       21.688      858.835
08/25/2014  09:58:00       27.587       44.306       42.918       45.591       57.178       40.380     2078.503     3269.342     1630.537        0.577        0.349       52.192       28.116        0.290      344.740       21.772      858.812
08/25/2014  09:59:00       61.780       56.717       14.023       29.463       47.243       32.103      868.084     2231.917     1030.593        0.568        0.207       83.866       25.811        0.095      344.541       21.433      858.817
08/25/2014  10:00:00       29.174       71.990       12.391       23.153       42.359       34.944      536.044     1794.283     1221.054        0.487        0.178       77.677       31.542        0.165      344.668       21.651      858.832
08/25/2014  10:01:00       86.885       68.746       -7.204       37.819       32.870       30.805     1430.276     1080.414      948.917        0.789        0.173      110.793       19.312        0.030      344.518       21.392      858.831
08/25/2014  10:02:00       75.339       57.811        8.628       59.947       37.350       34.085     3593.599     1395.024     1161.754        0.762        0.308       94.964       19.734        0.043      344.839       21.944      858.829
08/25/2014  10:03:00       12.505       15.944       13.255       39.976       31.204       29.716     1598.082      973.712      883.049        0.202        0.173       20.263       22.641        1.248      345.346       22.812      858.834
08/25/2014  10:04:00       32.413       79.400       -3.620       47.129       55.838       32.992     2221.163     3117.889     1088.459        0.690        0.321       85.761       29.199        0.116      344.847       21.956      858.835
08/25/2014  10:05:00       -3.148      186.899      -15.781       47.564       66.235       39.240     2262.360     4387.022     1539.777        2.169        0.409      186.926       42.373        0.051      344.768       21.819      858.844
08/25/2014  10:06:00       -9.026      138.232       -7.886       41.114       74.516       36.913     1690.337     5552.692     1362.594        1.393        0.430      138.527       37.104        0.072      344.978       22.181      858.850
08/25/2014  10:07:00      -29.283       67.046       -2.164       41.981       56.017       25.720     1762.367     3137.908      661.503        0.546        0.278       73.162       15.312        0.044      344.928       22.094      858.860
08/25/2014  10:08:00       39.018       52.536       17.707       63.350       37.832       29.084     4013.286     1431.258      845.873        0.544        0.315       65.441       21.571        0.109      345.371       22.855      858.862
08/25/2014  10:09:00       66.828       94.638        4.882       57.962       65.792       46.418     3359.621     4328.621     2154.609        1.164        0.492      115.855       42.624        0.135      344.811       21.895      858.866
08/25/2014  10:10:00      -19.726      131.316      -11.670       35.712       46.236       28.625     1275.378     2137.729      819.394        1.100        0.212      132.790       25.549        0.037      344.672       21.658      858.876
08/25/2014  10:11:00       -3.218       15.113       32.208       39.219       30.094       20.503     1538.116      905.653      420.376        0.207        0.143       15.452       17.424        1.272      345.320       22.766      858.873
08/25/2014  10:12:00       20.372       53.852       36.087       31.731       43.110       49.391     1006.858     1858.445     2439.488        0.496        0.265       57.577       31.055        0.291      345.268       22.678      858.868
08/25/2014  10:13:00      153.234       93.231       47.897       74.905       44.618       41.879     5610.718     1990.785     1753.867        2.191        0.468      179.367       37.571        0.044      344.624       21.572      858.872
08/25/2014  10:14:00       33.027      -12.805       12.622       26.660       38.337       33.887      710.745     1469.755     1148.360        0.237        0.166       35.423       31.490        0.790      344.781       21.844      858.863
08/25/2014  10:15:00      146.019      100.292       27.118      100.454       69.764       41.877    10090.940     4867.071     1753.687        2.441        0.836      177.144       14.985        0.007      344.720       21.737      858.862
08/25/2014  10:16:00      216.529      104.441       49.889       88.120       60.343       75.809     7765.080     3641.311     5746.952        3.871        0.858      240.401       50.059        0.043      344.864       21.982      858.841
08/25/2014  10:17:00      179.264      111.821       21.933       68.966       51.934       43.771     4756.281     2697.123     1915.914        2.724        0.468      211.281       31.817        0.023      344.525       21.402      858.846
08/25/2014  10:18:00      141.130       97.748       12.350       61.564       60.365       53.968     3790.177     3643.927     2912.520        1.998        0.517      171.675       33.643        0.038      344.823       21.914      858.840
08/25/2014  10:19:00      109.145       83.335        8.710       34.678       36.459       37.267     1202.570     1329.224     1388.793        1.143        0.196      137.322       19.656        0.020      344.606       21.544      858.837
08/25/2014  10:20:00       46.495       34.155        1.731       25.664       22.094       23.660      658.632      488.135      559.775        0.252        0.085       57.692       14.188        0.060      344.748       21.787      858.831
08/25/2014  10:21:00       -7.499      -20.332       -7.392       25.548       29.721       18.304      652.692      883.357      335.044        0.120        0.094       21.671        9.611        0.197      344.885       22.021      858.834
08/25/2014  10:22:00      -15.667      -33.828        4.360       30.366       26.844       16.756      922.097      720.583      280.764        0.167        0.096       37.280        9.167        0.060      345.061       22.322      858.833
08/25/2014  10:23:00        4.055        6.631       13.681       62.264       59.861       30.889     3876.755     3583.386      954.133        0.433        0.421        7.773       22.686        8.518      345.471       23.025      858.846
08/25/2014  10:24:00       87.002        2.935       71.933       91.709      122.340       73.591     8410.607    14967.142     5415.683        2.077        1.440       87.051       82.916        0.907      345.142       22.459      858.832
08/25/2014  10:25:00       69.397       93.612      111.694       68.143       74.745       61.365     4643.523     5586.828     3765.665        2.002        0.700      116.529       65.511        0.316      344.766       21.818      858.843
08/25/2014  10:26:00       76.943      -13.456       25.771       54.614       73.303       51.176     2982.738     5373.271     2619.027        0.887        0.549       78.111       56.557        0.524      344.807       21.889      858.850
08/25/2014  10:27:00       75.183       67.054       68.922       68.375       59.472       55.588     4675.095     3536.884     3090.024        1.310        0.565      100.741       41.825        0.172      344.982       22.188      858.834
08/25/2014  10:28:00        8.017       77.240       -3.584       70.290       32.427       46.223     4940.646     1051.498     2136.590        0.708        0.406       77.655       44.452        0.328      344.679       21.669      858.841
08/25/2014  10:29:00        2.263        9.273       34.461       18.908       23.609       19.078      357.525      557.395      363.987        0.128        0.064        9.545       16.199        2.880      345.876       23.721      858.823
08/25/2014  10:30:00       20.639       37.939       26.627       42.504       33.786       28.477     1806.611     1141.472      810.922        0.317        0.188       43.189       23.980        0.308      345.732       23.472      858.830
08/25/2014  10:31:00       49.242       84.565       -1.136       56.133       89.914       41.645     3150.871     8084.555     1734.318        1.127        0.648       97.858       46.759        0.228      345.154       22.481      858.815
08/25/2014  10:32:00       55.874       52.785        9.262       58.394       51.741       34.729     3409.884     2677.117     1206.099        0.664        0.365       76.865       28.991        0.142      345.380       22.869      858.820
08/25/2014  10:33:00       70.958       74.921       15.207       39.391       33.938       33.783     1551.659     1151.811     1141.292        0.736        0.192      103.190       17.126        0.028      345.310       22.751      858.812
08/25/2014  10:34:00       42.161      100.075       -2.224       48.524       51.068       39.512     2354.588     2607.980     1561.234        0.916        0.326      108.594       30.374        0.078      345.331       22.786      858.818
08/25/2014  10:35:00       73.156       58.644       14.565       68.726       49.428       46.210     4723.268     2443.109     2135.410        0.915        0.465       93.760       30.812        0.108      345.370       22.851      858.812
08/25/2014  10:36:00       45.202       90.322        2.515       50.132       54.207       44.865     2513.250     2938.451     2012.825        0.883        0.373      101.001       28.712        0.081      345.083       22.360      858.822
08/25/2014  10:37:00       94.426       92.470       10.486      138.991       73.922       45.841    19318.565     5464.421     2101.417        2.223        1.344      132.163       51.979        0.155      345.200       22.559      858.823
08/25/2014  10:38:00      154.238      133.833       -6.892       94.143       53.138       41.837     8862.863     2823.671     1750.371        2.759        0.672      204.207       31.847        0.024      345.028       22.263      858.831
08/25/2014  10:39:00      170.927      124.676       29.013       74.115       54.392       51.792     5493.059     2958.490     2682.408        2.837        0.557      211.566       31.252        0.022      344.959       22.146      858.819
08/25/2014  10:40:00      116.915       43.285       27.426       93.578       55.770       43.511     8756.865     3110.309     1893.214        1.502        0.688      124.670       31.675        0.065      345.693       23.406      858.807
08/25/2014  10:41:00      182.264      105.851       38.280       96.473       73.525       68.498     9307.000     5405.989     4692.039        3.264        0.970      210.772       46.901        0.050      345.840       23.656      858.798
08/25/2014  10:42:00      200.350      127.277       17.224      110.706       72.780       62.661    12255.767     5296.898     3926.353        3.905        1.074      237.359       27.312        0.013      345.314       22.754      858.828
08/25/2014  10:43:00       45.671      134.377        5.070       57.136       85.958       53.387     3264.515     7388.715     2850.204        1.683        0.675      141.926       53.837        0.144      345.313       22.752      858.831
08/25/2014  10:44:00       74.975      131.020       -2.123       53.500       69.946       56.787     2862.250     4892.378     3224.758        1.688        0.549      150.955       48.297        0.102      345.202       22.562      858.837
08/25/2014  10:45:00      102.524      108.442        1.892       79.518       55.658       52.897     6323.068     3097.769     2798.103        1.724        0.611      149.234       35.868        0.058      345.169       22.507      858.835
08/25/2014  10:46:00       81.692      137.202      -16.866       58.202       68.013       53.708     3387.453     4625.761     2884.534        1.834        0.545      159.681       48.286        0.091      345.156       22.484      858.840
08/25/2014  10:47:00      118.709       86.428       15.299       58.238       48.614       39.456     3391.722     2363.333     1556.750        1.455        0.366      146.839       31.067        0.045      345.257       22.658      858.837
08/25/2014  10:48:00       84.661       54.353       -4.345       37.512       60.518       41.974     1407.128     3662.406     1761.839        0.848        0.342      100.607       38.935        0.150      344.814       21.902      858.840
08/25/2014  10:49:00      -37.354      103.725      -13.543       52.414       72.572       29.119     2747.195     5266.759      847.922        1.060        0.443      110.246       28.359        0.066      345.128       22.437      858.823
08/25/2014  10:50:00     -220.804       -6.945      -23.061       52.844       59.680       22.286     2792.522     3561.699      496.649        2.809        0.343      220.913       18.431        0.007      344.766       21.814      858.804
08/25/2014  10:51:00      -89.390      -55.287        0.400       86.075       59.398       35.000     7408.827     3528.178     1225.018        1.160        0.608      105.105       38.643        0.135      345.137       22.452      858.799
08/25/2014  10:52:00       58.512       49.500       27.272      100.536       62.409       33.993    10107.544     3894.945     1155.533        1.088        0.758       76.641       39.996        0.272      345.465       23.015      858.813
08/25/2014  10:53:00       63.000       25.588       39.240       75.095       60.354       42.050     5639.226     3642.635     1768.216        0.860        0.553       67.998       34.700        0.260      345.418       22.936      858.827
08/25/2014  10:54:00       61.271       -3.641       37.544       53.582       48.423       53.017     2871.036     2344.743     2810.843        0.660        0.401       61.379       43.282        0.497      345.448       22.985      858.828
08/25/2014  10:55:00       79.300        7.723       46.560       88.077       53.022       51.930     7757.630     2811.369     2696.730        1.089        0.663       79.675       36.570        0.211      345.419       22.936      858.809
08/25/2014  10:56:00       80.156      -92.867       -6.938       46.043       57.728       31.266     2119.970     3332.496      977.557        1.076        0.322      122.676       27.036        0.049      345.157       22.488      858.800
08/25/2014  10:57:00       -3.260       24.522       12.078       32.357       33.492       28.874     1046.965     1121.733      833.706        0.188        0.150       24.738       22.607        0.835      345.436       22.965      858.781
08/25/2014  10:58:00      -21.585      -32.225       -0.551       28.687       35.190       24.350      822.961     1238.346      592.911        0.208        0.133       38.786       26.851        0.479      345.958       23.861      858.772
08/25/2014  10:59:00       30.497       21.401       41.964       66.267       72.845       54.752     4391.295     5306.377     2997.753        0.792        0.635       37.257       50.012        1.802      345.956       23.858      858.768
08/25/2014  11:00:00       23.471       54.381      122.985       66.906       82.317       79.388     4476.442     6776.149     6302.394        1.809        0.878       59.230       76.359        1.662      345.625       23.288      858.760
08/25/2014  11:01:00       29.562      -36.713       22.592       28.840       53.442       40.848      831.731     2856.026     1668.562        0.404        0.268       47.135       36.124        0.587      345.611       23.266      858.759
08/25/2014  11:02:00       39.640      -31.416       24.030       49.985       57.084       35.153     2498.491     3258.638     1235.710        0.506        0.350       50.579       33.083        0.428      345.698       23.415      858.744
08/25/2014  11:03:00      -73.629      -56.896       11.446       85.762       46.633       32.015     7355.117     2174.613     1024.979        0.967        0.528       93.050       40.081        0.186      345.831       23.644      858.735
08/25/2014  11:04:00     -128.615      -27.679       -1.112       84.987       71.933       33.297     7222.826     5174.383     1108.665        1.540        0.675      131.560       42.512        0.104      345.705       23.427      858.719
08/25/2014  11:05:00      -67.899      -23.484       21.068       74.462       60.442       30.366     5544.542     3653.211      922.067        0.786        0.506       71.845       33.257        0.214      345.930       23.813      858.717
08/25/2014  11:06:00      -94.530      -61.099        2.145       63.742       50.243       29.586     4062.997     2524.395      875.340        1.007        0.373      112.557       30.711        0.074      345.305       22.740      858.731
08/25/2014  11:07:00      -30.923      -49.859        4.766       22.295       25.728       16.986      497.053      661.929      288.515        0.246        0.072       58.670       15.430        0.069      345.248       22.644      858.741
08/25/2014  11:08:00      -19.616      -10.388       -4.356       28.645       17.537       22.416      820.527      307.533      502.464        0.107        0.082       22.196       19.313        0.757      345.612       23.267      858.747
08/25/2014  11:09:00      -18.605        1.405       21.551       19.889       11.277       30.338      395.554      127.180      920.398        0.113        0.072       18.658       20.174        1.169      346.487       24.770      858.750
08/25/2014  11:10:00       51.521       48.784       21.740       65.890       41.388       63.656     4341.444     1712.952     4052.065        0.780        0.505       70.953       47.070        0.440      346.167       24.221      858.753
08/25/2014  11:11:00      152.140       93.727       -5.030      137.747       67.232       53.256    18974.305     4520.176     2836.180        2.914        1.317      178.693       25.751        0.021      345.299       22.729      858.743
08/25/2014  11:12:00       90.778      108.568       74.945       90.048       60.092       72.059     8108.669     3611.043     5192.452        2.127        0.846      141.519       45.982        0.106      345.774       23.543      858.731
08/25/2014  11:13:00       96.133      110.620       50.573       77.429       60.170       56.769     5995.295     3620.431     3222.755        1.843        0.642      146.555       43.865        0.090      345.552       23.164      858.741
08/25/2014  11:14:00       71.977       92.879        5.957       44.767       53.023       42.083     2004.094     2811.464     1770.961        1.021        0.329      117.505       37.336        0.101      345.452       22.992      858.745
08/25/2014  11:15:00       15.692       51.836       13.576       28.814       52.959       29.728      830.226     2804.662      883.773        0.382        0.226       54.159       31.442        0.337      345.847       23.670      858.732
08/25/2014  11:16:00       50.867       35.456       42.192       57.297       54.489       39.339     3282.993     2969.036     1547.540        0.671        0.390       62.005       27.524        0.197      345.898       23.757      858.745
08/25/2014  11:17:00       99.000      114.447      100.845       90.909       56.942       73.341     8264.454     3242.345     5378.863        2.497        0.844      151.325       71.974        0.226      345.388       22.882      858.763
08/25/2014  11:18:00       52.654       72.594      -25.086       51.629       52.491       49.971     2665.585     2755.267     2497.062        0.829        0.396       89.679       36.116        0.162      345.157       22.486      858.774
08/25/2014  11:19:00       20.986       -2.243       36.484       70.166       92.250       42.971     4923.231     8510.054     1846.517        0.853        0.764       21.106       33.979        2.592      345.786       23.565      858.745
08/25/2014  11:20:00      125.843      136.672      106.788      111.443       75.344       71.062    12419.629     5676.765     5049.750        3.453        1.157      185.784       71.601        0.149      345.625       23.288      858.751
08/25/2014  11:21:00       70.345       73.704       13.826       52.834       40.859       38.478     2791.431     1669.479     1480.528        0.826        0.297      101.885       26.907        0.070      345.623       23.286      858.757
08/25/2014  11:22:00       79.738       58.184        2.122       62.048       34.684       30.609     3850.008     1202.995      936.934        0.787        0.299       98.709       20.466        0.043      345.786       23.566      858.757
08/25/2014  11:23:00       82.403       80.731        9.194       71.527       79.606       47.836     5116.044     6337.175     2288.253        1.356        0.687      115.359       39.304        0.116      345.908       23.773      858.741
08/25/2014  11:24:00      129.270      135.479       -5.963       94.678       84.963       57.284     8963.956     7218.753     3281.495        2.728        0.973      187.257       39.270        0.044      345.365       22.840      858.755
08/25/2014  11:25:00      101.700      -35.102       19.857       63.969       41.090       35.223     4092.017     1688.392     1240.640        0.949        0.351      107.588       23.266        0.047      345.370       22.851      858.766
08/25/2014  11:26:00       36.440      -78.789       -0.218       69.497       50.995       32.589     4829.829     2600.515     1062.020        0.801        0.425       86.808       26.785        0.095      345.681       23.384      858.738
08/25/2014  11:27:00      -99.174      -48.046      -17.164       65.174       41.836       24.593     4247.668     1750.274      604.818        0.952        0.330      110.199       21.788        0.039      345.345       22.809      858.729
08/25/2014  11:28:00     -124.258      -74.400        1.057       63.673       45.322       37.014     4054.199     2054.096     1370.021        1.423        0.374      144.829       26.533        0.034      345.593       23.234      858.714
08/25/2014  11:29:00     -140.934     -101.199       -2.441       79.469       64.396       38.140     6315.381     4146.810     1454.696        2.101        0.596      173.504       37.820        0.048      345.640       23.313      858.710
08/25/2014  11:30:00     -183.066      -34.042      -10.686       82.853       61.232       30.426     6864.665     3749.398      925.722        2.316        0.577      186.204       24.629        0.017      345.284       22.703      858.700
08/25/2014  11:31:00     -181.211       10.587       -0.029       75.472       48.796       30.447     5696.082     2381.045      927.044        2.098        0.450      181.520       35.674        0.039      345.513       23.095      858.694
08/25/2014  11:32:00     -151.289       12.373      -11.524       58.785       49.995       31.648     3455.661     2499.498     1001.595        1.506        0.348      151.794       33.341        0.048      345.573       23.200      858.686
08/25/2014  11:33:00     -127.007       48.302       -7.878       57.313       50.063       32.739     3284.820     2506.305     1071.811        1.269        0.343      135.882       26.708        0.039      345.488       23.055      858.697
08/25/2014  11:34:00      -45.918       85.869        2.948       60.399       60.293       41.066     3648.015     3635.306     1686.383        0.923        0.448       97.375       43.314        0.198      345.894       23.752      858.696
08/25/2014  11:35:00      -32.790      164.813      -12.735       38.411       64.848       37.042     1475.428     4205.317     1372.096        1.773        0.353      168.043       40.745        0.059      345.601       23.245      858.707
08/25/2014  11:36:00       -1.885       79.407       14.724       38.995       68.792       30.132     1520.588     4732.326      907.938        0.684        0.358       79.429       38.812        0.239      346.041       24.004      858.701
08/25/2014  11:37:00       11.465       68.987       15.700       46.179       61.865       35.231     2132.495     3827.231     1241.229        0.617        0.360       69.933       41.347        0.350      345.997       23.928      858.687
08/25/2014  11:38:00       49.637       64.800       35.305       47.847       46.545       46.104     2289.313     2166.405     2125.624        0.724        0.329       81.627       24.384        0.089      345.793       23.578      858.668
08/25/2014  11:39:00      145.349       81.775       18.080       52.205       53.887       41.793     2725.387     2903.789     1746.637        1.776        0.369      166.774       29.754        0.032      345.400       22.902      858.668
08/25/2014  11:40:00       89.777      108.040       -4.041       56.453       51.254       37.930     3186.975     2626.968     1438.700        1.350        0.363      140.473       28.950        0.042      345.476       23.034      858.668
08/25/2014  11:41:00        9.095      143.048       -9.639       36.401       68.975       36.923     1325.051     4757.497     1363.292        1.404        0.372      143.337       40.707        0.081      345.628       23.293      858.633
08/25/2014  11:42:00      149.459       81.221       28.113       79.345       61.563       49.432     6295.693     3790.017     2443.478        2.112        0.626      170.103       28.473        0.028      345.723       23.455      858.602
08/25/2014  11:43:00       88.358       28.915       28.396       57.450       61.541       47.475     3300.547     3787.268     2253.914        0.939        0.467       92.969       39.130        0.177      346.234       24.334      858.580
08/25/2014  11:44:00       10.552      -33.320       14.348       44.629       82.369       39.342     1991.709     6784.722     1547.816        0.587        0.516       34.951       47.216        1.825      346.607       24.977      858.552
08/25/2014  11:45:00       26.347       -5.043       89.015       69.314       83.539       68.610     4804.448     6978.777     4707.318        1.256        0.825       26.826       42.757        2.540      346.586       24.939      858.512
08/25/2014  11:46:00       45.453      -21.074       29.220       52.610       59.577       36.924     2767.841     3549.382     1363.349        0.552        0.384       50.101       36.445        0.529      346.368       24.565      858.511
08/25/2014  11:47:00       86.114     -147.172      -20.234       68.962       76.930       44.739     4755.697     5918.171     2001.564        2.108        0.634      170.515       33.888        0.039      345.851       23.676      858.479
08/25/2014  11:48:00       32.631     -119.468        1.642       49.533       90.012       53.574     2453.532     8102.177     2870.147        1.438        0.671      123.844       55.511        0.201      345.906       23.772      858.447
08/25/2014  11:49:00       11.621       -5.974       42.996       42.705       80.959       33.961     1823.735     6554.280     1153.318        0.577        0.477       13.067       36.700        7.888      346.365       24.561      858.415
08/25/2014  11:50:00       82.504      125.893      130.228       55.361       65.308       49.667     3064.787     4265.158     2466.808        2.470        0.490      150.519       43.288        0.083      346.113       24.125      858.403
08/25/2014  11:51:00       91.867      137.474      157.440      126.002      116.255       97.805    15876.549    13515.308     9565.739        4.553        1.948      165.344       90.026        0.296      346.137       24.167      858.409
08/25/2014  11:52:00        8.098      -51.514       12.829       57.917       63.574       38.650     3354.430     4041.656     1493.799        0.589        0.444       52.146       28.098        0.290      345.705       23.425      858.434
08/25/2014  11:53:00      -64.153      -47.421       14.711       94.115       73.415       49.329     8857.678     5389.707     2433.377        1.163        0.834       79.777       33.525        0.177      345.971       23.882      858.394
08/25/2014  11:54:00      -88.668     -100.811        5.624       63.427       78.897       34.674     4022.962     6224.812     1202.263        1.475        0.573      134.257       31.853        0.056      345.765       23.528      858.376
08/25/2014  11:55:00      -46.902      -28.677        8.157       62.250       69.218       33.001     3875.051     4791.194     1089.044        0.642        0.488       54.974       37.798        0.473      346.002       23.938      858.381
08/25/2014  11:56:00      118.465      104.123       89.750       91.404       77.334       77.463     8354.679     5980.572     6000.550        2.663        1.017      157.720       54.833        0.121      346.322       24.484      858.378
08/25/2014  11:57:00       64.664      -34.749       28.008      100.471      112.396       62.039    10094.499    12632.910     3848.894        1.637        1.329       73.409       61.831        0.709      346.092       24.090      858.375
08/25/2014  11:58:00       70.894       -4.870       50.812       48.306      114.057       82.629     2333.449    13008.965     6827.601        1.490        1.109       71.061       87.690        1.523      346.005       23.942      858.385
08/25/2014  11:59:00       61.895     -144.471      -19.509       63.591       70.759       36.186     4043.765     5006.898     1309.403        1.772        0.518      157.172       35.462        0.051      346.008       23.946      858.365
08/25/2014  12:00:00      118.184     -133.300       -1.832      115.093      108.370       71.936    13246.466    11743.977     5174.737        3.095        1.508      178.147       71.340        0.160      346.152       24.192      858.358
08/25/2014  12:01:00      126.437       22.627       92.244      111.503      141.834       99.232    12432.939    20116.841     9846.985        3.369        2.120      128.446      112.408        0.766      346.258       24.375      858.358
08/25/2014  12:02:00      116.686      137.044      186.657      148.298      161.225      111.985    21992.272    25993.456    12540.629        6.387        3.026      179.991      131.338        0.532      346.256       24.370      858.336
08/25/2014  12:03:00       21.497      -46.083       68.944      100.032      121.601       70.614    10006.426    14786.756     4986.331        1.855        1.489       50.851       75.015        2.176      346.756       25.231      858.342
08/25/2014  12:04:00      170.678     -205.031       -8.310       88.351      120.407       56.542     7805.877    14497.921     3196.958        4.836        1.275      266.775       71.670        0.072      345.870       23.707      858.355
08/25/2014  12:05:00       84.827       30.523       94.495       89.102      100.114       78.489     7939.085    10022.799     6160.590        2.058        1.206       90.152       82.924        0.846      346.658       25.062      858.346
08/25/2014  12:06:00      132.163     -127.907       39.202      122.205      166.686       97.637    14934.101    27784.176     9532.943        4.380        2.613      183.922      105.768        0.331      346.526       24.833      858.327
08/25/2014  12:07:00       92.180       23.533       66.050       99.276      105.494       75.692     9855.792    11128.919     5729.221        2.006        1.336       95.137       56.097        0.348      346.479       24.756      858.351
08/25/2014  12:08:00      162.806       99.877       28.380       56.560       54.191       52.710     3199.057     2936.696     2778.329        2.310        0.446      191.001       29.898        0.025      345.865       23.699      858.356
08/25/2014  12:09:00      313.381      152.014       64.111      135.707      111.517       84.990    18416.467    12436.034     7223.252        8.174        1.904      348.304       66.622        0.037      345.933       23.815      858.331
08/25/2014  12:10:00      291.846      143.216       21.464      104.933       72.920       60.930    11010.850     5317.380     3712.422        6.309        1.002      325.092       24.234        0.006      345.785       23.559      858.338
08/25/2014  12:11:00       31.106       30.505       -8.148       33.925       38.073       29.776     1150.873     1449.578      886.595        0.273        0.174       43.568        8.969        0.042      345.690       23.401      858.341
08/25/2014  12:12:00        2.887        3.434       -6.857       25.817       17.378       23.304      666.530      301.998      543.094        0.079        0.076        4.486       13.311        8.805      346.185       24.250      858.283
08/25/2014  12:13:00       18.141      116.230        5.379       51.709      100.320       36.285     2673.817    10064.033     1316.624        1.396        0.703      117.637       44.886        0.146      346.251       24.364      858.268
08/25/2014  12:14:00       22.141       24.254       11.391       30.277       28.707       32.167      916.673      824.107     1034.720        0.199        0.139       32.840       20.260        0.381      346.547       24.873      858.275
08/25/2014  12:15:00        8.133      -23.978       29.421       55.850       62.331       44.397     3119.194     3885.172     1971.090        0.524        0.449       25.320       41.790        2.724      346.498       24.790      858.265
08/25/2014  12:16:00      123.608       39.274       70.810       87.592       66.529       52.506     7672.349     4426.159     2756.844        1.834        0.743      129.697       41.495        0.102      346.504       24.799      858.232
08/25/2014  12:17:00       42.642      101.525      126.170       73.394       70.381       56.846     5386.676     4953.546     3231.411        2.081        0.679      110.116       57.377        0.272      346.626       25.007      858.215
08/25/2014  12:18:00       68.827       56.168      133.420       93.448      198.442      117.413     8732.467    39379.312    13785.739        4.378        3.095       88.837      145.511        2.683      346.637       25.026      858.202
08/25/2014  12:19:00      101.166       56.728      111.435      123.688      125.932       79.561    15298.745    15858.768     6329.998        3.167        1.874      115.986       91.427        0.621      346.545       24.869      858.219
08/25/2014  12:20:00      133.348      -15.810       53.468      120.260      149.829       95.221    14462.388    22448.681     9066.984        3.343        2.299      134.282      103.339        0.592      346.434       24.677      858.219
08/25/2014  12:21:00       67.380       69.122      139.951       96.449      196.703      132.706     9302.373    38692.261    17611.003        4.724        3.280       96.530      157.102        2.649      346.606       24.972      858.211
08/25/2014  12:22:00       38.051       47.087       60.023      111.097       99.199       89.228    12342.616     9840.363     7961.618        1.870        1.507       60.540       75.049        1.537      346.432       24.675      858.230
08/25/2014  12:23:00       78.785       77.858       43.199       90.947       59.607       51.986     8271.408     3553.035     2702.569        1.433        0.726      110.765       55.611        0.252      346.567       24.907      858.225
08/25/2014  12:24:00      124.306      118.276       96.946      147.363       83.188       90.338    21715.806     6920.229     8160.995        3.781        1.840      171.585       91.051        0.282      346.632       25.016      858.230
08/25/2014  12:25:00       99.804       98.279       31.348       85.195       89.077       52.638     7258.231     7934.630     2770.710        1.928        0.898      140.070       34.387        0.060      346.222       24.312      858.220
08/25/2014  12:26:00      176.992       51.391       48.416      109.477       96.268       87.809    11985.164     9267.444     7710.481        3.263        1.448      184.302       65.052        0.125      346.203       24.279      858.231
08/25/2014  12:27:00      125.137       87.497       89.098      108.100      103.538      107.194    11685.586    10720.165    11490.456        3.257        1.695      152.692       95.255        0.389      346.031       23.983      858.222
08/25/2014  12:28:00      146.287      101.348       13.888       80.656       64.092       46.736     6505.390     4107.763     2184.236        2.233        0.640      177.964       25.563        0.021      346.040       24.001      858.211
08/25/2014  12:29:00      277.672      171.158       38.478       71.041       70.351       57.333     5046.805     4949.310     3287.031        6.058        0.664      326.185       42.973        0.017      345.929       23.807      858.217
08/25/2014  12:30:00      152.324      109.036       27.105       87.307       73.370       57.384     7622.590     5383.206     3292.887        2.606        0.815      187.327       42.523        0.052      346.201       24.275      858.214
08/25/2014  12:31:00      131.118      106.857       36.945       72.905       65.113       40.356     5315.096     4239.743     1628.616        2.058        0.559      169.146       25.375        0.023      346.299       24.445      858.199
08/25/2014  12:32:00      104.520      111.654       17.025       98.712       98.678       72.044     9744.029     9737.397     5190.368        2.417        1.234      152.941       63.079        0.170      346.323       24.486      858.195
08/25/2014  12:33:00      148.161      149.127       11.883      108.438       78.234       57.895    11758.887     6120.620     3351.779        3.278        1.062      210.216       52.322        0.062      345.962       23.864      858.195
08/25/2014  12:34:00      173.190      137.190       20.982      107.317       64.212       79.285    11516.995     4123.147     6286.139        3.559        1.096      220.944       49.195        0.050      346.247       24.354      858.194
08/25/2014  12:35:00      261.561      140.224       18.782      129.911       73.439       62.434    16876.951     5393.249     3898.024        5.729        1.308      296.778       48.334        0.027      346.134       24.160      858.178
08/25/2014  12:36:00      168.780      130.434       38.778      139.022       70.431       62.997    19327.035     4960.540     3968.652        3.762        1.413      213.306       46.927        0.048      346.119       24.135      858.199
08/25/2014  12:37:00      191.026      129.571       23.567      102.979       85.255       60.597    10604.741     7268.437     3671.992        3.769        1.077      230.823       48.905        0.045      346.188       24.253      858.204
08/25/2014  12:38:00      146.743      235.530      -16.718      131.819       93.528       77.120    17376.162     8747.395     5947.432        5.467        1.604      277.503       60.602        0.048      345.852       23.677      858.221
08/25/2014  12:39:00      118.212      132.404        6.695      143.125       80.728       54.178    20484.797     6517.064     2935.292        3.074        1.497      177.496       40.337        0.052      346.045       24.008      858.225
08/25/2014  12:40:00      243.376       98.173       30.968      112.546       89.017       94.353    12666.571     7923.975     8902.511        4.966        1.475      262.431       54.395        0.043      345.932       23.812      858.230
08/25/2014  12:41:00      103.957       86.169       17.689       68.999       40.712       39.404     4760.795     1657.489     1552.689        1.326        0.399      135.027       29.072        0.046      345.934       23.821      858.260
08/25/2014  12:42:00       -3.973        0.283       -8.644       31.348       46.038       45.769      982.719     2119.467     2094.814        0.264        0.260        3.983       37.417       88.258      345.853       23.681      858.250
08/25/2014  12:43:00        4.396       27.628       59.901       47.534       49.494       38.852     2259.528     2449.686     1509.488        0.529        0.311       27.975       39.872        2.031      346.497       24.788      858.239
08/25/2014  12:44:00      102.224       83.009       85.222       92.411       75.567       68.393     8539.751     5710.402     4677.641        2.176        0.946      131.682       64.612        0.241      346.104       24.109      858.234
08/25/2014  12:45:00      129.267       99.860       66.445      106.418       91.787       86.876    11324.718     8424.917     7547.360        2.919        1.365      163.346       66.338        0.165      346.141       24.172      858.232
08/25/2014  12:46:00      124.492      103.200       79.842       77.517       69.305       56.718     6008.948     4803.180     3216.955        2.327        0.701      161.705       45.793        0.080      346.220       24.310      858.251
08/25/2014  12:47:00       83.291       50.459       61.486       52.508       50.431       44.550     2757.083     2543.295     1984.665        1.027        0.364       97.383       35.311        0.131      345.980       23.898      858.267
08/25/2014  12:48:00       77.548       55.188       21.116       33.502       23.784       29.002     1122.351      565.698      841.105        0.602        0.126       95.181       19.124        0.040      345.910       23.777      858.265
08/25/2014  12:49:00        7.909       32.127       48.250       31.631       30.098       16.674     1000.551      905.862      278.034        0.280        0.109       33.086       12.124        0.134      346.321       24.485      858.277
08/25/2014  12:50:00      -18.137      -17.243        2.071       21.642       30.630       26.186      468.377      938.198      685.732        0.136        0.105       25.026       17.591        0.494      346.179       24.240      858.291
08/25/2014  12:51:00      -13.989        8.292        6.988       25.457       21.719       23.727      648.046      471.702      562.965        0.100        0.084       16.262       13.002        0.639      346.145       24.183      858.291
08/25/2014  12:52:00     -103.205       21.910      -10.076       46.498       45.567       21.562     2162.056     2076.330      464.925        0.797        0.235      105.505       21.535        0.042      345.855       23.684      858.300
08/25/2014  12:53:00      -66.365        5.051      -13.831       33.926       38.696       16.267     1150.973     1497.419      264.608        0.377        0.146       66.557        6.812        0.010      345.750       23.502      858.310
08/25/2014  12:54:00     -105.799        1.570      -13.366       64.049       39.979       30.704     4102.239     1598.308      942.733        0.901        0.332      105.811       35.598        0.113      345.803       23.593      858.329
08/25/2014  12:55:00      -45.746      -41.648       -4.906       41.726       43.883       28.634     1741.057     1925.748      819.911        0.417        0.224       61.865        6.003        0.009      345.824       23.631      858.329
08/25/2014  12:56:00     -112.410      -27.955        2.471       61.001       48.080       23.567     3721.074     2311.685      555.410        1.000        0.329      115.834       19.167        0.027      345.919       23.795      858.336
08/25/2014  12:57:00     -227.471      -18.112       -0.951      197.395      112.842       67.740    38964.819    12733.327     4588.748        5.417        2.814      228.191       87.303        0.146      345.811       23.607      858.374
08/25/2014  12:58:00     -327.484      -38.327       -4.509      271.761      150.063       83.083    73853.958    22518.781     6902.748       10.599        5.164      329.720      116.014        0.124      345.594       23.233      858.264
08/25/2014  12:59:00     -389.555      262.441      -68.617      212.557      260.327      110.732    45180.478    67770.135    12261.481       17.525        6.261      469.711      124.211        0.070      345.346       22.807      858.373
08/25/2014  13:00:00     -214.406      271.840      -29.849      140.701      157.310       83.859    19796.801    24746.490     7032.383        8.616        2.579      346.218       76.414        0.049      345.355       22.822      858.414
08/25/2014  13:01:00     -237.677      102.712      -51.339      172.484      166.179       92.207    29750.774    27615.430     8502.157        6.776        3.293      258.921       90.779        0.123      345.167       22.501      858.373
08/25/2014  13:02:00     -178.724       63.783      -25.970      132.763      107.580       79.014    17625.978    11573.525     6243.158        3.606        1.772      189.764       82.099        0.187      345.209       22.574      858.362
08/25/2014  13:03:00     -151.031      127.313      -43.463      105.345      224.914       71.325    11097.639    50586.252     5087.243        5.383        3.339      197.532       45.864        0.054      345.195       22.549      858.329
08/25/2014  13:04:00     -272.314      405.350      -49.319      178.162      212.566       97.814    31741.705    45184.223     9567.568       16.368        4.325      488.327       91.631        0.035      344.991       22.200      858.348
08/25/2014  13:05:00     -235.889      343.296      -52.218      120.974      159.847       74.158    14634.740    25551.017     5499.437       11.094        2.284      416.528       65.573        0.025      345.063       22.322      858.340
08/25/2014  13:06:00     -283.504      288.871      -49.287      155.195      166.708       85.040    24085.575    27791.562     7231.878       11.267        2.955      404.748       78.578        0.038      345.070       22.335      858.362
08/25/2014  13:07:00     -188.370      259.239      -37.900      102.751      147.653       65.538    10557.750    21801.281     4295.242        7.038        1.833      320.450       52.846        0.027      345.146       22.464      858.382
08/25/2014  13:08:00     -152.139      244.733      -21.626       96.153      175.746       64.946     9245.486    30886.509     4218.009        6.392        2.218      288.168       75.891        0.069      345.226       22.602      858.352
08/25/2014  13:09:00     -213.369      241.052      -32.860      117.410      128.346       71.245    13785.158    16472.805     5075.916        7.002        1.767      321.920       59.242        0.034      345.269       22.674      858.336
08/25/2014  13:10:00     -119.566      205.007      -15.212      131.016      112.467       78.906    17165.307    12648.765     6226.111        4.629        1.802      237.326       68.977        0.084      345.469       23.017      858.305
08/25/2014  13:11:00       82.526      175.151        6.702      104.230      105.216       68.906    10863.813    11070.325     4747.995        3.210        1.334      193.619       53.991        0.078      345.630       23.294      858.303
08/25/2014  13:12:00      258.033      168.687       13.343       93.283       83.655       73.131     8701.640     6998.168     5348.172        5.813        1.052      308.279       53.021        0.030      345.546       23.150      858.286
08/25/2014  13:13:00      269.766      146.451       19.240      144.385      108.365       78.762    20846.975    11743.013     6203.448        6.668        1.940      306.955       30.590        0.010      345.597       23.237      858.276
08/25/2014  13:14:00      210.661      146.119      -11.486      131.410      140.398      101.065    17268.567    19711.658    10214.036        5.652        2.360      256.376       81.983        0.102      345.667       23.358      858.266
08/25/2014  13:15:00      225.361      139.597       55.796      122.205       89.586       83.810    14933.982     8025.695     7024.178        5.168        1.499      265.094       63.964        0.058      345.751       23.502      858.298
08/25/2014  13:16:00      288.450      177.918       49.149      110.733       98.801       79.519    12261.886     9761.661     6323.207        7.280        1.417      338.908       49.806        0.022      345.733       23.471      858.320
08/25/2014  13:17:00      277.523      216.514       30.756      124.967      100.328       86.894    15616.651    10065.672     7550.571        7.903        1.662      351.991       62.165        0.031      345.539       23.136      858.342
08/25/2014  13:18:00      130.855      138.768        5.151      103.837       86.370       49.658    10782.139     7459.774     2465.915        2.855        1.035      190.734       37.575        0.039      345.597       23.239      858.353
08/25/2014  13:19:00       98.689       92.066        3.648       91.423       65.942       42.359     8358.160     4348.376     1794.290        1.636        0.725      134.966       34.054        0.064      345.834       23.647      858.331
08/25/2014  13:20:00      122.561      157.807        4.288      110.564       94.922       72.462    12224.419     9010.239     5250.761        3.321        1.324      199.810       63.060        0.100      345.833       23.642      858.340
08/25/2014  13:21:00      112.787       97.474       30.010      144.252      128.839       69.772    20808.739    16599.396     4868.080        3.269        2.114      149.070       62.430        0.175      345.842       23.660      858.321
08/25/2014  13:22:00      153.658      136.597       17.632      123.613       94.118       63.532    15280.072     8858.129     4036.322        3.537        1.409      205.595       43.216        0.044      346.107       24.115      858.335
08/25/2014  13:23:00      125.866      199.559       32.598      142.309      167.759      108.469    20251.924    28142.987    11765.608        5.843        3.008      235.937       94.009        0.159      346.009       23.946      858.332
08/25/2014  13:24:00      159.276      208.648       20.707      149.954      136.638      117.603    22486.154    18670.065    13830.400        6.215        2.749      262.493       93.895        0.128      345.429       22.948      858.323
08/25/2014  13:25:00      331.152      230.459        8.030      135.052       82.857       78.040    18239.099     6865.249     6090.241        9.701        1.560      403.451       41.268        0.010      345.255       22.650      858.304
08/25/2014  13:26:00      273.648      259.716       22.727      171.516      140.555       98.872    29417.867    19755.725     9775.757       10.089        2.947      377.274       72.642        0.037      345.484       23.044      858.264
08/25/2014  13:27:00      381.555      219.106       45.354      225.771      135.306      101.515    50972.737    18307.843    10305.260       13.760        3.979      439.990       63.464        0.021      345.359       22.828      858.273
08/25/2014  13:28:00      166.299      142.587       59.074      147.258      114.210       82.470    21684.904    13043.948     6801.377        4.650        2.077      219.058       75.538        0.119      345.361       22.833      858.306
08/25/2014  13:29:00      211.473      155.698       32.702      107.151       98.599       88.896    11481.412     9721.838     7902.422        4.956        1.455      262.608       51.950        0.039      345.467       23.013      858.292
08/25/2014  13:30:00       75.353      148.478        5.260       85.489       95.069       81.455     7308.421     9038.086     6634.879        2.536        1.149      166.505       58.948        0.125      345.451       22.988      858.310
08/25/2014  13:31:00       68.016       98.690       19.325       72.365       60.127       46.588     5236.652     3615.204     2170.418        1.288        0.551      119.858       37.539        0.098      345.589       23.227      858.280
08/25/2014  13:32:00       -3.825      135.320      -11.365       35.612       71.941       42.839     1268.224     5175.468     1835.211        1.337        0.414      135.375       36.565        0.073      345.732       23.472      858.266
08/25/2014  13:33:00      -50.869       97.580      -16.906       39.124       53.630       21.373     1530.667     2876.129      456.810        0.863        0.243      110.043       21.569        0.038      345.630       23.299      858.243
08/25/2014  13:34:00        3.064      181.804      -15.529       40.140       67.338       38.117     1611.188     4534.472     1452.938        2.045        0.380      181.830       43.004        0.056      345.644       23.320      858.227
08/25/2014  13:35:00     -114.972      189.554      -18.283       59.560       96.206       48.301     3547.342     9255.542     2332.955        3.231        0.757      221.696       43.341        0.038      345.850       23.673      858.222
08/25/2014  13:36:00      -70.488      254.011      -24.712       56.575       75.958       35.098     3200.679     5769.550     1231.843        4.015        0.510      263.610       32.197        0.015      345.769       23.533      858.221
08/25/2014  13:37:00      -31.949      221.667      -38.651       34.536       52.455       21.964     1192.707     2751.524      482.410        2.804        0.221      223.957        9.494        0.002      345.558       23.172      858.228
08/25/2014  13:38:00      -18.387       87.690        4.697       37.662       60.551       34.626     1418.393     3666.450     1198.975        0.717        0.314       89.597       31.410        0.123      346.015       23.958      858.242
08/25/2014  13:39:00      -37.428      146.253      -16.387       47.906       62.341       29.974     2295.019     3886.437      898.461        1.507        0.354      150.966       31.788        0.044      345.925       23.802      858.261
08/25/2014  13:40:00      -64.359      129.240      -13.881       55.594       58.547       40.925     3090.642     3427.729     1674.836        1.461        0.410      144.378       33.428        0.054      345.767       23.533      858.287
08/25/2014  13:41:00      -51.230      205.039      -19.059       79.351       68.558       47.644     6296.604     4700.194     2269.979        2.915        0.663      211.342       45.426        0.046      345.619       23.275      858.307
08/25/2014  13:42:00      -60.183      108.156       -3.393       57.462       76.500       41.829     3301.865     5852.298     1749.625        1.312        0.545      123.772       39.454        0.102      345.684       23.388      858.320
08/25/2014  13:43:00       62.071      100.115       -5.977       70.661       59.672       36.566     4992.923     3560.722     1337.073        1.190        0.495      117.796       31.157        0.070      345.709       23.432      858.329
08/25/2014  13:44:00       73.134      132.660       -9.216       69.016       72.479       42.180     4763.147     5253.191     1779.135        1.741        0.590      151.484       39.298        0.067      345.515       23.099      858.342
08/25/2014  13:45:00       81.259       82.504        9.707       51.902       55.716       49.209     2693.790     3104.248     2421.567        1.086        0.411      115.801       40.260        0.121      345.491       23.060      858.355
08/25/2014  13:46:00       52.595      146.678       -5.583       55.566       77.111       48.796     3087.628     5946.176     2381.073        1.786        0.571      155.822       44.053        0.080      345.479       23.036      858.369
08/25/2014  13:47:00      116.112       97.682       10.787       52.852       44.880       51.660     2793.358     2014.237     2668.749        1.531        0.374      151.736       33.499        0.049      345.482       23.043      858.384
08/25/2014  13:48:00       67.268       53.980       29.205       43.306       32.875       31.801     1875.383     1080.780     1011.290        0.613        0.198       86.248       27.201        0.099      345.590       23.228      858.393
08/25/2014  13:49:00       29.790       29.889       15.263       21.003       29.602       25.556      441.136      876.289      653.119        0.199        0.099       42.199       14.469        0.118      345.672       23.370      858.428
08/25/2014  13:50:00       17.986       39.201       23.264       24.861       24.087       19.993      618.083      580.202      399.712        0.200        0.080       43.130       12.871        0.089      345.690       23.399      858.444
08/25/2014  13:51:00      -55.829       39.941      -18.257       27.922       35.267       15.960      779.657     1243.745      254.725        0.366        0.114       68.645       15.311        0.050      345.595       23.238      858.463
08/25/2014  13:52:00        2.194       80.781      -13.839       33.621       25.780       20.933     1130.363      664.604      438.176        0.448        0.112       80.811       11.732        0.021      345.712       23.440      858.479
08/25/2014  13:53:00      -26.547       33.084        4.244       18.295       28.981       18.172      334.706      839.895      330.227        0.166        0.075       42.418       18.400        0.188      345.864       23.699      858.491
08/25/2014  13:54:00        1.154       12.516       20.804        9.928       13.632        8.782       98.573      185.826       77.127        0.048        0.018       12.569        2.635        0.044      346.102       24.107      858.490
08/25/2014  13:55:00      -18.647       -3.131       13.445       30.109       16.313       17.950      906.542      266.121      322.205        0.102        0.075       18.908       18.787        0.987      345.973       23.886      858.492
08/25/2014  13:56:00      -69.323      -19.320       -4.104       15.285       18.485       13.698      233.630      341.711      187.627        0.298        0.038       71.965        7.521        0.011      345.719       23.449      858.502
08/25/2014  13:57:00        1.469      -14.490       16.364       27.646       31.661       18.583      764.289     1002.440      345.345        0.130        0.106       14.564       14.283        0.962      345.928       23.810      858.514
08/25/2014  13:58:00      -84.303      -30.058       -6.059       60.706       40.392       29.193     3685.238     1631.529      852.216        0.711        0.308       89.501       26.147        0.085      345.616       23.273      858.528
08/25/2014  13:59:00      -85.095      -10.098       -9.282       54.000       29.343       20.887     2916.008      861.020      436.247        0.582        0.211       85.692       28.254        0.109      345.592       23.233      858.532
08/25/2014  14:00:00      -65.848       -4.525        2.304       40.841       39.250       23.091     1667.972     1540.550      533.182        0.405        0.187       66.003       21.801        0.109      345.772       23.542      858.530
08/25/2014  14:01:00     -123.501       27.511       -9.460       47.212       34.068       27.146     2229.002     1160.632      736.911        1.011        0.206      126.528       24.612        0.038      345.654       23.338      858.529
08/25/2014  14:02:00      -88.619       12.809      -10.098       48.599       31.370       24.380     2361.904      984.069      594.370        0.603        0.197       89.540       12.037        0.018      345.643       23.320      858.528
08/25/2014  14:03:00      -48.401      -36.858        5.492       60.790       35.800       28.299     3695.416     1281.663      800.838        0.475        0.289       60.837       36.537        0.361      345.821       23.625      858.532
08/25/2014  14:04:00     -110.802      -73.555       -5.054       56.633       39.553       28.190     3207.305     1564.405      794.697        1.164        0.278      132.994       23.745        0.032      345.661       23.352      858.542
08/25/2014  14:05:00     -147.727      -83.992       15.541       75.848       50.531       33.274     5752.890     2553.415     1107.169        1.926        0.471      169.934       33.747        0.039      345.726       23.460      858.568
08/25/2014  14:06:00     -209.712     -164.462        8.083      111.500      103.778       59.330    12432.231    10769.935     3520.044        4.890        1.336      266.509       57.652        0.047      345.653       23.334      858.592
08/25/2014  14:07:00     -240.485     -334.980        2.222      148.478      242.194       82.924    22045.741    58657.882     6876.371       12.880        4.379      412.365       80.096        0.038      345.671       23.366      858.563
08/25/2014  14:08:00     -304.853     -194.859       17.619      173.808      131.265       79.865    30209.172    17230.460     6378.450        9.251        2.691      361.809       81.331        0.051      345.716       23.442      858.582
08/25/2014  14:09:00     -203.181     -239.401       -3.286      159.361      165.017       75.306    25395.883    27230.456     5670.986        7.844        2.915      313.999       69.680        0.049      345.659       23.346      858.638
08/25/2014  14:10:00       45.447     -261.281      -40.651      140.514      151.706       85.246    19744.323    23014.660     7266.906        6.100        2.501      265.204       92.711        0.122      345.682       23.384      858.622
08/25/2014  14:11:00       27.023     -161.282      -15.677       85.305       90.664       59.685     7276.928     8219.927     3562.272        2.302        0.953      163.531       47.603        0.085      345.662       23.351      858.614
08/25/2014  14:12:00      -46.188     -100.341       14.059       72.547       69.816       51.384     5263.029     4874.262     2640.349        1.259        0.639      110.461       27.047        0.060      345.682       23.386      858.617
08/25/2014  14:13:00      -43.024     -146.979       -5.357       56.468       76.017       31.104     3188.652     5778.607      967.466        1.671        0.497      153.147       23.671        0.024      345.653       23.337      858.611
08/25/2014  14:14:00      -83.617      -79.073        4.016       77.303       64.334       36.569     5975.761     4138.910     1337.293        1.235        0.573      115.084       23.613        0.042      345.660       23.348      858.574
08/25/2014  14:15:00      -80.896      -98.708       13.868       83.682      107.334       38.285     7002.639    11520.626     1465.726        1.823        0.999      127.623       46.496        0.133      345.690       23.400      858.551
08/25/2014  14:16:00     -114.190     -113.781        2.568       66.339       70.302       36.658     4400.831     4942.395     1343.797        1.834        0.534      161.200       36.522        0.051      345.618       23.277      858.551
08/25/2014  14:17:00     -148.803     -136.073        5.405       79.044       77.541       40.523     6247.955     6012.535     1642.102        2.729        0.695      201.639       37.632        0.035      345.596       23.236      858.568
08/25/2014  14:18:00     -279.121     -158.234      -10.036      136.943       96.431       65.731    18753.275     9299.031     4320.571        6.770        1.619      320.853       70.197        0.048      345.503       23.076      858.559
08/25/2014  14:19:00     -218.104     -166.749       -5.539      118.267      101.103       67.208    13987.147    10221.721     4516.929        5.206        1.436      274.545       62.829        0.052      345.419       22.932      858.584
08/25/2014  14:20:00     -329.568     -269.128       -1.369      201.954      149.474       91.441    40785.595    22342.482     8361.406       12.625        3.574      425.494      103.000        0.059      345.279       22.694      858.565
08/25/2014  14:21:00     -407.016     -257.232      -18.707      207.775      148.604      101.788    43170.510    22083.172    10360.849       15.388        3.781      481.488       99.978        0.043      345.378       22.862      858.599
08/25/2014  14:22:00     -410.358     -266.717       -6.829      177.570      164.769       97.780    31531.277    27148.790     9560.934       15.390        3.412      489.420      105.604        0.047      345.337       22.792      858.715
08/25/2014  14:23:00     -453.510     -378.059       -8.131      284.446      221.461      125.243    80909.539    49045.170    15685.840       24.712        7.282      590.423      134.907        0.052      345.174       22.513      858.749
08/25/2014  14:24:00     -146.974     -183.867       -7.014      110.226      134.097       54.520    12149.845    17982.029     2972.445        4.427        1.655      235.390       45.600        0.038      345.112       22.408      858.834
08/25/2014  14:25:00     -614.585     -210.779      -34.691      225.678      186.831       66.962    50930.399    34905.678     4483.922       25.682        4.516      649.726       64.727        0.010      345.035       22.273      858.897
08/25/2014  14:26:00     -221.003      -34.643      -27.325      171.221      105.298       65.601    29316.759    11087.655     4303.450        4.774        2.235      223.702       78.743        0.124      345.121       22.423      859.234
08/25/2014  14:27:00      -95.814     -196.084        3.573      213.131      103.498       70.283    45424.953    10711.747     4939.712        5.435        3.054      218.242       67.952        0.097      345.031       22.268      859.166
08/25/2014  14:28:00       62.539      -55.345       70.619       97.813      147.523      112.900     9567.342    21762.927    12746.319        2.801        2.204       83.512      106.154        1.616      344.978       22.180      858.961
08/25/2014  14:29:00      178.432      128.502       78.728      129.550      114.647      107.989    16783.228    13143.937    11661.684        4.806        2.079      219.888       40.655        0.034      344.776       21.832      858.673
08/25/2014  14:30:00      208.024      -37.272       76.907      198.361      255.551      119.904    39347.157    65306.436    14376.938        8.478        5.952      211.337      159.920        0.573      344.792       21.858      858.511
08/25/2014  14:31:00      294.143     -250.398        7.315      237.881      338.496      175.600    56587.553   114579.354    30835.285       17.560       10.100      386.289      231.590        0.359      344.700       21.700      858.400
08/25/2014  14:32:00      180.851      -57.011      122.934      194.377      214.527      144.336    37782.431    46021.784    20832.897        7.783        5.232      189.624      160.618        0.717      344.611       21.550      858.404
08/25/2014  14:33:00       77.619      149.435      188.769       97.044      130.071      102.002     9417.473    16918.529    10404.325        5.036        1.837      168.391       94.638        0.316      344.680       21.669      858.319
08/25/2014  14:34:00      126.178      -43.872       59.541      138.615      135.942       93.032    19214.217    18480.234     8654.959        3.386        2.317      133.587       98.081        0.539      344.818       21.904      858.229
08/25/2014  14:35:00       67.696     -139.784        8.373       96.554      126.043       50.596     9322.593    15886.735     2559.940        2.598        1.388      155.314       48.380        0.097      344.825       21.917      858.196
08/25/2014  14:36:00       81.166     -215.325       15.907      114.452      150.017       69.426    13099.340    22505.081     4819.990        4.681        2.021      230.114       80.246        0.122      344.979       22.180      858.164
08/25/2014  14:37:00      115.109     -245.284      -34.185       88.514       82.484       52.053     7834.703     6803.528     2709.541        4.596        0.867      270.951       41.197        0.023      345.186       22.531      858.130
08/25/2014  14:38:00      134.438     -232.067      -31.560       65.076       65.085       40.068     4234.905     4236.054     1605.411        4.150        0.504      268.195       32.497        0.015      345.319       22.760      858.134
08/25/2014  14:39:00       66.653     -132.893      -10.783       51.764       67.383       34.762     2679.494     4540.464     1208.389        1.532        0.421      148.671       20.210        0.018      345.486       23.049      858.122
08/25/2014  14:40:00      -28.637      -33.145       -3.105       38.786       35.028       15.864     1504.344     1226.943      251.682        0.246        0.149       43.802       14.792        0.114      345.520       23.110      858.112
08/25/2014  14:41:00        0.065      -37.681       17.447       36.881       48.058       29.228     1360.205     2309.600      854.289        0.312        0.226       37.681       28.781        0.583      345.652       23.337      858.112
08/25/2014  14:42:00       26.031       27.049       79.384       52.672       81.448       57.894     2774.387     6633.854     3351.687        1.023        0.638       37.540       58.320        2.413      345.627       23.292      858.110
08/25/2014  14:43:00       72.622     -170.477      -24.781       88.455       93.577       45.820     7824.281     8756.623     2099.471        2.681        0.934      185.301       41.499        0.050      345.518       23.102      858.100
08/25/2014  14:44:00       -1.922     -118.645       -4.589       67.622       54.677       33.029     4572.772     2989.602     1090.948        1.138        0.433      118.661       18.782        0.025      345.543       23.146      858.110
08/25/2014  14:45:00        8.543     -112.952       -8.094       35.423       49.481       33.454     1254.758     2448.406     1119.198        0.886        0.241      113.275       29.181        0.066      345.617       23.274      858.134
08/25/2014  14:46:00       28.051      -75.606       11.229       34.963       56.954       28.625     1222.439     3243.761      819.415        0.596        0.264       80.642       33.569        0.173      345.657       23.344      858.152
08/25/2014  14:47:00       64.140       32.872       17.591       46.617       43.828       25.824     2173.146     1920.929      666.862        0.513        0.238       72.073       21.469        0.089      345.691       23.403      858.166
08/25/2014  14:48:00       53.411      -38.409        5.944       38.341       67.398       29.359     1470.009     4542.500      861.975        0.562        0.344       65.787       39.823        0.366      345.654       23.340      858.180
08/25/2014  14:49:00       10.135       21.483       32.367       18.408       25.590       16.147      338.873      654.824      260.720        0.143        0.063       23.754       13.347        0.316      345.845       23.665      858.192
08/25/2014  14:50:00        4.942       28.800       34.308       15.531       20.228       13.859      241.201      409.174      192.078        0.144        0.042       29.221        9.054        0.096      345.838       23.655      858.184
08/25/2014  14:51:00       11.337        0.359       31.395       40.085       45.055       26.671     1606.774     2029.927      711.367        0.273        0.217       11.343       30.159        7.069      345.816       23.617      858.199
08/25/2014  14:52:00       11.815       45.437       38.614       17.342       24.062       16.024      300.762      578.992      256.774        0.242        0.057       46.948       12.568        0.072      345.798       23.588      858.197
08/25/2014  14:53:00      -64.945       -7.558        0.129       21.100       16.964       20.676      445.219      287.766      427.511        0.272        0.058       65.383       17.048        0.068      345.651       23.333      858.208
08/25/2014  14:54:00      -10.379       17.218       15.444       39.169       15.769       13.904     1534.246      248.673      193.323        0.131        0.099       20.104       16.010        0.634      345.688       23.396      858.218
08/25/2014  14:55:00       14.718       50.450       10.155       35.175       19.383       21.936     1237.257      375.712      481.176        0.248        0.105       52.553       13.873        0.070      345.705       23.426      858.231
08/25/2014  14:56:00       -8.635       18.677        2.866       13.724       20.405       18.332      188.340      416.353      336.050        0.069        0.047       20.576       13.315        0.419      345.730       23.469      858.240
08/25/2014  14:57:00       -9.227       -0.974      -14.916       10.850       11.607        6.033      117.727      134.718       36.392        0.030        0.014        9.279        5.314        0.328      345.738       23.482      858.248
08/25/2014  14:58:00      -17.879       20.173       -6.343       11.787       20.228        7.612      138.924      409.190       57.936        0.069        0.030       26.956        9.180        0.116      345.664       23.356      858.244
08/25/2014  14:59:00        7.956       17.694       17.689       12.901       20.042       13.360      166.424      401.677      178.486        0.072        0.037       19.401       12.829        0.437      345.940       23.831      858.236
08/25/2014  15:00:00       27.384       62.594       -2.856       21.910       29.231       20.011      480.060      854.440      400.447        0.321        0.087       68.322       17.515        0.066      345.693       23.405      858.229
08/25/2014  15:01:00       60.082       41.459        7.331       32.654       23.241       26.521     1066.288      540.144      703.361        0.385        0.115       72.998       17.859        0.060      345.707       23.429      858.228
08/25/2014  15:02:00       63.409       30.654        8.948       26.497       22.824       19.905      702.100      520.934      396.204        0.333        0.081       70.430       11.567        0.027      345.750       23.503      858.227
08/25/2014  15:03:00       28.826       73.422       -8.613       25.611       35.987       22.924      655.915     1295.082      525.506        0.439        0.124       78.878       22.054        0.078      345.671       23.366      858.223
08/25/2014  15:04:00       -9.152      133.788      -17.258       35.565       34.111       21.296     1264.904     1163.555      453.516        1.058        0.144      134.101       18.209        0.018      345.642       23.318      858.226
08/25/2014  15:05:00       13.446      148.042      -28.124       24.216       28.519       16.552      586.393      813.310      273.952        1.228        0.084      148.652        5.166        0.001      345.607       23.260      858.243
08/25/2014  15:06:00        9.054      110.697      -18.993       15.480       43.525       14.324      239.636     1894.439      205.167        0.752        0.117      111.067       20.491        0.034      345.613       23.268      858.262
08/25/2014  15:07:00        2.202       48.673        2.641       51.958       31.606       17.202     2699.667      998.948      295.898        0.319        0.200       48.722       14.590        0.090      345.605       23.254      858.259
08/25/2014  15:08:00     -120.727       58.518      -23.063       35.274       23.319       15.835     1244.270      543.764      250.757        1.028        0.102      134.162        8.446        0.004      345.473       23.027      858.273
08/25/2014  15:09:00      -44.867       13.942        0.017       38.110       20.224       22.866     1452.368      409.022      522.834        0.230        0.119       46.984       22.299        0.225      345.687       23.395      858.275
08/25/2014  15:10:00     -110.356      -21.254      -12.557       47.351       31.262       27.373     2242.078      977.293      749.283        0.838        0.198      112.385       17.087        0.023      345.657       23.343      858.272
08/25/2014  15:11:00      -79.610        1.793       -8.294       41.632       52.483       21.734     1733.232     2754.494      472.382        0.568        0.248       79.630       15.894        0.040      345.746       23.498      858.275
08/25/2014  15:12:00      -72.510      -34.087        1.009       66.464       46.841       30.530     4417.407     2194.042      932.109        0.698        0.377       80.122       27.668        0.119      345.876       23.719      858.270
08/25/2014  15:13:00     -100.578       -3.421       -7.826       51.083       27.780       24.434     2609.459      771.754      597.031        0.708        0.199      100.636       18.007        0.032      345.875       23.718      858.274
08/25/2014  15:14:00      -84.117      -56.803       -1.171       97.519       73.171       31.149     9509.933     5353.927      970.286        1.307        0.792      101.500       43.900        0.187      346.009       23.946      858.272
08/25/2014  15:15:00     -105.900      -89.626       -8.450       85.695       71.880       39.916     7343.703     5166.697     1593.319        1.671        0.705      138.736       38.912        0.079      346.002       23.935      858.272
08/25/2014  15:16:00      -52.993       23.283        8.473       52.747       46.656       32.409     2782.257     2176.739     1050.341        0.471        0.300       57.882       29.236        0.255      346.146       24.184      858.274
08/25/2014  15:17:00      -49.461       29.340       20.652       44.823       58.470       36.097     2009.084     3418.732     1302.979        0.523        0.337       57.508       34.083        0.351      346.258       24.377      858.272
08/25/2014  15:18:00      -54.746       11.601      -18.618       41.074       25.299       17.973     1687.057      640.045      323.018        0.306        0.133       55.961       12.831        0.053      346.067       24.049      858.277
08/25/2014  15:19:00     -114.702      -22.981      -12.815       72.412       46.988       26.361     5243.480     2207.899      694.908        1.100        0.407      116.981       25.515        0.048      346.073       24.059      858.268
08/25/2014  15:20:00      -26.812       46.557       15.156       50.486       36.915       37.359     2548.844     1362.731     1395.716        0.421        0.265       53.726       22.106        0.169      346.407       24.632      858.276
08/25/2014  15:21:00      -18.452      101.277        2.996       41.454       87.794       37.045     1718.422     7707.815     1372.299        1.070        0.540      102.944       43.794        0.181      346.160       24.207      858.288
08/25/2014  15:22:00      -88.461      182.881      -21.731       52.853       62.612       35.266     2793.404     3920.301     1243.704        2.485        0.398      203.152       38.019        0.035      345.965       23.871      858.283
08/25/2014  15:23:00       29.278      100.097        1.521       55.994       59.444       34.820     3135.341     3533.634     1212.445        0.938        0.394      104.291       38.129        0.134      346.113       24.127      858.274
08/25/2014  15:24:00       75.352      113.634       -0.547       89.556       71.418       38.877     8020.312     5100.565     1511.444        1.661        0.732      136.347       34.630        0.065      345.970       23.879      858.266
08/25/2014  15:25:00       37.209      225.717      -23.585       64.775       87.395       56.183     4195.865     7637.931     3156.572        3.394        0.750      228.763       50.308        0.048      345.860       23.691      858.265
08/25/2014  15:26:00      126.781      112.821       19.956       87.024       77.438       58.452     7573.216     5996.588     3416.583        2.309        0.849      169.711       45.979        0.073      345.880       23.726      858.268
08/25/2014  15:27:00      191.077      104.008       11.915       85.239       67.164       48.863     7265.743     4510.994     2387.590        3.081        0.708      217.550       40.583        0.035      345.798       23.583      858.261
08/25/2014  15:28:00       87.652       67.095       17.527       81.923       57.800       40.604     6711.414     3340.857     1648.707        1.209        0.585      110.384       25.611        0.054      346.141       24.174      858.244
08/25/2014  15:29:00       62.924      147.401       -0.699       84.627       59.811       52.906     7161.740     3577.349     2799.008        1.961        0.677      160.270       39.413        0.060      346.101       24.105      858.262
08/25/2014  15:30:00      159.344      122.841       11.925      144.023       96.134       56.283    20742.627     9241.689     3167.725        3.688        1.658      201.197       22.095        0.012      346.099       24.101      858.270
08/25/2014  15:31:00      312.028      186.904       28.607       79.577       68.774       65.537     6332.537     4729.795     4295.039        7.423        0.768      363.723       38.553        0.011      345.751       23.502      858.253
08/25/2014  15:32:00       63.425       74.416        6.734      132.275       96.240       48.902    17496.632     9262.065     2391.415        1.937        1.458       97.778       37.856        0.150      346.015       23.958      858.280
08/25/2014  15:33:00     -135.805      208.326      -39.298       75.444       79.824       48.727     5691.748     6371.868     2374.338        3.891        0.722      248.682       36.880        0.022      345.944       23.834      858.319
08/25/2014  15:34:00     -175.869      182.720      -46.468       86.714       75.224       50.165     7519.358     5658.616     2516.481        4.108        0.785      253.607       47.184        0.035      345.797       23.579      858.326
08/25/2014  15:35:00      -11.168      134.896       -7.124       50.602       59.043       35.252     2560.514     3486.103     1242.679        1.283        0.364      135.358       31.109        0.053      345.865       23.701      858.331
08/25/2014  15:36:00       48.511      215.681      -23.526       53.731       92.130       49.795     2887.011     8487.910     2479.581        3.164        0.693      221.070       48.883        0.049      345.856       23.683      858.358
08/25/2014  15:37:00       98.528      218.664       -4.293      100.005      125.891       74.782    10001.005    15848.590     5592.415        4.448        1.572      239.837       70.978        0.088      345.626       23.287      858.348
08/25/2014  15:38:00      233.638      188.980       21.265      163.033      118.162      103.703    26579.879    13962.192    10754.329        7.101        2.565      300.500       50.174        0.028      345.581       23.211      858.352
08/25/2014  15:39:00       36.998      300.249      -37.940       77.235      102.247       50.407     5965.249    10454.408     2540.868        5.596        0.948      302.520       57.236        0.036      345.521       23.108      858.359
08/25/2014  15:40:00      -23.616      271.118      -36.383       33.390       72.415       21.019     1114.922     5243.895      441.806        4.109        0.340      272.144       26.872        0.010      345.493       23.059      858.345
08/25/2014  15:41:00      -34.230       93.019       -5.917       36.537       65.155       25.282     1334.947     4245.199      639.186        0.804        0.311       99.117       34.065        0.118      345.730       23.470      858.327
08/25/2014  15:42:00       -0.421       73.650       -3.391       29.933       45.032       23.288      895.959     2027.897      542.340        0.445        0.173       73.651       19.568        0.071      345.792       23.576      858.323
08/25/2014  15:43:00      128.328       85.079       23.339       55.755       52.291       47.826     3108.618     2734.356     2287.326        1.619        0.407      153.970       38.950        0.064      345.698       23.414      858.326
08/25/2014  15:44:00       56.824      106.739       15.956       83.909       80.507       54.026     7040.707     6481.297     2918.788        1.566        0.822      120.922       51.427        0.181      345.852       23.679      858.319
08/25/2014  15:45:00      -19.619      233.316      -29.661       49.002       47.062       33.896     2401.203     2214.855     1148.906        3.073        0.288      234.140       28.167        0.014      345.892       23.742      858.315
08/25/2014  15:46:00      -36.069      163.646      -12.095       54.306       76.267       34.965     2949.184     5816.598     1222.529        1.911        0.499      167.574       36.771        0.048      345.985       23.904      858.316
08/25/2014  15:47:00       -9.930      157.515      -12.350       49.591       67.599       43.730     2459.297     4569.661     1912.297        1.700        0.447      157.827       43.958        0.078      345.945       23.836      858.310
08/25/2014  15:48:00      -19.527      267.308      -27.119       95.103      117.586       59.685     9044.589    13826.384     3562.287        4.950        1.322      268.020       59.054        0.049      345.907       23.772      858.283
08/25/2014  15:49:00      207.972      157.468       31.501      145.038       82.089       75.648    21036.105     6738.548     5722.632        5.126        1.675      260.861       43.180        0.027      345.886       23.733      858.289
08/25/2014  15:50:00      195.016      145.506       32.149      161.062      108.324       84.215    25941.077    11734.147     7092.084        5.249        2.238      243.317       79.650        0.107      345.901       23.759      858.280
08/25/2014  15:51:00       41.897      167.973      -21.124      105.221       90.029       63.433    11071.533     8105.223     4023.727        2.680        1.160      173.119       49.299        0.081      345.783       23.557      858.318
08/25/2014  15:52:00       85.693      211.016      -14.295       84.171      121.396       67.893     7084.704    14737.102     4609.465        3.925        1.322      227.752       69.371        0.093      345.919       23.792      858.321
08/25/2014  15:53:00       51.412      130.316        3.157       93.638       77.195       57.836     8768.083     5959.026     3345.009        1.885        0.904      140.090       48.775        0.121      345.962       23.866      858.337
08/25/2014  15:54:00       11.022      124.648       -3.346       46.625       97.105       49.476     2173.912     9429.325     2447.890        1.486        0.703      125.134       59.394        0.225      346.062       24.039      858.342
08/25/2014  15:55:00       26.473       92.363       -1.219       73.170       71.369       42.436     5353.914     5093.566     1800.826        1.074        0.612       96.082       32.016        0.111      346.043       24.007      858.362
08/25/2014  15:56:00      -26.468      125.179      -13.708       27.672       49.363       17.941      765.753     2436.685      321.876        1.004        0.176      127.946       14.862        0.013      345.843       23.663      858.379
08/25/2014  15:57:00      -10.163       18.449        4.342       42.587       57.588       36.674     1813.670     3316.332     1344.953        0.347        0.324       21.063       28.360        1.813      346.025       23.977      858.369
08/25/2014  15:58:00      -75.227       94.359      -18.954       22.551       65.056       24.117      508.537     4232.237      581.622        1.012        0.266      120.676       27.850        0.053      345.804       23.596      858.368
08/25/2014  15:59:00      -20.118       79.781      -17.204       51.166       72.252       23.080     2617.950     5220.297      532.683        0.772        0.419       82.279       22.998        0.078      346.022       23.971      858.369
08/25/2014  16:00:00       34.894       88.790       -0.139       41.914       53.603       34.539     1756.767     2873.320     1192.947        0.746        0.291       95.400       32.781        0.118      345.921       23.799      858.380
08/25/2014  16:01:00       56.139       16.689       16.647       80.425       52.955       40.758     6468.114     2804.248     1661.214        0.732        0.547       58.567       34.327        0.344      346.032       23.988      858.382
08/25/2014  16:02:00       73.105       59.243       -9.373       61.952       31.936       25.904     3838.017     1019.918      671.039        0.723        0.276       94.096       20.891        0.049      345.957       23.860      858.370
08/25/2014  16:03:00      -21.630        4.931       -5.231       23.590       28.405       16.869      556.478      806.868      284.578        0.108        0.082       22.185       11.484        0.268      346.175       24.232      858.363
08/25/2014  16:04:00      -46.577        4.863       -6.724       39.338       71.839       30.564     1547.466     5160.865      934.139        0.494        0.382       46.831       20.435        0.190      345.970       23.882      858.365
08/25/2014  16:05:00      -84.209       90.173      -23.758       58.052       74.952       48.971     3370.081     5617.826     2398.191        1.358        0.569      123.379       36.843        0.089      345.907       23.773      858.360
08/25/2014  16:06:00      -40.487      122.583      -16.261       46.781       70.597       27.874     2188.477     4983.868      776.959        1.244        0.397      129.096       29.812        0.053      345.939       23.827      858.353
08/25/2014  16:07:00       31.069       29.777       30.613       45.404       31.720       33.879     2061.550     1006.169     1147.763        0.350        0.211       43.034       23.785        0.305      346.251       24.363      858.350
08/25/2014  16:08:00       68.020      108.287       69.052       54.013       44.858       55.044     2917.384     2012.277     3029.870        1.454        0.398      127.878       37.074        0.084      345.988       23.912      858.343
08/25/2014  16:09:00       96.909      134.459       13.923       48.599       54.192       52.336     2361.909     2936.779     2739.008        1.785        0.402      165.743       40.796        0.061      345.837       23.654      858.326
08/25/2014  16:10:00      -19.618       72.524      -18.925       39.341       52.683       22.754     1547.689     2775.470      517.746        0.542        0.242       75.131       21.009        0.078      345.820       23.627      858.320
08/25/2014  16:11:00       50.496       45.960       -7.232       51.183       30.209       26.912     2619.656      912.576      724.262        0.448        0.213       68.280       18.440        0.073      345.865       23.701      858.305
08/25/2014  16:12:00       88.741       66.401       13.012       32.493       27.370       32.759     1055.801      749.123     1073.158        0.767        0.144      110.833       17.857        0.026      345.817       23.620      858.302
08/25/2014  16:13:00        9.618       32.402        9.422       18.475       23.638       20.080      341.330      558.738      403.226        0.127        0.065       33.800       13.695        0.164      345.911       23.782      858.292
08/25/2014  16:14:00       31.078       26.886       25.696       24.965       31.818       26.406      623.264     1012.364      697.288        0.234        0.117       41.094       20.384        0.246      345.955       23.855      858.280
08/25/2014  16:15:00       -9.212       29.700       10.378       40.798       32.857       22.198     1664.503     1079.578      492.772        0.216        0.162       31.096       18.838        0.367      346.040       24.002      858.269
08/25/2014  16:16:00        7.143      118.970      -11.570       30.303       67.040       31.993      918.300     4494.363     1023.541        1.039        0.322      119.184       37.677        0.100      345.950       23.847      858.293
08/25/2014  16:17:00       19.202       89.931        4.756       65.447       80.026       44.209     4283.266     6404.240     1954.415        1.056        0.632       91.958       49.025        0.284      345.963       23.868      858.280
08/25/2014  16:18:00       17.557      249.618      -29.717       54.086       97.978       44.576     2925.337     9599.668     1987.021        3.900        0.726      250.234       48.811        0.038      345.866       23.699      858.271
08/25/2014  16:19:00        2.535      171.091      -15.483       55.968      104.736       46.472     3132.394    10969.717     2159.660        2.289        0.813      171.110       51.082        0.089      345.931       23.813      858.277
08/25/2014  16:20:00      -69.715      255.652      -32.266       52.114       77.894       45.229     2715.875     6067.520     2045.625        4.104        0.541      264.987       42.145        0.025      345.902       23.761      858.297
08/25/2014  16:21:00     -176.629      155.678      -38.096       65.164       67.241       39.296     4246.319     4521.348     1544.158        3.360        0.516      235.443       39.935        0.029      345.861       23.689      858.307
08/25/2014  16:22:00      -70.076      153.049      -11.839       45.343       62.030       37.613     2056.033     3847.741     1414.707        1.790        0.366      168.329       26.723        0.025      345.917       23.788      858.301
08/25/2014  16:23:00      -32.593       57.953        0.583       37.418       64.414       28.351     1400.094     4149.132      803.783        0.539        0.318       66.490       16.502        0.062      346.043       24.006      858.313
08/25/2014  16:24:00      -17.071      114.445       -3.069       45.974       64.450       31.668     2113.592     4153.853     1002.836        1.033        0.364      115.712       30.679        0.070      346.030       23.983      858.344
08/25/2014  16:25:00      -24.068       86.876       -3.444       55.356       80.879       45.900     3064.262     6541.421     2106.802        0.992        0.586       90.149       40.742        0.204      346.025       23.976      858.357
08/25/2014  16:26:00      -56.887      138.053      -12.838       76.787       72.244       43.144     5896.262     5219.260     1861.397        1.772        0.649      149.315       42.939        0.083      345.964       23.869      858.383
08/25/2014  16:27:00       54.006       79.711       11.887       47.682       54.543       37.704     2273.545     2974.917     1421.567        0.804        0.334       96.283       28.728        0.089      345.956       23.858      858.393
08/25/2014  16:28:00       62.943       61.702       -1.644       43.821       34.661       28.498     1920.300     1201.406      812.147        0.585        0.197       88.142       22.504        0.065      345.903       23.766      858.392
08/25/2014  16:29:00       28.853       59.996       -4.550       46.818       37.317       30.484     2191.952     1392.555      929.288        0.448        0.226       66.573       29.542        0.197      345.896       23.753      858.400
08/25/2014  16:30:00      -71.912       81.778      -15.446       75.762       78.861       30.806     5739.919     6219.135      948.998        1.250        0.645      108.899       29.234        0.072      345.955       23.856      858.403
08/25/2014  16:31:00      -77.814      243.997      -30.473       64.724      104.895       39.543     4189.146    11003.000     1563.682        4.163        0.838      256.105       44.279        0.030      345.915       23.785      858.405
08/25/2014  16:32:00      -46.485      117.074      -12.421       53.292       60.801       36.596     2840.086     3696.703     1339.273        1.195        0.394      125.965       41.979        0.111      345.877       23.719      858.405
08/25/2014  16:33:00      -67.553       50.931      -13.140       41.077       60.170       22.925     1687.326     3620.414      525.564        0.658        0.292       84.601       25.039        0.088      345.883       23.733      858.384
08/25/2014  16:34:00      -70.117       92.409      -23.232       53.742       39.366       24.030     2888.245     1549.718      577.434        0.950        0.251      115.999       19.513        0.028      345.821       23.625      858.373
08/25/2014  16:35:00      -37.595      116.126      -19.554       21.150       44.230       17.606      447.343     1956.305      309.954        0.900        0.136      122.059       11.701        0.009      345.880       23.727      858.359
08/25/2014  16:36:00       21.026       51.555       -0.428       53.016       47.448       26.297     2810.698     2251.327      691.543        0.443        0.288       55.678       22.348        0.161      345.995       23.924      858.349
08/25/2014  16:37:00      -26.156       66.549        1.032       74.020       45.296       36.800     5478.901     2051.765     1354.212        0.700        0.444       71.505       36.421        0.259      345.950       23.848      858.339
08/25/2014  16:38:00       59.778       28.116       16.115       37.408       24.218       21.867     1399.392      586.531      478.169        0.354        0.123       66.060       17.770        0.072      345.987       23.912      858.326
08/25/2014  16:39:00       50.088      211.795      -24.732       55.208       92.228       54.253     3047.927     8505.957     2943.397        3.123        0.725      217.637       54.651        0.063      345.890       23.741      858.341
08/25/2014  16:40:00       84.570      138.011      -13.304       66.711       71.172       57.343     4450.300     5065.400     3288.223        1.959        0.640      161.861       43.300        0.072      345.927       23.806      858.349
08/25/2014  16:41:00       41.318      248.517      -39.232       48.079       59.647       31.260     2311.618     3557.774      977.200        3.593        0.342      251.928       24.859        0.010      345.868       23.701      858.375
08/25/2014  16:42:00       90.088      120.761      -18.635       57.528       83.308       35.654     3309.498     6940.259     1271.198        1.728        0.576      150.662       36.076        0.057      345.933       23.817      858.367
08/25/2014  16:43:00      107.961      118.297       32.758       77.553       75.793       73.794     6014.488     5744.639     5445.581        2.196        0.860      160.155       48.357        0.091      345.955       23.853      858.359
08/25/2014  16:44:00       13.587      133.158      -22.975       34.156       56.654       22.766     1166.651     3209.630      518.278        1.167        0.245      133.849       20.516        0.023      345.988       23.911      858.373
08/25/2014  16:45:00       -6.568      137.496      -22.878       41.448       67.502       21.179     1717.917     4556.486      448.545        1.310        0.336      137.653       27.250        0.039      345.956       23.857      858.384
08/25/2014  16:46:00       63.901      124.761        2.244       56.356       78.484       53.875     3175.957     6159.793     2902.541        1.594        0.612      140.174       53.945        0.148      345.964       23.870      858.393
08/25/2014  16:47:00       17.576      122.665      -12.513       41.298       51.957       27.421     1705.555     2699.479      751.908        1.033        0.258      123.918       26.122        0.044      345.957       23.860      858.412
08/25/2014  16:48:00       25.244      130.023      -20.793       27.583       49.300       27.085      760.806     2430.444      733.581        1.095        0.196      132.451       28.293        0.046      345.953       23.853      858.442
08/25/2014  16:49:00      -32.616       88.151      -13.072       46.167       41.894       28.490     2131.418     1755.096      811.678        0.685        0.235       93.992       12.007        0.016      345.963       23.871      858.469
08/25/2014  16:50:00      -74.556       53.379        6.218       42.502       44.328       37.634     1806.418     1964.943     1416.291        0.682        0.259       91.695       21.973        0.057      345.975       23.891      858.491
08/25/2014  16:51:00      -90.402       83.176      -20.383       56.042       41.373       28.023     3140.651     1711.700      785.294        1.057        0.282      122.845       32.635        0.071      345.945       23.838      858.517
08/25/2014  16:52:00      -38.448       82.022       -9.484       34.173       28.290       21.057     1167.823      800.319      443.390        0.535        0.121       90.586       18.843        0.043      345.967       23.875      858.542
08/25/2014  16:53:00       21.445       74.840      -12.105       14.856       24.913       11.434      220.697      620.665      130.734        0.359        0.049       77.852        9.758        0.016      345.935       23.820      858.565
08/25/2014  16:54:00      -48.516       75.754      -11.835       44.807       32.812       22.704     2007.657     1076.597      515.460        0.592        0.180       89.958       18.775        0.044      345.961       23.868      858.590
08/25/2014  16:55:00      -31.792      157.756      -25.475       40.665       45.420       29.151     1653.680     2062.972      849.760        1.556        0.228      160.927       16.333        0.010      346.000       23.934      858.624
08/25/2014  16:56:00      -39.352      269.805      -36.838       76.168       68.342       37.950     5801.507     4670.584     1440.171        4.380        0.596      272.660       33.594        0.015      345.937       23.821      858.635
08/25/2014  16:57:00      -55.164      118.835       -3.624       43.117       78.693       33.826     1859.103     6192.547     1144.200        1.319        0.460      131.015       31.823        0.059      345.976       23.891      858.661
08/25/2014  16:58:00      -31.591      189.390      -24.946       32.817       33.372       19.246     1076.956     1113.712      370.420        2.002        0.128      192.006       14.810        0.006      345.977       23.893      858.681
08/25/2014  16:59:00     -113.839      147.029      -24.640       71.568       84.539       47.961     5121.908     7146.822     2300.283        2.487        0.728      185.948       52.366        0.079      346.006       23.942      858.708
08/25/2014  17:00:00      -70.776      158.712      -14.444       55.295       83.726       44.389     3057.585     7010.088     1970.411        2.122        0.602      173.778       48.110        0.077      345.982       23.900      858.732
08/25/2014  17:01:00     -105.491      189.910      -28.675       51.660       85.730       30.518     2668.768     7349.700      931.330        2.948        0.547      217.242       23.907        0.012      345.987       23.910      858.744
08/25/2014  17:02:00     -123.083      184.125      -28.927       51.467       90.746       40.359     2648.887     8234.792     1628.814        3.120        0.626      221.476       37.407        0.029      346.015       23.956      858.779
08/25/2014  17:03:00     -106.025      186.820      -22.161       84.108      114.384       52.532     7074.210    13083.725     2759.653        3.477        1.146      214.809       49.251        0.053      345.945       23.836      858.802
08/25/2014  17:04:00     -113.061       10.176      -27.554      102.283       85.680       46.522    10461.893     7340.996     2164.332        1.680        0.998      113.518       32.069        0.080      345.921       23.796      858.822
08/25/2014  17:05:00     -165.266      138.010       -4.389      127.240      125.460       73.060    16189.922    15740.314     5337.691        4.182        1.863      215.313       81.687        0.144      345.515       23.097      858.842
08/25/2014  17:06:00     -268.808       38.611      -45.098      115.594      120.334       74.745    13361.977    14480.200     5586.882        5.460        1.671      271.567       68.244        0.063      345.294       22.720      858.823
08/25/2014  17:07:00     -132.703       41.905       -1.718       80.318       64.182       49.521     6451.024     4119.268     2452.347        1.619        0.651      139.162       38.580        0.077      345.350       22.818      858.817
08/25/2014  17:08:00      -54.517      -10.952       -1.047       88.919       66.645       49.586     7906.526     4441.494     2458.766        0.895        0.740       55.606       50.404        0.822      345.396       22.896      858.807
08/25/2014  17:09:00     -194.901       14.545      -26.161      143.251      143.268       62.492    20520.732    20525.700     3905.312        4.191        2.248      195.443       67.650        0.120      345.466       23.012      858.814
08/25/2014  17:10:00     -208.879      -60.549      -13.174      109.005      146.623       63.410    11882.176    21498.403     4020.809        4.243        1.870      217.478       54.482        0.063      345.548       23.152      858.814
08/25/2014  17:11:00     -180.805       14.727       -7.413       95.427       99.532       65.756     9106.337     9906.581     4323.909        2.814        1.167      181.404       49.678        0.075      345.513       23.095      858.826
08/25/2014  17:12:00     -232.883      -61.759       -4.021      106.865       94.791       62.760    11420.167     8985.400     3938.836        4.120        1.217      240.933       54.654        0.051      345.438       22.965      858.835
08/25/2014  17:13:00     -266.457      -86.199      -18.957      119.365      137.272       65.080    14248.055    18843.662     4235.355        5.805        1.866      280.053       48.492        0.030      345.291       22.714      858.853
08/25/2014  17:14:00     -230.036      -63.740        0.413      137.921      111.870       58.305    19022.093    12514.815     3399.531        4.595        1.747      238.704       63.304        0.070      345.331       22.781      858.862
08/25/2014  17:15:00     -190.178      -54.836        6.436      150.130      123.632       70.920    22538.931    15284.918     5029.705        4.103        2.143      197.925       84.418        0.182      345.310       22.745      858.878
08/25/2014  17:16:00     -224.336       10.886      -53.804      158.810      182.547       80.433    25220.640    33323.511     6469.544        5.916        3.251      224.600       49.778        0.049      345.245       22.633      858.895
08/25/2014  17:17:00     -223.694       51.790      -28.957      128.744      129.135       89.410    16575.023    16675.796     7994.183        4.739        2.062      229.610       75.903        0.109      345.263       22.666      858.912
08/25/2014  17:18:00     -155.395      -45.934       -6.506      155.392       95.562       58.745    24146.676     9132.080     3450.976        3.151        1.836      162.042       47.485        0.086      345.296       22.722      858.925
08/25/2014  17:19:00     -238.041      -11.791      -25.840      147.263       86.353       56.585    21686.271     7456.921     3201.912        4.490        1.617      238.333       56.204        0.056      345.290       22.711      858.966
08/25/2014  17:20:00     -249.958      -54.070       -9.362      115.252      109.546       74.463    13282.950    12000.340     5544.765        4.815        1.541      255.739       64.653        0.064      345.278       22.690      858.968
08/25/2014  17:21:00     -275.692      -41.668      -40.518      112.911      112.919       44.950    12748.936    12750.801     2020.526        5.345        1.376      278.823       39.248        0.020      345.269       22.675      858.995
08/25/2014  17:22:00     -295.382       90.800      -37.137      131.302      140.409       67.307    17240.301    19714.820     4530.188        6.917        2.074      309.023       63.835        0.043      345.241       22.627      859.028
08/25/2014  17:23:00     -233.363       95.542      -37.336      115.956      128.884       80.617    13445.815    16611.017     6499.117        5.076        1.828      252.164       82.013        0.106      345.234       22.615      859.025
08/25/2014  17:24:00     -202.641       26.295      -25.560      110.980       92.466       62.075    12316.661     8549.989     3853.362        3.356        1.236      204.340       70.843        0.120      345.259       22.658      859.039
08/25/2014  17:25:00     -295.031      -48.537      -15.115      139.021      115.409       74.186    19326.863    13319.165     5503.630        6.388        1.907      298.997       69.623        0.054      345.282       22.698      859.031
08/25/2014  17:26:00     -317.671      -39.027      -25.231       99.615       82.578       45.187     9923.155     6819.136     2041.858        6.093        0.939      320.059       45.872        0.021      345.279       22.691      859.051
08/25/2014  17:27:00     -141.337      -54.102       -1.158      105.765       83.089       48.667    11186.332     6903.767     2368.518        2.168        1.023      151.338       48.256        0.102      345.361       22.833      859.055
08/25/2014  17:28:00     -245.693      -79.991       -9.366      127.748       81.295       47.239    16319.657     6608.853     2231.560        4.600        1.258      258.387       62.636        0.059      345.366       22.840      859.069
08/25/2014  17:29:00     -274.851      -38.751      -14.756      116.974      100.178       52.155    13682.846    10035.713     2720.109        5.185        1.322      277.569       49.016        0.031      345.360       22.829      859.075
08/25/2014  17:30:00     -357.635      -80.284      -28.135      118.300      117.188       50.651    13994.785    13733.047     2565.480        8.271        1.515      366.536       56.131        0.023      345.360       22.830      859.065
08/25/2014  17:31:00     -192.054      -55.806       14.860      133.743       95.022       56.606    17887.322     9029.232     3204.286        3.516        1.506      199.998       69.061        0.119      345.428       22.948      859.062
08/25/2014  17:32:00     -143.616      -61.556       12.976      111.366       93.512       48.683    12402.420     8744.486     2370.072        2.405        1.176      156.252       57.924        0.137      345.495       23.063      859.057
08/25/2014  17:33:00     -190.190     -140.357        5.183      153.728       98.531       54.111    23632.280     9708.375     2927.984        4.608        1.813      236.373       63.571        0.072      345.492       23.058      859.042
08/25/2014  17:34:00     -205.218     -137.457        4.785      168.823      117.070       63.205    28501.185    13705.350     3994.809        5.361        2.310      246.999       76.402        0.096      345.442       22.972      859.017
08/25/2014  17:35:00     -266.296     -119.759       -4.584      151.409      137.980       60.075    22924.830    19038.436     3608.950        6.542        2.279      291.986       65.818        0.051      345.451       22.988      859.014
08/25/2014  17:36:00     -293.712     -156.760      -11.730      149.174       82.282       60.763    22252.871     6770.313     3692.128        7.184        1.636      332.927       54.688        0.027      345.451       22.986      858.983
08/25/2014  17:37:00     -246.561      -93.929       -0.352      117.570       82.581       49.099    13822.602     6819.625     2410.683        4.633        1.153      263.847       48.222        0.033      345.449       22.984      858.974
08/25/2014  17:38:00     -208.556     -122.667       -2.551      139.838      124.716       53.972    19554.600    15554.126     2912.941        4.828        1.901      241.957       65.206        0.073      345.488       23.051      858.944
08/25/2014  17:39:00     -151.775     -107.048        3.438      113.795       73.179       60.606    12949.408     5355.163     3673.051        2.824        1.099      185.728       56.359        0.092      345.506       23.081      858.949
08/25/2014  17:40:00     -262.798     -145.453       -8.392      103.892       69.624       50.721    10793.579     4847.534     2572.601        5.425        0.911      300.365       35.156        0.014      345.458       22.998      858.973
08/25/2014  17:41:00     -325.805     -130.324       -7.663      151.021       93.192       64.652    22807.221     8684.744     4179.821        7.942        1.784      350.904       67.519        0.037      345.331       22.782      858.951
08/25/2014  17:42:00     -225.851     -192.738       -1.545      108.260      121.230       63.666    11720.133    14696.679     4053.312        5.931        1.524      296.912       56.870        0.037      345.237       22.620      858.951
08/25/2014  17:43:00     -320.910     -204.244       -6.618      164.587      130.158       77.545    27088.843    16941.044     6013.219        9.738        2.502      380.393       91.546        0.058      345.131       22.440      858.934
08/25/2014  17:44:00     -324.838     -122.357       -3.322      195.925      171.129       95.660    38386.728    29285.060     9150.789        9.865        3.841      347.118      106.005        0.093      345.020       22.249      858.925
08/25/2014  17:45:00     -458.189     -221.580      -10.800      282.074      177.082       99.366    79565.903    31358.062     9873.530       18.995        6.040      508.955      124.783        0.060      344.948       22.128      858.922
08/25/2014  17:46:00     -569.379     -101.635      -34.650      251.118      164.011      103.255    63060.044    26899.693    10661.546       21.815        5.031      578.379      116.823        0.041      344.897       22.037      858.902
08/25/2014  17:47:00     -289.704      -67.570        5.844      167.781      147.546       71.621    28150.386    21769.812     5129.551        7.178        2.752      297.479       63.309        0.045      344.929       22.094      858.935
08/25/2014  17:48:00     -298.261     -162.319       -7.108      146.228      133.971       71.318    21382.696    17948.138     5086.266        7.988        2.221      339.569       56.698        0.028      344.887       22.021      858.912
08/25/2014  17:49:00     -283.634     -107.362       -9.309      213.035      157.923       92.999    45383.813    24939.600     8648.821        8.550        3.949      303.273       98.942        0.106      344.830       21.924      858.907
08/25/2014  17:50:00     -363.783     -147.473       -8.523      210.758      138.175       75.588    44419.047    19092.318     5713.516       11.168        3.461      392.539       85.015        0.047      344.841       21.942      858.922
08/25/2014  17:51:00     -340.230     -244.882       -5.097      192.298      170.404      103.181    36978.584    29037.375    10646.402       12.619        3.833      419.194      114.094        0.074      344.798       21.868      858.928
08/25/2014  17:52:00     -332.852     -171.143      -15.419      186.618      146.838       92.185    34826.243    21561.409     8498.068       10.259        3.244      374.273       86.718        0.054      344.781       21.840      858.902
08/25/2014  17:53:00     -232.686     -160.063      -14.686      207.569      140.934       92.196    43084.729    19862.464     8500.056        7.570        3.572      282.424      101.731        0.130      344.828       21.920      858.925
08/25/2014  17:54:00     -155.984      -75.922       37.494      205.398      125.290       79.879    42188.279    15697.551     6380.642        4.787        3.213      173.479      110.329        0.404      344.739       21.769      858.958
08/25/2014  17:55:00     -205.114     -151.029       14.255      180.198      137.648       88.125    32471.456    18947.079     7765.992        6.212        2.959      254.718       95.076        0.139      344.730       21.752      858.967
08/25/2014  17:56:00     -380.160     -160.221       -8.982      269.357      149.916       86.216    72552.946    22474.921     7433.256       13.635        5.123      412.544       95.296        0.053      344.695       21.694      858.971
08/25/2014  17:57:00     -418.482      -85.715      -22.625      184.875      142.581       74.419    34178.826    20329.208     5538.242       12.150        3.002      427.170       74.896        0.031      344.732       21.757      859.004
08/25/2014  17:58:00     -238.171     -136.565       -4.004      110.552       87.209       58.346    12221.635     7605.366     3404.249        4.931        1.162      274.546       60.219        0.048      344.792       21.856      859.027
08/25/2014  17:59:00     -252.480      -72.083        1.546      220.112      146.982       72.909    48449.245    21603.625     5315.699        7.214        3.768      262.569       99.976        0.145      344.785       21.848      859.026
08/25/2014  18:00:00     -416.908     -158.809      -32.436      177.064      186.221       81.427    31351.686    34678.354     6630.419       13.636        3.633      446.131       85.231        0.036      344.800       21.872      859.023
08/25/2014  18:01:00     -306.375      -94.996       -8.589      128.513      119.038       76.774    16515.622    14169.987     5894.234        6.976        1.829      320.765       74.349        0.054      344.842       21.945      859.015
08/25/2014  18:02:00     -292.514      -76.738        2.979      152.856      124.138       74.672    23364.894    15410.280     5575.935        6.790        2.218      302.412       90.161        0.089      344.900       22.045      859.038
08/25/2014  18:03:00     -194.409     -114.688        7.330      146.887      105.677       68.866    21575.831    11167.647     4742.477        4.424        1.874      225.717       84.323        0.140      344.948       22.126      859.054
08/25/2014  18:04:00     -239.861     -153.732       -4.256      160.749      136.311       78.732    25840.117    18580.635     6198.694        6.589        2.531      284.898       68.934        0.059      344.897       22.041      859.053
08/25/2014  18:05:00     -256.403     -120.062        3.371      202.392      122.928       71.916    40962.466    15111.206     5171.956        7.069        3.062      283.121       85.723        0.092      344.866       21.987      859.066
08/25/2014  18:06:00     -302.304     -166.886      -32.572      178.846      114.077       74.900    31985.989    13013.632     5609.996        8.544        2.530      345.309       78.028        0.051      344.840       21.940      859.074
08/25/2014  18:07:00     -194.087     -158.075       -2.628      159.417      124.379       84.030    25413.891    15470.238     7060.968        5.530        2.397      250.315       85.133        0.116      344.849       21.956      859.088
08/25/2014  18:08:00     -322.431     -134.115       -8.266      168.060      134.081       63.823    28244.022    17977.825     4073.414        8.615        2.515      349.211       73.383        0.044      344.815       21.897      859.110
08/25/2014  18:09:00     -349.715     -159.495        6.988      183.282      163.059       80.712    33592.318    26588.262     6514.491       10.723        3.335      384.369       83.107        0.047      344.781       21.839      859.107
08/25/2014  18:10:00     -286.356     -195.474       -3.455      161.626      136.121       86.162    26123.010    18528.801     7423.910        8.614        2.604      346.713       78.282        0.051      344.787       21.849      859.126
08/25/2014  18:11:00     -182.416     -163.548       33.702      183.884      133.459       95.046    33813.239    17811.427     9033.817        6.090        3.033      244.997      100.334        0.168      344.770       21.821      859.125
08/25/2014  18:12:00     -133.946      -87.968       11.023      176.194      119.478       82.930    31044.172    14274.943     6877.358        3.899        2.610      160.249       91.270        0.324      344.766       21.817      859.142
08/25/2014  18:13:00     -274.696      -76.515       -3.420      167.519      110.071       83.384    28062.647    12115.726     6952.822        6.422        2.357      285.153       76.459        0.072      344.719       21.735      859.147
08/25/2014  18:14:00     -378.344     -101.599      -11.239      161.938      179.686       92.929    26224.010    32287.177     8635.759       11.036        3.357      391.748       92.368        0.056      344.666       21.642      859.169
08/25/2014  18:15:00     -458.553       -9.322      -38.784      152.247      198.375       72.431    23179.144    39352.661     5246.255       13.981        3.389      458.648       65.431        0.020      344.640       21.599      859.171
08/25/2014  18:16:00     -296.646     -137.570       -6.253      162.693      104.298       68.972    26469.074    10878.117     4757.099        7.453        2.105      326.993       76.702        0.055      344.698       21.697      859.199
08/25/2014  18:17:00     -297.936      -52.187      -25.002      135.180      119.279       62.234    18273.576    14227.566     3873.048        6.424        1.819      302.472       66.191        0.048      344.670       21.650      859.200
08/25/2014  18:18:00     -284.170      -97.595        2.253      180.128      145.637       77.146    32446.052    21210.231     5951.453        7.493        2.980      300.462       60.339        0.040      344.663       21.637      859.181
08/25/2014  18:19:00     -215.667     -135.906        9.454      206.188      166.313       86.932    42513.439    27659.914     7557.240        7.139        3.887      254.916      108.719        0.182      344.625       21.574      859.172
08/25/2014  18:20:00     -288.517     -158.546       -2.396      203.681      151.146       87.286    41486.034    22845.149     7618.858        9.015        3.598      329.209      102.419        0.097      344.554       21.452      859.194
08/25/2014  18:21:00     -378.505       14.737      -10.487      220.204      131.230       77.762    48489.903    17221.332     6046.930       10.766        3.588      378.791       97.731        0.067      344.537       21.422      859.213
08/25/2014  18:22:00     -287.616       -1.553      -10.377      204.192      124.576       85.015    41694.434    15519.095     7227.565        7.362        3.222      287.620      107.169        0.139      344.554       21.452      859.197
08/25/2014  18:23:00     -408.223      -80.541      -32.980      224.316      152.136       88.475    50317.872    23145.456     7827.880       12.774        4.065      416.092      103.779        0.062      344.532       21.413      859.200
08/25/2014  18:24:00     -435.550     -134.389      -31.657      191.343      148.070       72.236    36612.227    21924.841     5218.067       13.625        3.188      455.812       76.672        0.028      344.525       21.401      859.191
08/25/2014  18:25:00     -455.014     -173.758      -24.738      238.676      202.191       90.959    56965.999    40881.092     8273.614       17.196        5.306      487.062      113.321        0.054      344.517       21.388      859.194
08/25/2014  18:26:00     -357.649      -89.677       -1.642      200.360      126.479       72.077    40144.080    15997.028     5195.035        9.863        3.067      368.720       90.749        0.061      344.594       21.520      859.204
08/25/2014  18:27:00     -402.521     -193.279      -12.043      171.937      122.589       73.215    29562.377    15028.001     5360.486       12.473        2.498      446.520       79.408        0.032      344.529       21.409      859.202
08/25/2014  18:28:00     -473.256      -41.976      -41.047      211.910      168.953       74.161    44905.890    28545.059     5499.897       15.317        3.948      475.114       82.128        0.030      344.522       21.397      859.196
08/25/2014  18:29:00     -431.003     -169.170      -10.619      189.528      132.513       85.773    35920.968    17559.740     7356.948       13.765        3.042      463.014       94.105        0.041      344.506       21.370      859.159
08/25/2014  18:30:00     -361.355     -153.390      -13.939      168.791      137.925       63.048    28490.382    19023.292     3975.058       10.288        2.574      392.563       68.318        0.030      344.552       21.448      859.163
08/25/2014  18:31:00     -372.311     -112.341       -0.797      167.401      103.959       63.867    28023.185    10807.560     4078.993        9.706        2.145      388.891       71.436        0.034      344.544       21.434      859.138
08/25/2014  18:32:00     -306.895      -84.078       10.478      254.854      130.043       95.769    64950.452    16911.302     9171.720        9.618        4.552      318.204      125.575        0.156      344.578       21.495      859.139
08/25/2014  18:33:00     -458.121      -89.510        0.257      214.166      138.804       95.172    45867.076    19266.449     9057.709       14.602        3.710      466.783      113.794        0.059      344.477       21.321      859.143
08/25/2014  18:34:00     -161.477      -54.960       -4.338      179.091       94.309       85.104    32073.740     8894.123     7242.619        3.865        2.411      170.574       71.827        0.177      344.544       21.435      859.134
08/25/2014  18:35:00     -189.791      -58.701        3.973      126.617      110.596       63.200    16031.849    12231.477     3994.184        3.586        1.613      198.662       52.042        0.069      344.598       21.529      859.119
08/25/2014  18:36:00     -450.689     -127.738      -10.134      259.496      188.667       99.063    67337.946    35595.415     9813.437       16.612        5.637      468.442      112.630        0.058      344.439       21.255      859.099
08/25/2014  18:37:00     -523.141      -32.196      -37.965      207.940      160.905       88.197    43238.984    25890.499     7778.659       17.652        3.845      524.130      107.689        0.042      344.391       21.172      859.081
08/25/2014  18:38:00     -342.141      -35.935        8.564      261.153      162.028       98.842    68201.000    26253.134     9769.677       11.130        5.211      344.023      128.379        0.139      344.466       21.303      859.074
08/25/2014  18:39:00     -378.490      -44.768       -8.380      179.132      144.809       85.306    32088.250    20969.541     7277.069       10.282        3.017      381.129       82.559        0.047      344.474       21.315      859.078
08/25/2014  18:40:00     -489.297     -139.097      -25.607      279.951      172.646       83.029    78372.636    29806.476     6893.846       18.722        5.754      508.684      103.606        0.041      344.442       21.260      859.060
08/25/2014  18:41:00     -419.405      -44.735      -25.059      150.683      148.654       81.263    22705.383    22097.986     6603.647       11.496        2.570      421.784       74.427        0.031      344.443       21.261      859.065
08/25/2014  18:42:00     -478.684      -87.025      -31.106      211.971      177.265       79.748    44931.796    31422.999     6359.791       16.018        4.136      486.530       79.417        0.027      344.424       21.230      859.079
08/25/2014  18:43:00     -413.548      -21.992      -18.682      225.241      171.167       85.720    50733.573    29298.174     7347.944       12.960        4.369      414.133      101.377        0.060      344.403       21.194      859.065
08/25/2014  18:44:00     -217.986      -29.520        0.576      208.640      146.243       79.313    43530.767    21386.954     6290.574        5.978        3.560      219.976       98.648        0.201      344.467       21.304      859.084
08/25/2014  18:45:00     -349.996      -82.434      -19.976      215.370      140.437       83.643    46384.158    19722.660     6996.227       10.138        3.655      359.573      102.692        0.082      344.402       21.193      859.069
08/25/2014  18:46:00     -391.992       20.652      -16.585      164.106      177.858       78.722    26930.816    31633.638     6197.135       10.955        3.238      392.536       59.338        0.023      344.402       21.192      859.081
08/25/2014  18:47:00     -340.067      -21.890       -7.247      204.844      153.634       71.748    41961.036    23603.520     5147.737        9.343        3.536      340.770       87.659        0.066      344.407       21.201      859.073
08/25/2014  18:48:00     -121.551      -52.989        8.899      135.774      118.769       62.243    18434.535    14106.145     3874.217        2.703        1.821      132.599       65.142        0.241      344.464       21.299      859.071
08/25/2014  18:49:00     -176.056      -89.784        3.076      150.179       99.950       72.969    22553.659     9990.065     5324.427        3.846        1.893      197.628       84.399        0.182      344.420       21.223      859.079
08/25/2014  18:50:00     -258.667     -185.877       -1.631      163.700      134.181       83.247    26797.793    18004.638     6930.053        7.659        2.587      318.526       84.567        0.070      344.378       21.150      859.067
08/25/2014  18:51:00     -368.394     -111.251      -20.568      167.602      191.354       76.027    28090.431    36616.419     5780.129       10.949        3.524      384.825       77.587        0.041      344.406       21.198      859.086
08/25/2014  18:52:00     -314.932      -40.873       -0.244      176.485      149.352       75.337    31146.924    22305.876     5675.704        7.998        2.956      317.573       75.232        0.056      344.384       21.161      859.109
08/25/2014  18:53:00     -229.280      -65.710      -15.370      124.835      146.535       68.097    15583.853    21472.530     4637.178        4.940        2.085      238.510       61.043        0.066      344.447       21.269      859.132
08/25/2014  18:54:00     -275.597      -16.648        3.066      196.868      111.842       77.335    38757.096    12508.638     5980.766        6.673        2.862      276.100       97.402        0.124      344.388       21.168      859.155
08/25/2014  18:55:00     -306.663       -1.772      -18.103      104.175      103.277       63.547    10852.483    10666.210     4038.169        5.996        1.278      306.668       54.382        0.031      344.386       21.164      859.180
08/25/2014  18:56:00     -376.209      -34.423      -23.992      162.307      152.104       76.955    26343.585    23135.656     5922.021        9.934        2.770      377.781       89.076        0.056      344.352       21.106      859.164
08/25/2014  18:57:00     -354.723      -86.853       -4.735      129.882      139.748       70.690    16869.210    19529.595     4997.032        8.739        2.070      365.201       64.569        0.031      344.354       21.108      859.154
08/25/2014  18:58:00     -445.934     -114.760      -22.186      142.783      182.358       68.923    20386.877    33254.319     4750.415       13.544        2.920      460.464       56.818        0.015      344.325       21.062      859.166
08/25/2014  18:59:00     -407.238      -27.756      -30.765      254.245      155.314       87.989    64640.495    24122.565     7742.071       13.201        4.825      408.183      103.074        0.064      344.337       21.081      859.188
08/25/2014  19:00:00     -499.926      -99.988       -9.175      292.518      160.712       83.050    85566.807    25828.386     6897.333       18.913        5.915      509.827      109.506        0.046      344.332       21.073      859.216
08/25/2014  19:01:00     -325.778       18.055      -22.443      183.556      160.112       66.244    33692.712    25635.812     4388.270        8.533        3.186      326.278       72.529        0.049      344.322       21.056      859.251
08/25/2014  19:02:00     -225.719      -16.724       13.970      123.088      103.471       58.309    15150.662    10706.351     3399.928        4.033        1.463      226.338       57.360        0.064      344.359       21.119      859.277
08/25/2014  19:03:00     -324.467      -38.364      -18.986      161.456      134.018       61.898    26067.912    17960.882     3831.329        7.748        2.393      326.727       72.239        0.049      344.314       21.043      859.284
08/25/2014  19:04:00     -300.484      -14.018       -7.116      151.623      149.971       71.246    22989.624    22491.434     5076.027        7.054        2.528      300.811       66.982        0.050      344.334       21.076      859.284
08/25/2014  19:05:00     -453.576      -22.779      -42.693      157.991      154.940       83.267    24961.010    24006.555     6933.436       13.198        2.795      454.147       78.343        0.030      344.283       20.988      859.281
08/25/2014  19:06:00     -461.496     -109.277      -28.256      228.557      131.407       83.625    52238.202    17267.930     6993.084       15.109        3.825      474.257       98.316        0.043      344.273       20.973      859.281
08/25/2014  19:07:00     -362.599      -67.002       -7.868      143.742      142.300       70.428    20661.655    20249.311     4960.114        9.094        2.294      368.737       73.119        0.039      344.261       20.951      859.290
08/25/2014  19:08:00     -425.034      -44.743      -20.288      150.398      114.750       64.867    22619.504    13167.470     4207.694       11.152        2.000      427.382       68.861        0.026      344.244       20.921      859.301
08/25/2014  19:09:00     -482.073      -58.388      -16.425      173.330      122.911       79.813    30043.437    15107.137     6370.132       14.379        2.576      485.596       69.454        0.020      344.203       20.852      859.304
08/25/2014  19:10:00     -456.291     -116.586      -13.443      215.222      139.010       75.265    46320.468    19323.849     5664.853       14.663        3.565      470.950       93.245        0.039      344.209       20.862      859.298
08/25/2014  19:11:00     -446.303      -64.055      -26.475      146.946      115.800       61.086    21593.008    13409.555     3731.463       12.135        1.937      450.877       65.275        0.021      344.198       20.842      859.317
08/25/2014  19:12:00     -549.417      -26.486      -43.989      225.025      114.887       82.239    50636.150    13198.981     6763.325       18.753        3.530      550.055      111.440        0.041      344.178       20.810      859.327
08/25/2014  19:13:00     -282.520     -125.021        0.749      195.222      147.018       84.912    38111.629    21614.354     7210.127        8.118        3.347      308.946       86.274        0.078      344.183       20.818      859.336
08/25/2014  19:14:00     -551.660      -71.662      -44.501      203.252      145.968       81.193    41311.273    21306.517     6592.368       19.031        3.461      556.295       74.383        0.018      344.131       20.729      859.360
08/25/2014  19:15:00     -488.872       -7.060      -31.127      190.560      151.330       87.265    36313.111    22900.685     7615.186       15.341        3.341      488.923       86.645        0.031      344.123       20.716      859.384
08/25/2014  19:16:00     -381.357     -114.629      -13.538      240.687      126.405       84.377    57930.074    15978.131     7119.530       11.988        4.051      398.212       99.441        0.062      344.130       20.726      859.406
08/25/2014  19:17:00     -426.917      -49.421      -14.258      225.439      156.295       82.265    50822.618    24428.080     6767.561       13.344        4.101      429.768       93.812        0.048      344.097       20.671      859.426
08/25/2014  19:18:00     -364.272      -53.876      -11.997      207.357      159.823       82.619    42996.897    25543.342     6825.947       10.554        3.768      368.235       87.984        0.057      344.103       20.682      859.444
08/25/2014  19:19:00     -343.740       -2.183      -16.801      146.303      120.904       69.606    21404.500    14617.740     4844.986        7.965        2.043      343.747       70.383        0.042      344.088       20.656      859.467
08/25/2014  19:20:00     -431.248      -71.265      -16.173      173.974      133.229       78.655    30266.890    17749.916     6186.629       12.275        2.710      437.097       82.819        0.036      344.095       20.669      859.450
08/25/2014  19:21:00     -378.431      -20.781      -11.254      177.397      139.058       78.575    31469.750    19337.203     6174.100       10.036        2.849      379.001       85.569        0.051      344.054       20.598      859.478
08/25/2014  19:22:00     -489.679      -52.574      -14.150      254.463      156.707       91.707    64751.328    24556.993     8410.244       17.021        4.886      492.493      115.105        0.055      344.054       20.598      859.501
08/25/2014  19:23:00     -403.613     -108.152      -11.507      211.633      156.356       79.232    44788.676    24447.146     6277.714       12.511        3.776      417.852       84.178        0.041      344.061       20.611      859.501
08/25/2014  19:24:00     -449.432     -127.808      -17.296      200.842      116.327       91.741    40337.355    13531.915     8416.382       14.044        3.114      467.252       98.999        0.045      344.066       20.619      859.510
08/25/2014  19:25:00     -424.372      -36.338      -34.188      271.847      129.929       91.833    73900.592    16881.576     8433.354       14.088        4.961      425.925      128.353        0.091      344.057       20.604      859.545
08/25/2014  19:26:00     -247.771        4.662        0.358      151.628      138.947       74.559    22990.969    19306.229     5559.024        5.462        2.393      247.815       70.270        0.080      344.064       20.616      859.572
08/25/2014  19:27:00     -508.232      -98.615      -34.857      211.351      142.258       95.300    44669.306    20237.350     9082.019       17.160        3.699      517.711       97.659        0.036      344.082       20.646      859.588
08/25/2014  19:28:00     -319.983      -69.179       -1.954      155.928      135.900       66.863    24313.616    18468.792     4470.702        7.721        2.363      327.376       65.600        0.040      344.100       20.675      859.626
08/25/2014  19:29:00     -290.382     -128.868      -38.813      152.948      126.185       82.990    23393.104    15922.687     6887.340        7.431        2.310      317.692       69.465        0.048      344.126       20.721      859.634
08/25/2014  19:30:00     -229.097      -85.397       -1.893      141.463      145.021       74.683    20011.654    21031.006     5577.621        5.319        2.331      244.495       57.413        0.055      344.123       20.715      859.661
08/25/2014  19:31:00     -275.059      -40.318       -8.779      126.015       96.824       68.593    15879.837     9374.981     4705.008        5.365        1.498      277.998       55.856        0.040      344.091       20.661      859.679
08/25/2014  19:32:00     -280.658      -71.268       -8.830      214.189      124.064       75.502    45876.793    15391.954     5700.601        7.543        3.348      289.565       77.520        0.072      344.100       20.677      859.698
08/25/2014  19:33:00     -250.819     -168.062        2.725      145.838      115.557       70.841    21268.708    13353.436     5018.484        6.539        1.982      301.919       66.883        0.049      344.127       20.721      859.716
08/25/2014  19:34:00     -231.137     -132.729        7.559      173.640      125.041       84.513    30150.781    15635.175     7142.378        6.200        2.646      266.535       95.026        0.127      344.130       20.728      859.728
08/25/2014  19:35:00     -272.552     -119.525       -9.270      154.963      135.211       68.435    24013.671    18281.996     4683.392        6.781        2.349      297.608       85.382        0.082      344.121       20.713      859.749
08/25/2014  19:36:00     -213.158      -31.165        6.122      138.980      108.854       73.569    19315.552    11849.253     5412.350        4.150        1.829      215.424       68.114        0.100      344.108       20.690      859.774
08/25/2014  19:37:00     -276.999      -20.350      -24.156      137.601       91.161       64.981    18934.166     8310.348     4222.481        5.459        1.573      277.746       69.538        0.063      344.114       20.698      859.804
08/25/2014  19:38:00     -269.967      -24.915      -25.103       97.610      103.762       55.894     9527.735    10766.619     3124.103        4.877        1.171      271.114       49.774        0.034      344.118       20.705      859.831
08/25/2014  19:39:00     -273.013      -30.126       -7.705      113.354       84.040       54.376    12849.068     7062.658     2956.771        4.918        1.143      274.670       45.845        0.028      344.093       20.663      859.842
08/25/2014  19:40:00     -270.860      -58.243      -21.053      123.727      122.619       47.572    15308.253    15035.398     2263.078        5.490        1.630      277.051       38.707        0.020      344.121       20.713      859.845
08/25/2014  19:41:00     -449.035      -61.530      -20.503      139.490      117.284       70.025    19457.497    13755.484     4903.567       12.197        1.906      453.232       69.391        0.023      344.121       20.713      859.863
08/25/2014  19:42:00     -303.487        9.219      -16.389      164.384       95.885       60.642    27022.244     9193.938     3677.421        6.617        1.995      303.627       75.243        0.061      344.127       20.723      859.868
08/25/2014  19:43:00     -229.263       -4.425       10.207      123.394       97.642       54.825    15226.019     9534.000     3005.822        4.022        1.388      229.306       58.224        0.064      344.108       20.691      859.876
08/25/2014  19:44:00     -278.666      -29.002       -7.099      134.049      104.234       63.966    17969.086    10864.785     4091.658        5.573        1.646      280.171       59.797        0.046      344.113       20.698      859.881
08/25/2014  19:45:00     -340.772      -98.736       -9.084      148.518       96.395       61.553    22057.697     9292.023     3788.830        8.054        1.757      354.788       62.623        0.031      344.143       20.751      859.890
08/25/2014  19:46:00     -305.749      -19.280      -13.218      129.477       88.536       59.224    16764.341     7838.677     3507.477        6.106        1.406      306.356       68.339        0.050      344.128       20.725      859.893
08/25/2014  19:47:00     -225.169      -90.727        4.587      110.148       83.376       56.188    12132.546     6951.640     3157.122        4.059        1.112      242.760       61.186        0.064      344.147       20.756      859.903
08/25/2014  19:48:00     -250.000      -83.488       -4.525      136.513       88.886       53.791    18635.728     7900.771     2893.450        4.945        1.471      263.572       71.704        0.074      344.153       20.766      859.911
08/25/2014  19:49:00     -279.229      -47.125      -18.904       94.233       73.491       44.260     8879.828     5400.973     1958.989        4.839        0.812      283.177       41.784        0.022      344.153       20.766      859.930
08/25/2014  19:50:00     -204.368      -11.545      -11.587      114.915       69.965       44.085    13205.446     4895.147     1943.458        3.103        1.002      204.694       51.304        0.063      344.116       20.705      859.944
08/25/2014  19:51:00     -126.432       15.941       -2.409       82.680       58.147       41.085     6835.954     3381.055     1688.004        1.407        0.595      127.433       39.485        0.096      344.139       20.743      859.965
08/25/2014  19:52:00     -201.104      -15.895      -16.594       75.055       70.957       45.230     5633.240     5034.928     2045.760        2.684        0.636      201.731       37.203        0.034      344.119       20.709      859.978
08/25/2014  19:53:00     -221.831      -36.045      -16.449       63.403       64.186       39.184     4019.893     4119.780     1535.386        3.023        0.484      224.741       33.182        0.022      344.126       20.721      860.006
08/25/2014  19:54:00     -271.700      -47.789       -4.287      109.902       94.831       52.991    12078.416     8992.968     2808.035        5.000        1.194      275.870       57.706        0.044      344.147       20.757      860.020
08/25/2014  19:55:00     -252.894      -74.303      -11.146       96.234       87.403       55.567     9260.942     7639.266     3087.722        4.479        0.999      263.584       32.937        0.016      344.186       20.822      860.030
08/25/2014  19:56:00     -170.046      -29.779       -7.318       92.318       80.734       41.968     8522.673     6518.044     1761.279        2.333        0.840      172.634       38.151        0.049      344.158       20.776      860.052
08/25/2014  19:57:00     -125.320      -55.058       11.962       90.571       97.553       53.846     8203.125     9516.519     2899.344        1.975        1.031      136.881       46.684        0.116      344.188       20.829      860.057
08/25/2014  19:58:00     -210.074     -101.479      -12.094       61.384       77.806       41.270     3767.974     6053.728     1703.193        3.305        0.576      233.301       33.158        0.020      344.214       20.870      860.077
08/25/2014  19:59:00     -157.439      -61.880        2.348      106.246       59.297       35.135    11288.234     3516.086     1234.461        2.233        0.802      169.163       48.087        0.081      344.214       20.873      860.097
08/25/2014  20:00:00     -214.643      -48.699        1.674      120.969       69.051       50.866    14633.549     4768.096     2587.397        3.521        1.099      220.098       62.759        0.081      344.235       20.907      860.101
08/25/2014  20:01:00     -282.473      -39.809      -10.792       88.043       66.938       52.186     7751.533     4480.666     2723.354        4.822        0.748      285.264       49.822        0.031      344.272       20.970      860.109
08/25/2014  20:02:00     -194.909      -13.358       -0.641      117.079       74.636       56.779    13707.598     5570.482     3223.852        3.033        1.125      195.366       63.248        0.105      344.277       20.980      860.117
08/25/2014  20:03:00     -241.565      -52.712      -12.865       94.726       95.575       40.675     8972.947     9134.648     1654.439        4.053        0.988      247.250       32.293        0.017      344.319       21.049      860.133
08/25/2014  20:04:00     -166.785      -61.128       -0.019      103.457       73.525       48.832    10703.333     5405.890     2384.586        2.502        0.925      177.634       43.999        0.061      344.318       21.049      860.150
08/25/2014  20:05:00     -273.843       51.086      -17.970       75.383       60.600       44.882     5682.531     3672.365     2014.367        4.464        0.568      278.568       35.462        0.016      344.347       21.097      860.163
08/25/2014  20:06:00     -183.072      -43.904        2.238       85.657       61.834       41.723     7337.046     3823.440     1740.786        2.417        0.645      188.262       40.605        0.047      344.346       21.097      860.202
08/25/2014  20:07:00     -148.625      -32.222        2.755       77.029       63.581       33.147     5933.470     4042.569     1098.734        1.710        0.554      152.077       31.970        0.044      344.384       21.164      860.235
08/25/2014  20:08:00     -141.366      -53.327       -5.663       53.568       42.557       29.669     2869.560     1811.096      880.261        1.421        0.278      151.090       23.458        0.024      344.369       21.140      860.280
08/25/2014  20:09:00     -130.946      124.418      -23.604       61.023      132.067       39.545     3723.808    17441.821     1563.833        2.795        1.136      180.629       48.612        0.072      344.394       21.181      860.350
08/25/2014  20:10:00     -159.043      248.969      -42.986       75.567       68.181       47.764     5710.388     4648.599     2281.405        5.088        0.632      295.433       46.251        0.025      344.464       21.296      860.496
08/25/2014  20:11:00      -40.494      311.814      -38.605       70.048      125.494       54.346     4906.688    15748.682     2953.471        6.198        1.180      314.432       58.116        0.034      344.598       21.528      860.576
08/25/2014  20:12:00       12.333      266.982      -21.444      108.987      170.414       70.849    11878.262    29040.952     5019.625        5.891        2.297      267.267       82.641        0.096      344.561       21.465      860.519
08/25/2014  20:13:00       -8.180      183.684       -9.978       94.990      100.588       66.454     9023.096    10117.936     4416.141        2.873        1.178      183.866       55.108        0.090      344.529       21.408      860.562
08/25/2014  20:14:00      -33.543      124.803       -4.996      100.303      107.600       45.700    10060.726    11577.701     2088.514        2.022        1.186      129.232       47.302        0.134      344.495       21.353      860.579
08/25/2014  20:15:00     -147.300      218.743      -23.580      159.040      117.933       80.812    25293.680    13908.146     6530.574        5.791        2.287      263.715       85.574        0.105      344.424       21.229      860.574
08/25/2014  20:16:00     -215.459      350.409      -61.725      120.878      155.506       65.558    14611.528    24182.119     4297.915       10.805        2.155      411.350       73.952        0.032      344.398       21.185      860.571
08/25/2014  20:17:00     -253.093      369.702      -69.848      177.605      188.188       77.614    31543.617    35414.782     6023.993       13.928        3.649      448.035       74.421        0.028      344.320       21.052      860.588
08/25/2014  20:18:00     -164.962      438.775      -57.592      115.511      187.609       74.424    13342.812    35197.106     5538.985       13.856        2.704      468.760       71.698        0.023      344.275       20.974      860.623
08/25/2014  20:19:00     -150.893      266.256      -30.831      110.527      181.235       69.284    12216.122    32845.952     4800.263        7.223        2.493      306.040       76.339        0.062      344.268       20.963      860.666
08/25/2014  20:20:00     -159.973      396.260      -33.860      129.529      218.694       91.700    16777.672    47826.891     8408.862       12.837        3.651      427.332      105.322        0.061      344.168       20.792      860.706
08/25/2014  20:21:00     -149.080      489.298      -63.804      128.834      187.711       78.415    16598.202    35235.574     6148.970       16.183        2.899      511.506       69.450        0.018      344.077       20.638      860.707
08/25/2014  20:22:00     -207.731      487.594      -52.803      133.107      197.053       86.629    17717.442    38829.963     7504.560       17.386        3.203      530.000       79.569        0.023      343.939       20.400      860.733
08/25/2014  20:23:00     -161.729      520.294      -52.168      123.876      242.187       91.675    15345.234    58654.514     8404.316       19.098        4.120      544.851       96.435        0.031      343.885       20.309      860.727
08/25/2014  20:24:00      -97.371      149.227      -13.618      112.030      135.739       67.906    12550.709    18425.212     4611.219        3.375        1.779      178.185       69.536        0.152      343.922       20.372      860.733
08/25/2014  20:25:00      -76.459      268.317      -41.585      113.301      147.340       70.199    12837.179    21708.953     4927.938        5.951        1.974      278.998       72.241        0.067      343.888       20.315      860.745
08/25/2014  20:26:00      -98.251      309.473      -25.787      123.044      141.826       74.010    15139.848    20114.563     5477.493        7.340        2.037      324.695       67.169        0.043      343.841       20.235      860.740
08/25/2014  20:27:00      -13.595      426.409      -50.246      118.144      136.227       76.022    13958.111    18557.821     5779.410       11.141        1.915      426.626       65.171        0.023      343.859       20.265      860.749
08/25/2014  20:28:00      -83.011      355.950      -36.353      106.452      138.809       79.550    11332.032    19267.982     6328.252        8.591        1.846      365.501       81.472        0.050      343.876       20.294      860.788
08/25/2014  20:29:00     -121.303      273.145      -23.350      118.970      146.374       75.436    14153.874    21425.349     5690.647        6.556        2.063      298.869       77.502        0.067      343.875       20.292      860.830
08/25/2014  20:30:00      -99.507      255.630      -28.453       89.774      139.150       59.195     8059.376    19362.858     3504.058        5.349        1.546      274.314       58.612        0.046      343.824       20.204      860.887
08/25/2014  20:31:00     -134.394      324.499      -48.991      140.347      124.342       55.879    19697.188    15460.949     3122.448        8.201        1.914      351.228       59.872        0.029      343.827       20.211      860.929
08/25/2014  20:32:00      -57.884      191.243      -12.207       87.389       80.102       50.940     7636.923     6416.270     2594.857        2.836        0.832      199.811       45.207        0.051      343.871       20.287      860.947
08/25/2014  20:33:00       33.243      202.896      -25.074       65.592       97.571       54.346     4302.296     9520.054     2953.503        2.983        0.839      205.601       50.497        0.060      343.864       20.272      860.994
08/25/2014  20:34:00      -30.003      315.175      -29.499       70.617      110.262       53.189     4986.713    12157.811     2829.035        6.054        0.999      316.599       42.717        0.018      343.936       20.394      861.028
08/25/2014  20:35:00       62.742      117.891       24.950       83.903       99.931       71.132     7039.747     9986.134     5059.741        2.027        1.104      133.547       61.223        0.210      343.936       20.396      861.061
08/25/2014  20:36:00       17.815      117.055        4.445       63.366      117.167       54.989     4015.287    13728.118     3023.736        1.740        1.038      118.403       67.525        0.325      343.940       20.405      861.103
08/25/2014  20:37:00      -27.897      187.394      -22.592       89.580      110.259       47.582     8024.587    12156.952     2264.071        2.942        1.122      189.459       57.593        0.092      343.926       20.379      861.130
08/25/2014  20:38:00       57.037       52.318        3.744       45.377       47.053       28.192     2059.040     2214.023      794.789        0.554        0.253       77.398       14.745        0.036      343.954       20.431      861.145
08/25/2014  20:39:00       31.264      -60.454       11.609       53.790       79.503       37.240     2893.343     6320.779     1386.793        0.768        0.530       68.060       35.900        0.278      344.062       20.616      861.147
08/25/2014  20:40:00       56.244      -62.154        0.487       75.858       73.071       49.241     5754.435     5339.444     2424.699        1.027        0.676       83.824       48.264        0.332      344.060       20.610      861.144
08/25/2014  20:41:00       99.899     -172.102      -13.722       57.332       85.057       42.078     3286.954     7234.670     1770.579        2.604        0.615      198.995       28.109        0.020      343.911       20.352      861.154
08/25/2014  20:42:00       77.484      -59.088       28.575       72.180      125.698       77.544     5209.888    15799.876     6012.998        1.866        1.351       97.443       95.635        0.963      343.897       20.331      861.167
08/25/2014  20:43:00       80.511      -42.410       39.620       78.787       99.849       53.059     6207.335     9969.888     2815.297        1.442        0.950       90.998       56.733        0.389      343.846       20.246      861.198
08/25/2014  20:44:00      104.484     -160.387       -7.558       65.024       93.262       38.593     4228.166     8697.735     1489.450        2.555        0.721      191.418       39.054        0.042      343.870       20.284      861.223
08/25/2014  20:45:00      107.197     -104.049       -9.960       81.891      101.901       57.811     6706.204    10383.866     3342.166        2.142        1.022      149.390       50.018        0.112      343.919       20.368      861.245
08/25/2014  20:46:00       41.052     -130.065       -3.910       57.241       60.589       45.223     3276.519     3671.075     2045.095        1.380        0.450      136.390       31.468        0.053      344.022       20.547      861.263
08/25/2014  20:47:00       -4.179       -2.252       16.627       34.048       27.172       21.236     1159.280      738.293      450.978        0.132        0.117        4.747       18.121       14.573      344.018       20.540      861.299
08/25/2014  20:48:00        7.680      -45.312       14.576       44.238       61.353       31.019     1956.982     3764.176      962.172        0.450        0.334       45.959       29.316        0.407      344.015       20.536      861.332
08/25/2014  20:49:00      -13.094       28.145       70.921       32.900       64.663       60.111     1082.433     4181.310     3613.323        0.743        0.444       31.042       57.304        3.408      344.118       20.709      861.351
08/25/2014  20:50:00        7.742        5.711       67.781       39.144       73.000       53.459     1532.244     5329.003     2857.903        0.720        0.486        9.620       45.485       22.354      344.021       20.546      861.378
08/25/2014  20:51:00      155.464     -166.815      -17.533       77.471      116.961       67.251     6001.706    13679.949     4522.713        3.825        1.210      228.027       81.275        0.127      343.981       20.474      861.385
08/25/2014  20:52:00      114.145      -12.409       39.492       87.703       53.034       45.291     7691.823     2812.616     2051.263        1.365        0.628      114.818       43.918        0.146      343.946       20.416      861.406
08/25/2014  20:53:00       59.915      -29.765       44.430       67.975       73.653       43.758     4620.534     5424.720     1914.787        0.920        0.598       66.901       49.249        0.542      343.991       20.491      861.434
08/25/2014  20:54:00       77.347       71.739       98.301       66.401       93.691       54.518     4409.076     8778.086     2972.197        1.847        0.808      105.495       61.254        0.337      343.938       20.402      861.449
08/25/2014  20:55:00      128.514      -65.710       25.312       89.277       87.133       54.407     7970.331     7592.239     2960.097        1.999        0.926      144.339       60.789        0.177      343.936       20.397      861.451
08/25/2014  20:56:00      159.004       28.119       75.867       96.365      116.542       74.411     9286.291    13582.036     5536.954        3.011        1.420      161.471       79.058        0.240      343.925       20.379      861.442
08/25/2014  20:57:00      100.296       26.663       70.223       82.886      142.014       75.412     6870.155    20167.931     5686.909        2.421        1.636      103.779       90.870        0.767      343.920       20.370      861.416
08/25/2014  20:58:00       73.675       27.037       82.357       86.167      104.909       66.974     7424.802    11005.989     4485.580        1.792        1.146       78.479       72.756        0.859      343.869       20.285      861.404
08/25/2014  20:59:00       77.896       -8.772       67.273       87.591      124.356       61.814     7672.155    15464.317     3820.923        1.881        1.348       78.388       65.825        0.705      343.857       20.263      861.382
08/25/2014  21:00:00      119.855       26.598       88.373      109.912      115.135       70.813    12080.754    13256.005     5014.431        2.661        1.518      122.771       68.810        0.314      343.893       20.323      861.390
08/25/2014  21:01:00       80.338       13.123       66.813       54.160       85.574       44.582     2933.269     7322.864     1987.521        1.166        0.612       81.402       36.003        0.196      343.881       20.305      861.411
08/25/2014  21:02:00      116.836       -2.709       43.134       85.031       94.202       60.481     7230.351     8874.007     3657.953        1.764        0.988      116.867       67.802        0.337      343.886       20.315      861.411
08/25/2014  21:03:00       46.401      -17.165       34.417       65.354       57.192       44.571     4271.194     3270.980     1986.565        0.658        0.476       49.474       40.474        0.669      343.914       20.361      861.410
08/25/2014  21:04:00       58.284        8.984       58.964       55.386       50.467       36.730     3067.589     2546.868     1349.127        0.696        0.348       58.973       29.292        0.247      343.941       20.406      861.399
08/25/2014  21:05:00       72.432       11.445       62.568       72.310       62.465       38.802     5228.696     3901.870     1505.566        0.996        0.532       73.330       35.501        0.234      343.922       20.375      861.383
08/25/2014  21:06:00       50.350       34.293       74.868       73.102       64.539       57.454     5343.830     4165.255     3301.010        1.106        0.641       60.919       53.380        0.768      343.884       20.311      861.374
08/25/2014  21:07:00       55.502       53.892       96.614       65.817       83.913       61.045     4331.930     7041.385     3726.498        1.521        0.755       77.362       67.383        0.759      343.874       20.293      861.353
08/25/2014  21:08:00       75.813      -24.729       55.853       66.502       95.330       68.706     4422.506     9087.900     4720.553        1.385        0.912       79.744       68.454        0.737      343.865       20.277      861.343
08/25/2014  21:09:00      107.254      -27.307       58.602      100.510       92.631       59.959    10102.278     8580.573     3595.075        1.898        1.114      110.676       75.541        0.466      343.912       20.355      861.336
08/25/2014  21:10:00       87.320      -32.503       54.032       73.630       70.632       53.723     5421.441     4988.909     2886.198        1.245        0.665       93.173       52.462        0.317      343.944       20.413      861.324
08/25/2014  21:11:00      100.328      -83.405       10.313       66.283       64.795       52.277     4393.393     4198.423     2732.890        1.422        0.566      130.469       39.126        0.090      343.957       20.435      861.332
08/25/2014  21:12:00      146.297     -224.126      -20.557       81.361       77.767       47.451     6619.562     6047.764     2251.611        4.349        0.746      267.648       43.003        0.026      344.088       20.655      861.314
08/25/2014  21:13:00       73.968      -34.143       52.600       82.514      124.754       83.486     6808.574    15563.624     6969.969        1.937        1.467       81.468       96.878        1.414      344.041       20.576      861.307
08/25/2014  21:14:00      108.584     -100.438       12.620      114.641      118.307       65.741    13142.475    13996.479     4321.908        2.674        1.573      147.913       78.130        0.279      344.050       20.592      861.295
08/25/2014  21:15:00       43.321      -26.850       44.592       57.757      139.484       67.418     3335.911    19455.898     4545.224        1.596        1.367       50.967       91.087        3.194      344.092       20.666      861.244
08/25/2014  21:16:00      108.133     -185.515      -19.585       84.177       64.972       53.783     7085.778     4221.426     2892.643        3.034        0.710      214.729       46.759        0.047      344.068       20.621      861.230
08/25/2014  21:17:00       69.255      -97.607       19.668       70.712      114.437       67.672     5000.253    13095.903     4579.469        1.869        1.134      119.680       77.054        0.415      344.016       20.534      861.204
08/25/2014  21:18:00       83.231     -148.912        4.326       94.424       68.770       41.087     8915.860     4729.373     1688.148        2.222        0.767      170.594       37.013        0.047      344.016       20.535      861.179
08/25/2014  21:19:00      -13.230     -124.639        5.131      100.413       79.797       60.317    10082.735     6367.490     3638.087        1.791        1.004      125.340       53.458        0.182      344.043       20.581      861.166
08/25/2014  21:20:00      -50.496     -128.888       17.319       68.264       81.670       52.704     4660.007     6670.061     2777.748        1.678        0.705      138.427       40.011        0.084      344.012       20.529      861.169
08/25/2014  21:21:00        1.044      -79.681       13.115       54.987       43.193       36.021     3023.555     1865.633     1297.488        0.635        0.309       79.688       22.669        0.081      343.992       20.494      861.193
08/25/2014  21:22:00      -53.255     -111.392       -0.377       67.247       80.178       36.032     4522.146     6428.527     1298.340        1.374        0.612      123.467       32.934        0.071      343.980       20.472      861.192
08/25/2014  21:23:00     -102.896     -103.495       -3.553       61.167       68.089       40.241     3741.348     4636.164     1619.368        1.565        0.500      145.941       32.446        0.049      343.973       20.460      861.194
08/25/2014  21:24:00     -109.954      -97.282        0.604       79.749       80.271       51.238     6359.885     6443.453     2625.285        1.849        0.771      146.811       56.107        0.146      343.979       20.471      861.213
08/25/2014  21:25:00     -177.421      -96.491       14.510      110.276       80.906       51.662    12160.726     6545.752     2668.980        3.118        1.069      201.963       54.607        0.073      343.882       20.304      861.221
08/25/2014  21:26:00     -158.094     -124.751        0.371      118.093       75.241       52.989    13945.945     5661.235     2807.840        3.148        1.121      201.386       65.317        0.105      343.824       20.206      861.245
08/25/2014  21:27:00     -199.595     -117.949       -0.852       96.776       72.710       53.060     9365.575     5286.737     2815.340        3.561        0.873      231.841       43.171        0.035      343.770       20.111      861.265
08/25/2014  21:28:00     -164.775     -112.323        0.263      107.373       84.933       50.627    11528.997     7213.582     2563.048        3.053        1.065      199.417       43.983        0.049      343.754       20.086      861.275
08/25/2014  21:29:00     -184.359     -102.331        0.844      101.293      106.753       53.669    10260.179    11396.253     2880.328        3.449        1.227      210.855       45.851        0.047      343.737       20.056      861.286
08/25/2014  21:30:00     -104.440     -190.240       -3.603       54.510       90.369       36.043     2971.353     8166.540     1299.118        2.977        0.622      217.023       38.024        0.031      343.765       20.104      861.299
08/25/2014  21:31:00     -134.632     -204.405       -5.904       80.822       93.314       44.142     6532.164     8707.477     1948.523        3.856        0.859      244.760       43.832        0.032      343.778       20.128      861.312
08/25/2014  21:32:00      -53.959      -84.559        0.624       70.517       41.382       33.699     4972.579     1712.443     1135.601        0.894        0.391      100.308       31.618        0.099      343.821       20.203      861.331
08/25/2014  21:33:00      -77.558     -175.114        4.243       91.747       86.493       49.747     8417.535     7480.962     2474.717        2.753        0.919      191.521       34.545        0.033      343.763       20.100      861.358
08/25/2014  21:34:00      -67.094      -95.297       12.196       81.369       81.181       62.607     6620.939     6590.362     3919.600        1.543        0.857      116.547       52.127        0.200      343.743       20.068      861.363
08/25/2014  21:35:00      -83.418      -73.291       -6.528       77.573       49.161       32.265     6017.583     2416.809     1041.020        1.092        0.474      111.041       33.386        0.090      343.755       20.089      861.350
08/25/2014  21:36:00     -160.161     -112.051       -6.033       76.317       80.519       40.421     5824.215     6483.283     1633.845        2.609        0.697      195.466       43.098        0.049      343.695       19.987      861.358
08/25/2014  21:37:00      -81.488      -61.893        6.780       77.644       46.893       37.954     6028.595     2198.978     1440.469        1.009        0.483      102.328       39.816        0.151      343.683       19.966      861.350
08/25/2014  21:38:00     -141.185      -62.148        4.501       89.979       81.256       41.765     8096.174     6602.467     1744.303        2.013        0.822      154.258       46.426        0.091      343.657       19.921      861.356
08/25/2014  21:39:00      -88.241      -93.400        1.921       65.837       53.771       34.994     4334.514     2891.302     1224.594        1.248        0.423      128.492       28.197        0.048      343.678       19.958      861.390
08/25/2014  21:40:00      -99.487      -89.878       -0.701       71.196       79.634       29.628     5068.940     6341.637      877.805        1.513        0.614      134.073       25.022        0.035      343.671       19.944      861.408
08/25/2014  21:41:00      -95.718     -118.165       -0.532       52.110       63.631       33.989     2715.437     4048.861     1155.285        1.552        0.396      152.069       29.684        0.038      343.685       19.968      861.432
08/25/2014  21:42:00     -118.317      -96.431       -2.822       74.442       46.309       39.825     5541.651     2144.485     1586.062        1.629        0.464      152.636       43.962        0.083      343.647       19.902      861.454
08/25/2014  21:43:00     -177.860      -75.342      -18.155       54.925       50.576       32.664     3016.794     2557.981     1066.953        2.214        0.332      193.160       26.049        0.018      343.674       19.946      861.471
08/25/2014  21:44:00     -166.946      -71.900       -8.233       36.390       39.768       23.486     1324.250     1581.475      551.605        1.828        0.173      181.770       22.242        0.015      343.645       19.902      861.491
08/25/2014  21:45:00     -164.181      -25.748       -8.411       48.477       44.221       32.000     2350.014     1955.509     1023.978        1.651        0.266      166.188       29.827        0.032      343.602       19.829      861.500
08/25/2014  21:46:00     -204.920      -56.421      -15.999       64.815       43.080       31.809     4200.948     1855.849     1011.809        2.625        0.353      212.545       29.494        0.019      343.561       19.755      861.510
08/25/2014  21:47:00     -217.505      -50.752      -20.419       66.244       79.908       33.180     4388.321     6385.314     1100.889        3.109        0.594      223.348       30.634        0.019      343.493       19.639      861.528
08/25/2014  21:48:00      -52.173      -25.980       12.797       68.337       39.960       28.700     4669.987     1596.824      823.663        0.532        0.355       58.283       36.324        0.388      343.454       19.579      861.530
08/25/2014  21:49:00     -162.960      -79.072      -13.287       52.577       50.229       36.504     2764.363     2523.002     1332.570        1.980        0.331      181.130       34.999        0.037      343.442       19.554      861.542
08/25/2014  21:50:00     -145.612      -71.084       -2.114       79.589       52.929       31.259     6334.372     2801.476      977.125        1.818        0.506      162.036       36.912        0.052      343.387       19.460      861.541
08/25/2014  21:51:00     -110.713      -26.940       -8.330       66.233       39.226       30.370     4386.839     1538.675      922.324        0.995        0.342      113.944       26.282        0.053      343.406       19.495      861.537
08/25/2014  21:52:00     -162.111        0.166      -18.913       50.057       46.752       32.654     2505.710     2185.754     1066.299        1.620        0.288      162.111       27.937        0.030      343.400       19.484      861.528
08/25/2014  21:53:00     -140.792      -24.235       -8.173       65.027       48.205       30.069     4228.568     2323.676      904.144        1.396        0.373      142.862       24.134        0.029      343.398       19.481      861.506
08/25/2014  21:54:00     -131.033      -63.578        3.319       71.699       39.495       32.505     5140.791     1559.841     1056.557        1.449        0.388      145.643       37.955        0.068      343.398       19.480      861.491
08/25/2014  21:55:00      -65.507      -40.698        6.912       40.976       39.852       24.133     1678.993     1588.147      582.411        0.492        0.192       77.120       22.221        0.083      343.396       19.479      861.460
08/25/2014  21:56:00     -113.978      -76.685       -0.368       56.940       52.352       32.644     3242.193     2740.710     1065.638        1.296        0.352      137.374       29.360        0.046      343.446       19.564      861.443
08/25/2014  21:57:00      -84.542      -61.251        7.387       56.805       44.064       30.319     3226.764     1941.598      919.242        0.852        0.304      104.399       31.673        0.092      343.548       19.736      861.428
08/25/2014  21:58:00     -137.460      -65.715       -3.062       64.578       45.494       27.871     4170.321     2069.705      776.792        1.512        0.351      152.361       26.461        0.030      343.529       19.703      861.424
08/25/2014  21:59:00     -161.459      -31.977       -5.823       38.023       29.692       21.461     1445.721      881.593      460.585        1.496        0.139      164.595       18.388        0.012      343.514       19.678      861.427
08/25/2014  22:00:00     -120.201      -14.790        1.638       34.996       29.826       27.132     1224.751      889.600      736.144        0.876        0.143      121.108       24.509        0.041      343.480       19.620      861.427
08/25/2014  22:01:00     -156.002      -27.256       -6.894       44.638       33.260       27.297     1992.550     1106.233      745.119        1.448        0.192      158.365       24.837        0.025      343.482       19.622      861.434
08/25/2014  22:02:00     -114.537      -57.208        2.571       53.718       37.184       29.372     2885.650     1382.659      862.689        1.076        0.257      128.029       30.026        0.055      343.456       19.581      861.434
08/25/2014  22:03:00      -96.538       -5.686       -2.252       55.294       39.524       19.440     3057.388     1562.170      377.913        0.718        0.250       96.705       21.548        0.050      343.450       19.569      861.435
08/25/2014  22:04:00     -108.473        4.009       -9.097       39.146       29.792       18.436     1532.410      887.585      339.873        0.731        0.138      108.547       18.032        0.028      343.406       19.494      861.436
08/25/2014  22:05:00      -66.574       23.152       -5.155       29.582       18.369       14.864      875.107      337.424      220.931        0.321        0.072       70.485       11.047        0.025      343.354       19.406      861.439
08/25/2014  22:06:00     -128.673       29.780      -11.973       20.579       19.799       12.174      423.497      392.002      148.211        0.928        0.048      132.075        5.544        0.002      343.417       19.513      861.450
08/25/2014  22:07:00      -85.606       18.692       -2.896       27.934       27.195       15.574      780.286      739.553      242.563        0.472        0.088       87.623       16.491        0.035      343.384       19.460      861.461
08/25/2014  22:08:00      -73.500       42.943      -10.966       19.651       14.535       12.047      386.146      211.253      145.121        0.405        0.037       85.126        5.876        0.005      343.409       19.500      861.477
08/25/2014  22:09:00      -89.788       36.038      -11.504       28.713       28.025       18.772      824.460      785.422      352.381        0.573        0.098       96.750       14.280        0.022      343.348       19.398      861.492
08/25/2014  22:10:00      -52.676       43.257        0.235       35.442       31.371       24.867     1256.114      984.150      618.361        0.375        0.143       68.161       18.852        0.076      343.301       19.316      861.499
08/25/2014  22:11:00      -63.122       27.870       -9.343       29.383       31.423       17.185      863.352      987.400      295.316        0.350        0.107       69.001       14.788        0.046      343.328       19.361      861.508
08/25/2014  22:12:00      -79.484       23.286       -8.989       30.827       25.390       16.565      950.322      644.662      274.399        0.440        0.093       82.825       15.321        0.034      343.314       19.338      861.514
08/25/2014  22:13:00      -58.176        5.556       -2.849       19.777       33.578       14.552      391.136     1127.481      211.769        0.258        0.087       58.441       12.842        0.048      343.316       19.342      861.517
08/25/2014  22:14:00      -61.293        6.794       -5.685       30.367       41.407       25.125      922.136     1714.515      631.256        0.355        0.163       61.668       20.894        0.115      343.313       19.335      861.517
08/25/2014  22:15:00      -97.616      -17.477       -8.830       27.216       31.405       20.256      740.720      986.281      410.286        0.602        0.107       99.168       16.212        0.027      343.244       19.219      861.507
08/25/2014  22:16:00      -98.179        1.533      -12.229       29.481       25.377       19.269      869.127      643.982      371.310        0.584        0.094       98.191       16.105        0.027      343.235       19.203      861.505
08/25/2014  22:17:00     -146.494      -11.715       -8.157       46.665       35.887       27.956     2177.611     1287.885      781.533        1.295        0.212      146.961       27.003        0.034      343.173       19.099      861.498
08/25/2014  22:18:00     -110.321       -3.588       -7.345       38.740       33.009       23.496     1500.761     1089.595      552.061        0.769        0.157      110.379       21.320        0.037      343.127       19.019      861.497
08/25/2014  22:19:00     -124.532      -16.869       -9.397       46.724       67.759       24.987     2183.103     4591.230      624.338        1.164        0.370      125.669       23.421        0.035      343.107       18.986      861.495
08/25/2014  22:20:00     -189.701        4.666      -30.394       33.406       34.451       20.090     1115.987     1186.896      403.622        1.982        0.135      189.759       16.194        0.007      343.190       19.126      861.489
08/25/2014  22:21:00     -135.324       16.842      -18.531       36.452       32.783       19.792     1328.763     1074.758      391.742        1.087        0.140      136.368       16.677        0.015      343.150       19.060      861.487
08/25/2014  22:22:00     -127.563      -40.235      -18.770       49.293       35.862       25.232     2429.821     1286.083      636.676        1.130        0.218      133.757       15.372        0.013      343.118       19.005      861.480
08/25/2014  22:23:00      -94.097      -34.961       -8.102       40.470       49.856       23.634     1637.811     2485.663      558.578        0.741        0.234      100.382       18.886        0.035      343.029       18.853      861.491
08/25/2014  22:24:00     -120.507      -26.896      -20.899       48.882       44.337       26.828     2389.495     1965.759      719.767        1.038        0.254      123.472       10.590        0.007      343.034       18.862      861.511
08/25/2014  22:25:00     -124.461       -9.016      -12.421       30.852       30.839       23.067      951.832      951.057      532.072        0.908        0.122      124.787       17.307        0.019      343.052       18.892      861.532
08/25/2014  22:26:00     -115.334       -4.337      -13.029       30.869       34.134       25.624      952.883     1165.134      656.584        0.813        0.139      115.416       14.987        0.017      343.018       18.835      861.551
08/25/2014  22:27:00      -61.645       -2.532       -1.018       53.557       27.084       29.789     2868.328      733.555      887.391        0.415        0.224       61.697       27.896        0.204      343.015       18.829      861.559
08/25/2014  22:28:00     -114.725      -25.397      -12.082       36.676       56.550       26.815     1345.155     3197.949      719.044        0.961        0.263      117.503       17.064        0.021      343.067       18.918      861.564
08/25/2014  22:29:00      -83.819       18.338       -1.538       40.669       22.591       20.121     1653.931      510.371      404.864        0.497        0.128       85.801       16.678        0.038      343.055       18.898      861.572
08/25/2014  22:30:00      -44.118       24.193       -1.870       33.444       26.479       17.339     1118.474      701.154      300.642        0.233        0.106       50.316       10.579        0.044      343.095       18.965      861.574
08/25/2014  22:31:00       -7.249       10.230       -2.599       16.206       26.354       11.652      262.628      694.549      135.776        0.063        0.055       12.538        7.129        0.323      343.105       18.982      861.584
08/25/2014  22:32:00      -64.414       57.430      -10.753       37.730       35.800       23.919     1423.515     1281.637      572.120        0.542        0.164       86.299       19.515        0.051      343.186       19.120      861.592
08/25/2014  22:33:00      -28.005       73.250       -2.609       26.163       24.074       20.858      684.495      579.567      435.054        0.393        0.085       78.420       12.184        0.024      343.171       19.094      861.590
08/25/2014  22:34:00      -22.281       53.134       -8.213       19.847       21.320       13.325      393.906      454.550      177.553        0.221        0.051       57.617        9.955        0.030      343.238       19.208      861.590
08/25/2014  22:35:00        2.872       55.300        4.367       19.550       26.479       16.594      382.219      701.139      275.375        0.222        0.068       55.374       15.989        0.083      343.269       19.263      861.598
08/25/2014  22:36:00       55.610       53.628       -1.170       29.987       26.515       25.157      899.214      703.070      632.883        0.410        0.112       77.256       21.613        0.078      343.341       19.385      861.615
08/25/2014  22:37:00       53.163       39.216       35.326       27.332       27.695       26.530      747.054      767.025      703.833        0.391        0.111       66.062       14.944        0.051      343.272       19.267      861.630
08/25/2014  22:38:00       96.548       66.462       43.630       41.172       21.141       23.593     1695.147      446.935      556.642        0.917        0.135      117.213       23.181        0.039      343.228       19.191      861.640
08/25/2014  22:39:00       79.924       60.494       40.457       59.934       31.346       41.565     3592.026      982.571     1727.653        0.899        0.315      100.237       40.734        0.165      343.187       19.121      861.656
08/25/2014  22:40:00       43.977       78.099       64.301       51.306       38.566       40.842     2632.321     1487.329     1668.050        0.898        0.289       89.630       38.158        0.181      343.199       19.142      861.656
08/25/2014  22:41:00      114.318       49.547       13.344       35.181       28.280       22.939     1237.677      799.762      526.177        0.913        0.128      124.593       13.352        0.011      343.239       19.211      861.659
08/25/2014  22:42:00       44.985       36.479       29.397       27.011       24.294       23.706      729.569      590.175      561.991        0.305        0.094       57.917       14.640        0.064      343.201       19.146      861.668
08/25/2014  22:43:00       77.812       41.320       15.024       22.230       15.969       19.459      494.182      255.020      378.644        0.456        0.056       88.102       13.901        0.025      343.163       19.081      861.678
08/25/2014  22:44:00       26.362       33.866       41.894       28.224       30.149       17.788      796.570      908.933      316.401        0.281        0.101       42.917       13.131        0.094      343.109       18.990      861.687
08/25/2014  22:45:00       34.324       -7.848       36.993       30.582       34.101       30.234      935.252     1162.865      914.113        0.281        0.151       35.210       24.580        0.487      343.132       19.030      861.689
08/25/2014  22:46:00       35.892      -35.970       21.626       37.196       56.223       37.387     1383.545     3161.014     1397.803        0.449        0.297       50.814       35.234        0.481      343.076       18.933      861.690
08/25/2014  22:47:00       73.608      -85.936       -8.126       29.285       28.868       21.943      857.602      833.376      481.489        0.752        0.109      113.151       13.389        0.014      343.088       18.954      861.699
08/25/2014  22:48:00       46.420      -53.691        8.309       30.868       52.446       26.379      952.808     2750.635      695.869        0.475        0.220       70.975       33.260        0.220      343.082       18.942      861.712
08/25/2014  22:49:00       76.710     -109.898      -13.578       31.317       30.673       21.875      980.773      940.828      478.519        1.027        0.120      134.022       19.919        0.022      343.165       19.085      861.733
08/25/2014  22:50:00       79.907     -154.499      -26.106       38.278       38.076       22.949     1465.171     1449.802      526.654        1.719        0.172      173.940       20.416        0.014      343.208       19.156      861.737
08/25/2014  22:51:00       71.961     -126.192      -38.777       35.299       37.483       20.856     1246.038     1404.948      434.973        1.285        0.154      145.268       12.941        0.008      343.199       19.142      861.738
08/25/2014  22:52:00       42.195      -92.146      -25.888       38.025       29.492       28.363     1445.909      869.781      804.476        0.703        0.156      101.348       17.957        0.031      343.139       19.040      861.739
08/25/2014  22:53:00       89.775      -73.937      -10.188       49.271       51.010       31.340     2427.668     2601.971      982.207        0.982        0.301      116.302       30.511        0.069      343.134       19.032      861.744
08/25/2014  22:54:00       18.333       20.400       42.406       26.849       32.832       25.352      720.894     1077.938      642.748        0.250        0.122       27.428       14.338        0.273      343.053       18.892      861.750
08/25/2014  22:55:00       53.543      -38.742       12.616       43.345       52.942       40.830     1878.790     2802.856     1667.059        0.544        0.317       66.090       35.512        0.289      343.079       18.938      861.740
08/25/2014  22:56:00       53.193      -39.720       25.667       58.435       67.279       48.196     3414.624     4526.476     2322.892        0.766        0.513       66.386       45.129        0.462      343.146       19.052      861.722
08/25/2014  22:57:00       43.542        0.749       56.428       46.769       53.038       43.199     2187.313     2812.993     1866.154        0.597        0.343       43.548       20.016        0.211      343.131       19.028      861.707
08/25/2014  22:58:00       71.112      -34.507       30.642       57.639       69.870       47.839     3322.255     4881.792     2288.611        0.884        0.525       79.042       42.399        0.288      343.151       19.061      861.709
08/25/2014  22:59:00       28.246       26.266       64.746       44.264       52.602       37.839     1959.280     2767.010     1431.758        0.592        0.308       38.571       25.020        0.421      343.140       19.042      861.709
08/25/2014  23:00:00       35.579      -23.327       42.425       53.977       93.102       48.478     2913.535     8667.926     2350.160        0.877        0.697       42.544       65.669        2.383      343.146       19.052      861.709
08/25/2014  23:01:00       77.343      -36.705       35.924       46.122       55.399       45.037     2127.246     3069.065     2028.347        0.792        0.361       85.611       39.996        0.218      343.108       18.989      861.711
08/25/2014  23:02:00       93.834      -79.948       11.680       62.523       91.961       43.017     3909.164     8456.892     1850.439        1.477        0.711      123.274       61.739        0.251      343.130       19.024      861.724
08/25/2014  23:03:00      120.936     -117.688      -22.516       37.082       37.619       27.604     1375.095     1415.204      761.974        1.627        0.178      168.748       15.377        0.008      343.139       19.040      861.737
08/25/2014  23:04:00      124.346     -141.284      -25.843       29.308       32.696       20.285      858.967     1069.000      411.491        1.921        0.117      188.211       16.816        0.008      343.133       19.028      861.748
08/25/2014  23:05:00       59.640      -92.443      -14.033       68.572       59.036       46.546     4702.098     3485.231     2166.485        1.132        0.518      110.012       37.400        0.116      343.227       19.190      861.752
08/25/2014  23:06:00       32.386      -78.207       22.998       44.525       62.264       40.871     1982.511     3876.765     1670.418        0.761        0.376       84.647       31.563        0.139      343.215       19.170      861.778
08/25/2014  23:07:00      117.184      -96.234      -12.876       30.609       46.786       27.329      936.933     2188.941      746.854        1.352        0.194      151.635       21.135        0.019      343.123       19.012      861.784
08/25/2014  23:08:00      134.451     -109.419      -11.754       46.636       47.989       30.179     2174.935     2302.917      910.766        1.779        0.269      173.348       28.503        0.027      343.116       18.999      861.795
08/25/2014  23:09:00       54.960      -55.538       17.117       36.132       57.778       36.123     1305.505     3338.326     1304.846        0.617        0.297       78.135       31.613        0.164      343.084       18.947      861.833
08/25/2014  23:10:00       24.789       -4.216       33.798       36.892       47.353       24.473     1361.011     2242.297      598.908        0.299        0.210       25.145       29.324        1.360      343.084       18.947      861.853
08/25/2014  23:11:00       58.780       54.147       48.780       46.178       34.680       25.387     2132.395     1202.723      644.497        0.637        0.199       79.919       20.256        0.064      343.062       18.909      861.874
08/25/2014  23:12:00       81.112       65.421       47.268       18.090       20.558       19.266      327.252      422.622      371.185        0.711        0.056      104.207       14.036        0.018      342.971       18.754      861.908
08/25/2014  23:13:00      104.360       43.619       24.530       37.057       34.650       28.551     1373.230     1200.615      815.150        0.839        0.169      113.109       18.862        0.028      342.896       18.628      861.938
08/25/2014  23:14:00       90.377       16.732       13.540       45.232       36.371       26.301     2045.940     1322.868      691.758        0.635        0.203       91.913       13.159        0.020      342.858       18.562      861.962
08/25/2014  23:15:00       75.982       52.166       26.947       34.278       26.556       18.791     1175.001      705.233      353.096        0.573        0.112       92.166       16.194        0.031      342.800       18.463      861.984
08/25/2014  23:16:00       74.317       52.152       43.590       38.190       27.501       29.234     1458.453      756.295      854.654        0.661        0.153       90.790       21.529        0.056      342.861       18.566      862.014
08/25/2014  23:17:00       87.719       29.895       13.684       35.255       33.518       26.567     1242.919     1123.464      705.801        0.592        0.154       92.674       13.984        0.023      342.807       18.475      862.031
08/25/2014  23:18:00       47.929       25.531        3.333       28.038       31.218       20.029      786.152      974.556      401.159        0.256        0.108       54.305       11.557        0.045      342.713       18.314      862.043
08/25/2014  23:19:00       71.947       57.436        7.365       26.131       27.855       23.962      682.817      775.907      574.169        0.528        0.102       92.062        6.484        0.005      342.672       18.245      862.050
08/25/2014  23:20:00       79.721       46.170        6.294       27.798       25.719       23.065      772.705      661.483      531.994        0.525        0.098       92.126       12.451        0.018      342.673       18.247      862.051
08/25/2014  23:21:00       81.072       57.732       11.603       29.392       26.203       25.575      863.905      686.572      654.066        0.612        0.110       99.528       16.390        0.027      342.693       18.282      862.062
08/25/2014  23:22:00       83.091       55.996       14.139       27.066       23.942       21.238      732.577      573.208      451.060        0.600        0.088      100.198       11.526        0.013      342.681       18.261      862.061
08/25/2014  23:23:00       98.219       54.344       13.163       25.890       16.342       14.834      670.290      267.049      220.052        0.697        0.058      112.251        6.207        0.003      342.748       18.374      862.055
08/25/2014  23:24:00       77.742       29.961        1.735       42.361       31.320       24.123     1794.416      980.921      581.937        0.515        0.168       83.316       18.656        0.050      342.717       18.322      862.053
08/25/2014  23:25:00       52.671       33.212       23.047       26.381       21.210       21.489      695.963      449.857      461.780        0.301        0.080       62.267       12.492        0.040      342.644       18.197      862.048
08/25/2014  23:26:00       94.101       49.545        3.308       25.151       22.269       19.836      632.589      495.904      393.454        0.642        0.076      106.347       12.103        0.013      342.692       18.278      862.048
08/25/2014  23:27:00       77.765       47.259       -1.982       21.322       21.488       16.440      454.645      461.716      270.282        0.474        0.059       90.998        9.655        0.011      342.674       18.247      862.049
08/25/2014  23:28:00       80.242       49.070        5.707       23.260       27.923       17.230      541.019      779.710      296.882        0.525        0.081       94.057       12.070        0.016      342.687       18.272      862.044
08/25/2014  23:29:00       80.852       41.168       15.383       15.195       11.023       14.320      230.902      121.503      205.052        0.451        0.028       90.730        4.899        0.003      342.769       18.411      862.039
08/25/2014  23:30:00       66.479       37.347        9.078       14.490       22.465       20.657      209.958      504.657      426.699        0.352        0.057       76.252        9.279        0.015      342.790       18.446      862.040
08/25/2014  23:31:00       54.792       13.313        4.114       26.126       22.086       18.719      682.553      487.772      350.383        0.236        0.076       56.386       13.705        0.059      342.803       18.468      862.040
08/25/2014  23:32:00       27.659       34.488       15.462       30.171       21.094       17.350      910.278      444.950      301.008        0.192        0.083       44.209        9.922        0.050      342.917       18.662      862.043
08/25/2014  23:33:00       13.060       16.629       19.028       15.030       10.118       10.510      225.888      102.377      110.454        0.062        0.022       21.145        9.945        0.221      342.933       18.688      862.038
08/25/2014  23:34:00      -35.024        1.147        0.239       20.799        9.965        6.393      432.593       99.299       40.867        0.090        0.029       35.043        7.202        0.042      342.743       18.365      862.048
08/25/2014  23:35:00      -26.117      -14.043        0.579       25.634       12.600       10.772      657.107      158.750      116.030        0.091        0.047       29.653       14.424        0.237      342.685       18.267      862.042
08/25/2014  23:36:00       -7.947        4.010      -11.175        9.009        8.268        5.638       81.155       68.363       31.784        0.019        0.009        8.901        4.782        0.289      342.725       18.334      862.047
08/25/2014  23:37:00      -16.160       11.564       -4.214        6.115        6.591        3.601       37.390       43.446       12.966        0.025        0.005       19.871        1.776        0.008      342.906       18.639      862.055
08/25/2014  23:38:00       -6.089      -47.199       -2.949       13.363       29.676       12.199      178.570      880.665      148.825        0.174        0.060       47.590        6.170        0.017      343.004       18.810      862.055
08/25/2014  23:39:00      -19.875      -10.018        6.704       16.105       14.948       12.987      259.355      223.433      168.653        0.060        0.033       22.258       11.376        0.261      342.922       18.670      862.052
08/25/2014  23:40:00      -64.421       -3.287      -12.065        7.089        7.136        5.660       50.251       50.920       32.030        0.222        0.007       64.505        2.630        0.002      342.811       18.482      862.063
08/25/2014  23:41:00      -73.860      -16.678       -6.528       13.494       13.243        8.348      182.095      175.374       69.684        0.310        0.021       75.719        7.676        0.010      342.808       18.476      862.075
08/25/2014  23:42:00      -77.130        6.896      -10.865       22.281       25.609       13.528      496.432      655.819      182.995        0.372        0.067       77.437       14.042        0.033      342.835       18.522      862.085
08/25/2014  23:43:00      -19.568       44.447      -19.142       22.339       29.815       14.863      499.018      888.912      220.912        0.217        0.080       48.564       15.362        0.100      342.945       18.710      862.100
08/25/2014  23:44:00      -25.374      -14.021        1.971       20.065       16.158        7.722      402.599      261.093       59.631        0.078        0.036       28.990        8.751        0.091      342.903       18.636      862.101
08/25/2014  23:45:00      -59.782      -26.040       -2.256       19.716       16.023        8.272      388.707      256.736       68.432        0.249        0.036       65.207        8.113        0.015      342.848       18.545      862.091
08/25/2014  23:46:00     -102.531      -24.419       -8.683       21.061       15.174       11.981      443.558      230.245      143.534        0.600        0.041      105.398        8.132        0.006      342.827       18.511      862.092
08/25/2014  23:47:00     -144.666      -54.564       -4.115       39.468       48.537       24.430     1557.700     2355.844      596.811        1.422        0.226      154.614       23.060        0.022      342.720       18.327      862.089
08/25/2014  23:48:00      -72.041      -19.866        0.257       35.223       33.089       23.595     1240.659     1094.905      556.715        0.424        0.145       74.730       22.664        0.092      342.599       18.121      862.092
08/25/2014  23:49:00     -115.404       26.226      -11.331       28.948       27.525       10.119      838.012      757.626      102.390        0.792        0.085      118.347        2.093        0.000      342.571       18.076      862.099
08/25/2014  23:50:00     -105.248        2.656      -12.790       34.437       18.401       13.332     1185.880      338.599      177.748        0.647        0.085      105.282       15.267        0.021      342.563       18.060      862.107
08/25/2014  23:51:00      -81.745      -10.781       -9.863       18.328       22.268       16.169      335.919      495.853      261.426        0.399        0.055       82.453       10.825        0.017      342.536       18.014      862.117
08/25/2014  23:52:00      -89.285      -25.239       -8.391       15.359       14.147        9.181      235.899      200.124       84.298        0.460        0.026       92.783        7.131        0.006      342.531       18.006      862.124
08/25/2014  23:53:00      -94.438      -35.190       -6.924       15.954       17.776        8.833      254.520      315.977       78.024        0.543        0.032      100.781        6.165        0.004      342.562       18.059      862.134
08/25/2014  23:54:00      -88.726      -28.543      -10.153       16.182       22.668       13.087      261.856      513.841      171.274        0.487        0.047       93.204        6.445        0.005      342.557       18.050      862.137
08/25/2014  23:55:00      -93.455      -17.783      -11.422       16.808       22.191       10.996      282.507      492.419      120.923        0.504        0.045       95.132        9.376        0.010      342.502       17.957      862.138
08/25/2014  23:56:00      -97.280      -50.930       -4.033       21.738       21.734       14.527      472.534      472.376      211.031        0.661        0.058      109.806       12.192        0.012      342.520       17.987      862.133
08/25/2014  23:57:00      -96.418      -49.713       -7.140       16.105       22.132       12.520      259.373      489.825      156.758        0.636        0.045      108.480        7.483        0.005      342.504       17.962      862.136
08/25/2014  23:58:00      -87.359      -39.284       -2.898       18.218       20.150        9.606      331.911      406.027       92.276        0.501        0.042       95.785        7.350        0.006      342.495       17.942      862.133
08/25/2014  23:59:00      -78.742      -45.593       -0.597       32.380       20.612       13.997     1048.460      424.846      195.909        0.497        0.083       90.989       15.791        0.030      342.517       17.983      862.131
